<?xml version="1.0" encoding="UTF-8" standalone="no" ?>
<gpx xmlns="http://www.topografix.com/GPX/1/1" xmlns:xsi="http://www.w3.org/2001/XMLSchema-instance" xsi:schemaLocation="http://www.topografix.com/GPX/1/1 http://www.topografix.com/GPX/1/1/gpx.xsd" version="1.1" creator="VisuGPX - https://www.visugpx.com">
  <metadata>
    <name>Roumoules lac de Moustiers CRA 06 06 20</name>
    <desc><![CDATA[Boucle au départ de Roumoules jusqu'au lac de Sainte Croix]]></desc>
  </metadata>
  <trk>
    <name><![CDATA[Roumoules lac de Moustiers CRA 06 06 20]]></name>
    <extensions>
      <line xmlns="http://www.topografix.com/GPX/gpx_style/0/2">
        <color>0000FF</color>
        <width>4</width>
      </line>
    </extensions>
    <trkseg>
      <trkpt lat="43.82936" lon="6.13667">
        <ele>655.9</ele>
        <time>2020-06-06T07:13:01Z</time>
      </trkpt>
      <trkpt lat="43.82933" lon="6.13667">
        <ele>639</ele>
        <time>2020-06-06T07:13:05Z</time>
      </trkpt>
      <trkpt lat="43.8294" lon="6.13675">
        <ele>583</ele>
        <time>2020-06-06T07:18:09Z</time>
      </trkpt>
      <trkpt lat="43.8295" lon="6.13675">
        <ele>583.2</ele>
        <time>2020-06-06T07:18:24Z</time>
      </trkpt>
      <trkpt lat="43.82958" lon="6.13681">
        <ele>583.2</ele>
        <time>2020-06-06T07:18:33Z</time>
      </trkpt>
      <trkpt lat="43.82961" lon="6.13668">
        <ele>583.6</ele>
        <time>2020-06-06T07:20:47Z</time>
      </trkpt>
      <trkpt lat="43.82969" lon="6.1366">
        <ele>583.7</ele>
        <time>2020-06-06T07:20:55Z</time>
      </trkpt>
      <trkpt lat="43.82978" lon="6.13661">
        <ele>583.8</ele>
        <time>2020-06-06T07:21:02Z</time>
      </trkpt>
      <trkpt lat="43.82988" lon="6.13663">
        <ele>583.9</ele>
        <time>2020-06-06T07:21:10Z</time>
      </trkpt>
      <trkpt lat="43.82997" lon="6.13666">
        <ele>584.2</ele>
        <time>2020-06-06T07:21:17Z</time>
      </trkpt>
      <trkpt lat="43.83006" lon="6.13669">
        <ele>584.3</ele>
        <time>2020-06-06T07:21:24Z</time>
      </trkpt>
      <trkpt lat="43.83015" lon="6.13673">
        <ele>584.8</ele>
        <time>2020-06-06T07:21:33Z</time>
      </trkpt>
      <trkpt lat="43.83024" lon="6.13677">
        <ele>585.1</ele>
        <time>2020-06-06T07:21:41Z</time>
      </trkpt>
      <trkpt lat="43.83033" lon="6.1368">
        <ele>585.7</ele>
        <time>2020-06-06T07:21:48Z</time>
      </trkpt>
      <trkpt lat="43.83042" lon="6.13685">
        <ele>586.1</ele>
        <time>2020-06-06T07:21:55Z</time>
      </trkpt>
      <trkpt lat="43.8305" lon="6.13689">
        <ele>586.5</ele>
        <time>2020-06-06T07:22:02Z</time>
      </trkpt>
      <trkpt lat="43.83059" lon="6.13693">
        <ele>586.9</ele>
        <time>2020-06-06T07:22:10Z</time>
      </trkpt>
      <trkpt lat="43.83068" lon="6.13697">
        <ele>587.2</ele>
        <time>2020-06-06T07:22:18Z</time>
      </trkpt>
      <trkpt lat="43.83075" lon="6.13705">
        <ele>587.8</ele>
        <time>2020-06-06T07:22:25Z</time>
      </trkpt>
      <trkpt lat="43.83081" lon="6.13715">
        <ele>588.3</ele>
        <time>2020-06-06T07:22:33Z</time>
      </trkpt>
      <trkpt lat="43.83088" lon="6.13724">
        <ele>589</ele>
        <time>2020-06-06T07:22:41Z</time>
      </trkpt>
      <trkpt lat="43.83097" lon="6.13729">
        <ele>589.8</ele>
        <time>2020-06-06T07:22:51Z</time>
      </trkpt>
      <trkpt lat="43.83107" lon="6.13733">
        <ele>590.6</ele>
        <time>2020-06-06T07:23:00Z</time>
      </trkpt>
      <trkpt lat="43.83117" lon="6.13735">
        <ele>591.3</ele>
        <time>2020-06-06T07:23:08Z</time>
      </trkpt>
      <trkpt lat="43.83126" lon="6.13737">
        <ele>591.7</ele>
        <time>2020-06-06T07:23:16Z</time>
      </trkpt>
      <trkpt lat="43.83135" lon="6.13742">
        <ele>592</ele>
        <time>2020-06-06T07:23:25Z</time>
      </trkpt>
      <trkpt lat="43.83144" lon="6.13745">
        <ele>592.2</ele>
        <time>2020-06-06T07:23:32Z</time>
      </trkpt>
      <trkpt lat="43.83153" lon="6.13748">
        <ele>592.3</ele>
        <time>2020-06-06T07:23:39Z</time>
      </trkpt>
      <trkpt lat="43.83162" lon="6.1375">
        <ele>592.6</ele>
        <time>2020-06-06T07:23:46Z</time>
      </trkpt>
      <trkpt lat="43.83171" lon="6.13754">
        <ele>592.8</ele>
        <time>2020-06-06T07:23:54Z</time>
      </trkpt>
      <trkpt lat="43.8318" lon="6.13757">
        <ele>592.9</ele>
        <time>2020-06-06T07:24:01Z</time>
      </trkpt>
      <trkpt lat="43.83189" lon="6.1376">
        <ele>592.9</ele>
        <time>2020-06-06T07:24:11Z</time>
      </trkpt>
      <trkpt lat="43.83199" lon="6.13763">
        <ele>592.8</ele>
        <time>2020-06-06T07:24:19Z</time>
      </trkpt>
      <trkpt lat="43.83208" lon="6.13768">
        <ele>592.9</ele>
        <time>2020-06-06T07:24:27Z</time>
      </trkpt>
      <trkpt lat="43.83218" lon="6.13771">
        <ele>593</ele>
        <time>2020-06-06T07:24:37Z</time>
      </trkpt>
      <trkpt lat="43.83229" lon="6.13772">
        <ele>594.2</ele>
        <time>2020-06-06T07:25:49Z</time>
      </trkpt>
      <trkpt lat="43.83238" lon="6.13778">
        <ele>594.5</ele>
        <time>2020-06-06T07:26:04Z</time>
      </trkpt>
      <trkpt lat="43.83246" lon="6.13784">
        <ele>594.8</ele>
        <time>2020-06-06T07:26:12Z</time>
      </trkpt>
      <trkpt lat="43.83255" lon="6.1379">
        <ele>596.8</ele>
        <time>2020-06-06T07:27:48Z</time>
      </trkpt>
      <trkpt lat="43.83263" lon="6.13798">
        <ele>596.8</ele>
        <time>2020-06-06T07:27:55Z</time>
      </trkpt>
      <trkpt lat="43.8327" lon="6.13808">
        <ele>596.9</ele>
        <time>2020-06-06T07:28:02Z</time>
      </trkpt>
      <trkpt lat="43.83276" lon="6.13818">
        <ele>597.3</ele>
        <time>2020-06-06T07:28:08Z</time>
      </trkpt>
      <trkpt lat="43.83282" lon="6.13829">
        <ele>598</ele>
        <time>2020-06-06T07:28:15Z</time>
      </trkpt>
      <trkpt lat="43.83289" lon="6.1384">
        <ele>598.3</ele>
        <time>2020-06-06T07:28:21Z</time>
      </trkpt>
      <trkpt lat="43.83296" lon="6.13849">
        <ele>598.4</ele>
        <time>2020-06-06T07:28:28Z</time>
      </trkpt>
      <trkpt lat="43.83303" lon="6.13858">
        <ele>598.7</ele>
        <time>2020-06-06T07:28:34Z</time>
      </trkpt>
      <trkpt lat="43.83311" lon="6.13866">
        <ele>599.1</ele>
        <time>2020-06-06T07:28:41Z</time>
      </trkpt>
      <trkpt lat="43.83319" lon="6.13875">
        <ele>598.9</ele>
        <time>2020-06-06T07:28:48Z</time>
      </trkpt>
      <trkpt lat="43.83326" lon="6.13883">
        <ele>598.8</ele>
        <time>2020-06-06T07:28:55Z</time>
      </trkpt>
      <trkpt lat="43.83335" lon="6.13889">
        <ele>598.3</ele>
        <time>2020-06-06T07:29:03Z</time>
      </trkpt>
      <trkpt lat="43.83344" lon="6.13893">
        <ele>598.1</ele>
        <time>2020-06-06T07:29:09Z</time>
      </trkpt>
      <trkpt lat="43.83354" lon="6.13896">
        <ele>597.9</ele>
        <time>2020-06-06T07:29:15Z</time>
      </trkpt>
      <trkpt lat="43.83363" lon="6.139">
        <ele>597.7</ele>
        <time>2020-06-06T07:29:22Z</time>
      </trkpt>
      <trkpt lat="43.83371" lon="6.13905">
        <ele>597.7</ele>
        <time>2020-06-06T07:29:30Z</time>
      </trkpt>
      <trkpt lat="43.83379" lon="6.13909">
        <ele>597.5</ele>
        <time>2020-06-06T07:29:42Z</time>
      </trkpt>
      <trkpt lat="43.83388" lon="6.13915">
        <ele>597.4</ele>
        <time>2020-06-06T07:29:49Z</time>
      </trkpt>
      <trkpt lat="43.83396" lon="6.13921">
        <ele>597.5</ele>
        <time>2020-06-06T07:29:56Z</time>
      </trkpt>
      <trkpt lat="43.83405" lon="6.13927">
        <ele>597.7</ele>
        <time>2020-06-06T07:30:03Z</time>
      </trkpt>
      <trkpt lat="43.83414" lon="6.13934">
        <ele>597.7</ele>
        <time>2020-06-06T07:30:11Z</time>
      </trkpt>
      <trkpt lat="43.83422" lon="6.1394">
        <ele>597.7</ele>
        <time>2020-06-06T07:30:18Z</time>
      </trkpt>
      <trkpt lat="43.8343" lon="6.13946">
        <ele>597.8</ele>
        <time>2020-06-06T07:30:24Z</time>
      </trkpt>
      <trkpt lat="43.83439" lon="6.13952">
        <ele>598.2</ele>
        <time>2020-06-06T07:30:29Z</time>
      </trkpt>
      <trkpt lat="43.83448" lon="6.13957">
        <ele>598.3</ele>
        <time>2020-06-06T07:30:36Z</time>
      </trkpt>
      <trkpt lat="43.83456" lon="6.13963">
        <ele>598.7</ele>
        <time>2020-06-06T07:30:43Z</time>
      </trkpt>
      <trkpt lat="43.83464" lon="6.13971">
        <ele>599.2</ele>
        <time>2020-06-06T07:30:50Z</time>
      </trkpt>
      <trkpt lat="43.83472" lon="6.13978">
        <ele>599.6</ele>
        <time>2020-06-06T07:30:57Z</time>
      </trkpt>
      <trkpt lat="43.8348" lon="6.13986">
        <ele>599.8</ele>
        <time>2020-06-06T07:31:04Z</time>
      </trkpt>
      <trkpt lat="43.83488" lon="6.13994">
        <ele>599.8</ele>
        <time>2020-06-06T07:31:11Z</time>
      </trkpt>
      <trkpt lat="43.83496" lon="6.14">
        <ele>599.7</ele>
        <time>2020-06-06T07:31:18Z</time>
      </trkpt>
      <trkpt lat="43.83505" lon="6.14005">
        <ele>600</ele>
        <time>2020-06-06T07:31:26Z</time>
      </trkpt>
      <trkpt lat="43.83515" lon="6.1401">
        <ele>600.4</ele>
        <time>2020-06-06T07:31:33Z</time>
      </trkpt>
      <trkpt lat="43.83522" lon="6.14018">
        <ele>600.9</ele>
        <time>2020-06-06T07:31:40Z</time>
      </trkpt>
      <trkpt lat="43.8353" lon="6.14027">
        <ele>601.3</ele>
        <time>2020-06-06T07:31:47Z</time>
      </trkpt>
      <trkpt lat="43.83538" lon="6.14037">
        <ele>601.4</ele>
        <time>2020-06-06T07:31:55Z</time>
      </trkpt>
      <trkpt lat="43.83544" lon="6.14047">
        <ele>601.4</ele>
        <time>2020-06-06T07:32:02Z</time>
      </trkpt>
      <trkpt lat="43.83551" lon="6.14055">
        <ele>601.3</ele>
        <time>2020-06-06T07:32:08Z</time>
      </trkpt>
      <trkpt lat="43.83558" lon="6.14063">
        <ele>600.9</ele>
        <time>2020-06-06T07:32:14Z</time>
      </trkpt>
      <trkpt lat="43.83566" lon="6.14071">
        <ele>600.7</ele>
        <time>2020-06-06T07:32:22Z</time>
      </trkpt>
      <trkpt lat="43.83573" lon="6.14079">
        <ele>600.6</ele>
        <time>2020-06-06T07:32:28Z</time>
      </trkpt>
      <trkpt lat="43.83581" lon="6.14088">
        <ele>600.5</ele>
        <time>2020-06-06T07:32:34Z</time>
      </trkpt>
      <trkpt lat="43.83588" lon="6.14098">
        <ele>600.6</ele>
        <time>2020-06-06T07:32:42Z</time>
      </trkpt>
      <trkpt lat="43.83596" lon="6.14106">
        <ele>600.7</ele>
        <time>2020-06-06T07:32:48Z</time>
      </trkpt>
      <trkpt lat="43.83604" lon="6.14113">
        <ele>600.6</ele>
        <time>2020-06-06T07:32:55Z</time>
      </trkpt>
      <trkpt lat="43.83611" lon="6.1412">
        <ele>600.9</ele>
        <time>2020-06-06T07:33:01Z</time>
      </trkpt>
      <trkpt lat="43.83619" lon="6.14128">
        <ele>601.2</ele>
        <time>2020-06-06T07:33:08Z</time>
      </trkpt>
      <trkpt lat="43.83626" lon="6.14136">
        <ele>601.5</ele>
        <time>2020-06-06T07:33:16Z</time>
      </trkpt>
      <trkpt lat="43.83632" lon="6.14146">
        <ele>601.8</ele>
        <time>2020-06-06T07:33:23Z</time>
      </trkpt>
      <trkpt lat="43.8364" lon="6.14154">
        <ele>602.2</ele>
        <time>2020-06-06T07:33:30Z</time>
      </trkpt>
      <trkpt lat="43.83646" lon="6.14164">
        <ele>602.6</ele>
        <time>2020-06-06T07:33:37Z</time>
      </trkpt>
      <trkpt lat="43.83654" lon="6.14171">
        <ele>603.1</ele>
        <time>2020-06-06T07:33:45Z</time>
      </trkpt>
      <trkpt lat="43.83663" lon="6.14176">
        <ele>603.7</ele>
        <time>2020-06-06T07:33:54Z</time>
      </trkpt>
      <trkpt lat="43.83671" lon="6.14184">
        <ele>604.2</ele>
        <time>2020-06-06T07:34:01Z</time>
      </trkpt>
      <trkpt lat="43.83677" lon="6.14195">
        <ele>604.8</ele>
        <time>2020-06-06T07:34:08Z</time>
      </trkpt>
      <trkpt lat="43.83682" lon="6.14207">
        <ele>605.2</ele>
        <time>2020-06-06T07:34:15Z</time>
      </trkpt>
      <trkpt lat="43.83686" lon="6.14219">
        <ele>605.5</ele>
        <time>2020-06-06T07:34:23Z</time>
      </trkpt>
      <trkpt lat="43.83692" lon="6.1423">
        <ele>605.5</ele>
        <time>2020-06-06T07:34:30Z</time>
      </trkpt>
      <trkpt lat="43.83695" lon="6.14242">
        <ele>605.3</ele>
        <time>2020-06-06T07:34:37Z</time>
      </trkpt>
      <trkpt lat="43.83701" lon="6.14253">
        <ele>605.1</ele>
        <time>2020-06-06T07:34:44Z</time>
      </trkpt>
      <trkpt lat="43.83705" lon="6.14264">
        <ele>605.1</ele>
        <time>2020-06-06T07:34:51Z</time>
      </trkpt>
      <trkpt lat="43.8371" lon="6.14276">
        <ele>605.1</ele>
        <time>2020-06-06T07:34:58Z</time>
      </trkpt>
      <trkpt lat="43.83714" lon="6.14288">
        <ele>605.1</ele>
        <time>2020-06-06T07:35:06Z</time>
      </trkpt>
      <trkpt lat="43.83718" lon="6.143">
        <ele>605.1</ele>
        <time>2020-06-06T07:35:14Z</time>
      </trkpt>
      <trkpt lat="43.83721" lon="6.14312">
        <ele>605.2</ele>
        <time>2020-06-06T07:35:22Z</time>
      </trkpt>
      <trkpt lat="43.83725" lon="6.14324">
        <ele>605.2</ele>
        <time>2020-06-06T07:35:29Z</time>
      </trkpt>
      <trkpt lat="43.83729" lon="6.14336">
        <ele>605</ele>
        <time>2020-06-06T07:35:36Z</time>
      </trkpt>
      <trkpt lat="43.83731" lon="6.14349">
        <ele>604.5</ele>
        <time>2020-06-06T07:35:44Z</time>
      </trkpt>
      <trkpt lat="43.83735" lon="6.14361">
        <ele>603.8</ele>
        <time>2020-06-06T07:36:05Z</time>
      </trkpt>
      <trkpt lat="43.83739" lon="6.14372">
        <ele>603.6</ele>
        <time>2020-06-06T07:36:14Z</time>
      </trkpt>
      <trkpt lat="43.83742" lon="6.14385">
        <ele>603.5</ele>
        <time>2020-06-06T07:36:21Z</time>
      </trkpt>
      <trkpt lat="43.83747" lon="6.14395">
        <ele>603.4</ele>
        <time>2020-06-06T07:36:30Z</time>
      </trkpt>
      <trkpt lat="43.83754" lon="6.14405">
        <ele>603.4</ele>
        <time>2020-06-06T07:36:39Z</time>
      </trkpt>
      <trkpt lat="43.83761" lon="6.14413">
        <ele>603.6</ele>
        <time>2020-06-06T07:36:47Z</time>
      </trkpt>
      <trkpt lat="43.83765" lon="6.14425">
        <ele>603.7</ele>
        <time>2020-06-06T07:36:55Z</time>
      </trkpt>
      <trkpt lat="43.83769" lon="6.14438">
        <ele>603.8</ele>
        <time>2020-06-06T07:37:03Z</time>
      </trkpt>
      <trkpt lat="43.83776" lon="6.14448">
        <ele>604.1</ele>
        <time>2020-06-06T07:37:10Z</time>
      </trkpt>
      <trkpt lat="43.83782" lon="6.14459">
        <ele>604.3</ele>
        <time>2020-06-06T07:37:17Z</time>
      </trkpt>
      <trkpt lat="43.83786" lon="6.14471">
        <ele>604.5</ele>
        <time>2020-06-06T07:37:25Z</time>
      </trkpt>
      <trkpt lat="43.83788" lon="6.14484">
        <ele>604.7</ele>
        <time>2020-06-06T07:37:33Z</time>
      </trkpt>
      <trkpt lat="43.8379" lon="6.14498">
        <ele>604.8</ele>
        <time>2020-06-06T07:37:40Z</time>
      </trkpt>
      <trkpt lat="43.83791" lon="6.14512">
        <ele>604.8</ele>
        <time>2020-06-06T07:37:47Z</time>
      </trkpt>
      <trkpt lat="43.83795" lon="6.14526">
        <ele>605</ele>
        <time>2020-06-06T07:37:54Z</time>
      </trkpt>
      <trkpt lat="43.83799" lon="6.14538">
        <ele>605.3</ele>
        <time>2020-06-06T07:38:01Z</time>
      </trkpt>
      <trkpt lat="43.83802" lon="6.14549">
        <ele>605.5</ele>
        <time>2020-06-06T07:38:07Z</time>
      </trkpt>
      <trkpt lat="43.83806" lon="6.14562">
        <ele>605.7</ele>
        <time>2020-06-06T07:38:14Z</time>
      </trkpt>
      <trkpt lat="43.8381" lon="6.14575">
        <ele>606</ele>
        <time>2020-06-06T07:38:21Z</time>
      </trkpt>
      <trkpt lat="43.83813" lon="6.14588">
        <ele>606.4</ele>
        <time>2020-06-06T07:38:29Z</time>
      </trkpt>
      <trkpt lat="43.83817" lon="6.146">
        <ele>606.8</ele>
        <time>2020-06-06T07:38:35Z</time>
      </trkpt>
      <trkpt lat="43.83819" lon="6.14614">
        <ele>606.8</ele>
        <time>2020-06-06T07:38:42Z</time>
      </trkpt>
      <trkpt lat="43.83819" lon="6.14626">
        <ele>607</ele>
        <time>2020-06-06T07:38:48Z</time>
      </trkpt>
      <trkpt lat="43.83819" lon="6.14639">
        <ele>607.2</ele>
        <time>2020-06-06T07:38:54Z</time>
      </trkpt>
      <trkpt lat="43.83819" lon="6.14652">
        <ele>607.4</ele>
        <time>2020-06-06T07:39:01Z</time>
      </trkpt>
      <trkpt lat="43.8382" lon="6.14666">
        <ele>607.5</ele>
        <time>2020-06-06T07:39:08Z</time>
      </trkpt>
      <trkpt lat="43.8382" lon="6.1468">
        <ele>607.5</ele>
        <time>2020-06-06T07:39:15Z</time>
      </trkpt>
      <trkpt lat="43.8382" lon="6.14693">
        <ele>607.6</ele>
        <time>2020-06-06T07:39:21Z</time>
      </trkpt>
      <trkpt lat="43.8382" lon="6.14705">
        <ele>607.7</ele>
        <time>2020-06-06T07:39:27Z</time>
      </trkpt>
      <trkpt lat="43.83821" lon="6.14719">
        <ele>607.8</ele>
        <time>2020-06-06T07:39:34Z</time>
      </trkpt>
      <trkpt lat="43.83821" lon="6.14733">
        <ele>607.8</ele>
        <time>2020-06-06T07:39:41Z</time>
      </trkpt>
      <trkpt lat="43.83823" lon="6.14748">
        <ele>607.9</ele>
        <time>2020-06-06T07:39:48Z</time>
      </trkpt>
      <trkpt lat="43.83827" lon="6.1476">
        <ele>607.7</ele>
        <time>2020-06-06T07:39:54Z</time>
      </trkpt>
      <trkpt lat="43.8383" lon="6.14773">
        <ele>607.8</ele>
        <time>2020-06-06T07:40:00Z</time>
      </trkpt>
      <trkpt lat="43.83826" lon="6.14786">
        <ele>607.7</ele>
        <time>2020-06-06T07:40:07Z</time>
      </trkpt>
      <trkpt lat="43.83816" lon="6.14791">
        <ele>607.7</ele>
        <time>2020-06-06T07:40:14Z</time>
      </trkpt>
      <trkpt lat="43.83807" lon="6.14798">
        <ele>607.8</ele>
        <time>2020-06-06T07:40:22Z</time>
      </trkpt>
      <trkpt lat="43.83799" lon="6.14804">
        <ele>608.1</ele>
        <time>2020-06-06T07:40:28Z</time>
      </trkpt>
      <trkpt lat="43.83792" lon="6.14811">
        <ele>608.7</ele>
        <time>2020-06-06T07:40:35Z</time>
      </trkpt>
      <trkpt lat="43.83782" lon="6.14818">
        <ele>609.1</ele>
        <time>2020-06-06T07:40:42Z</time>
      </trkpt>
      <trkpt lat="43.83774" lon="6.14824">
        <ele>609.7</ele>
        <time>2020-06-06T07:40:49Z</time>
      </trkpt>
      <trkpt lat="43.83765" lon="6.14829">
        <ele>610.6</ele>
        <time>2020-06-06T07:40:56Z</time>
      </trkpt>
      <trkpt lat="43.83757" lon="6.14832">
        <ele>611.5</ele>
        <time>2020-06-06T07:41:02Z</time>
      </trkpt>
      <trkpt lat="43.83747" lon="6.14833">
        <ele>612.2</ele>
        <time>2020-06-06T07:41:08Z</time>
      </trkpt>
      <trkpt lat="43.83737" lon="6.14832">
        <ele>613.1</ele>
        <time>2020-06-06T07:41:15Z</time>
      </trkpt>
      <trkpt lat="43.83728" lon="6.1483">
        <ele>613.7</ele>
        <time>2020-06-06T07:41:21Z</time>
      </trkpt>
      <trkpt lat="43.83717" lon="6.14827">
        <ele>615.1</ele>
        <time>2020-06-06T07:41:28Z</time>
      </trkpt>
      <trkpt lat="43.83708" lon="6.14828">
        <ele>616.5</ele>
        <time>2020-06-06T07:41:35Z</time>
      </trkpt>
      <trkpt lat="43.83698" lon="6.14825">
        <ele>618</ele>
        <time>2020-06-06T07:41:42Z</time>
      </trkpt>
      <trkpt lat="43.83704" lon="6.14815">
        <ele>619.5</ele>
        <time>2020-06-06T07:41:50Z</time>
      </trkpt>
      <trkpt lat="43.83713" lon="6.14808">
        <ele>620.8</ele>
        <time>2020-06-06T07:41:57Z</time>
      </trkpt>
      <trkpt lat="43.83721" lon="6.14801">
        <ele>621.8</ele>
        <time>2020-06-06T07:42:03Z</time>
      </trkpt>
      <trkpt lat="43.83725" lon="6.14789">
        <ele>622.7</ele>
        <time>2020-06-06T07:42:10Z</time>
      </trkpt>
      <trkpt lat="43.83724" lon="6.14776">
        <ele>625.1</ele>
        <time>2020-06-06T07:42:26Z</time>
      </trkpt>
      <trkpt lat="43.83718" lon="6.14765">
        <ele>626</ele>
        <time>2020-06-06T07:42:34Z</time>
      </trkpt>
      <trkpt lat="43.83713" lon="6.14754">
        <ele>627.1</ele>
        <time>2020-06-06T07:42:44Z</time>
      </trkpt>
      <trkpt lat="43.8371" lon="6.14741">
        <ele>627.8</ele>
        <time>2020-06-06T07:42:52Z</time>
      </trkpt>
      <trkpt lat="43.83707" lon="6.14729">
        <ele>629</ele>
        <time>2020-06-06T07:43:13Z</time>
      </trkpt>
      <trkpt lat="43.83704" lon="6.14717">
        <ele>629.2</ele>
        <time>2020-06-06T07:43:21Z</time>
      </trkpt>
      <trkpt lat="43.837" lon="6.14705">
        <ele>629.5</ele>
        <time>2020-06-06T07:43:30Z</time>
      </trkpt>
      <trkpt lat="43.83696" lon="6.14693">
        <ele>629.8</ele>
        <time>2020-06-06T07:43:40Z</time>
      </trkpt>
      <trkpt lat="43.83692" lon="6.14681">
        <ele>630.1</ele>
        <time>2020-06-06T07:43:46Z</time>
      </trkpt>
      <trkpt lat="43.83688" lon="6.14669">
        <ele>630.1</ele>
        <time>2020-06-06T07:43:55Z</time>
      </trkpt>
      <trkpt lat="43.83685" lon="6.14656">
        <ele>629.9</ele>
        <time>2020-06-06T07:44:02Z</time>
      </trkpt>
      <trkpt lat="43.8368" lon="6.14645">
        <ele>629.6</ele>
        <time>2020-06-06T07:44:13Z</time>
      </trkpt>
      <trkpt lat="43.83672" lon="6.14638">
        <ele>629.5</ele>
        <time>2020-06-06T07:44:19Z</time>
      </trkpt>
      <trkpt lat="43.83663" lon="6.14635">
        <ele>630</ele>
        <time>2020-06-06T07:44:29Z</time>
      </trkpt>
      <trkpt lat="43.83654" lon="6.14633">
        <ele>631.1</ele>
        <time>2020-06-06T07:44:40Z</time>
      </trkpt>
      <trkpt lat="43.83645" lon="6.14632">
        <ele>632.5</ele>
        <time>2020-06-06T07:44:50Z</time>
      </trkpt>
      <trkpt lat="43.83636" lon="6.14635">
        <ele>633.8</ele>
        <time>2020-06-06T07:44:58Z</time>
      </trkpt>
      <trkpt lat="43.83628" lon="6.14641">
        <ele>636</ele>
        <time>2020-06-06T07:45:08Z</time>
      </trkpt>
      <trkpt lat="43.83619" lon="6.14645">
        <ele>638.3</ele>
        <time>2020-06-06T07:45:18Z</time>
      </trkpt>
      <trkpt lat="43.83613" lon="6.14655">
        <ele>644</ele>
        <time>2020-06-06T07:45:39Z</time>
      </trkpt>
      <trkpt lat="43.83616" lon="6.14667">
        <ele>645.2</ele>
        <time>2020-06-06T07:45:46Z</time>
      </trkpt>
      <trkpt lat="43.83618" lon="6.1468">
        <ele>646</ele>
        <time>2020-06-06T07:45:53Z</time>
      </trkpt>
      <trkpt lat="43.83622" lon="6.14694">
        <ele>646.5</ele>
        <time>2020-06-06T07:46:00Z</time>
      </trkpt>
      <trkpt lat="43.83623" lon="6.14707">
        <ele>647.1</ele>
        <time>2020-06-06T07:46:11Z</time>
      </trkpt>
      <trkpt lat="43.83616" lon="6.14716">
        <ele>647.4</ele>
        <time>2020-06-06T07:46:24Z</time>
      </trkpt>
      <trkpt lat="43.83608" lon="6.14724">
        <ele>648.1</ele>
        <time>2020-06-06T07:46:32Z</time>
      </trkpt>
      <trkpt lat="43.83601" lon="6.14733">
        <ele>649.1</ele>
        <time>2020-06-06T07:46:40Z</time>
      </trkpt>
      <trkpt lat="43.83595" lon="6.14742">
        <ele>650.9</ele>
        <time>2020-06-06T07:46:49Z</time>
      </trkpt>
      <trkpt lat="43.83589" lon="6.14753">
        <ele>652.2</ele>
        <time>2020-06-06T07:46:56Z</time>
      </trkpt>
      <trkpt lat="43.83582" lon="6.14761">
        <ele>653.2</ele>
        <time>2020-06-06T07:47:05Z</time>
      </trkpt>
      <trkpt lat="43.83573" lon="6.14768">
        <ele>653.9</ele>
        <time>2020-06-06T07:47:15Z</time>
      </trkpt>
      <trkpt lat="43.83564" lon="6.14774">
        <ele>654.4</ele>
        <time>2020-06-06T07:47:24Z</time>
      </trkpt>
      <trkpt lat="43.83556" lon="6.14781">
        <ele>654.7</ele>
        <time>2020-06-06T07:47:32Z</time>
      </trkpt>
      <trkpt lat="43.83548" lon="6.14788">
        <ele>654.9</ele>
        <time>2020-06-06T07:47:39Z</time>
      </trkpt>
      <trkpt lat="43.83541" lon="6.14794">
        <ele>655.6</ele>
        <time>2020-06-06T07:47:51Z</time>
      </trkpt>
      <trkpt lat="43.83534" lon="6.14805">
        <ele>654.9</ele>
        <time>2020-06-06T07:48:00Z</time>
      </trkpt>
      <trkpt lat="43.83525" lon="6.14807">
        <ele>654.9</ele>
        <time>2020-06-06T07:48:10Z</time>
      </trkpt>
      <trkpt lat="43.83517" lon="6.14814">
        <ele>655.3</ele>
        <time>2020-06-06T07:48:17Z</time>
      </trkpt>
      <trkpt lat="43.83509" lon="6.1482">
        <ele>655.4</ele>
        <time>2020-06-06T07:48:25Z</time>
      </trkpt>
      <trkpt lat="43.83501" lon="6.14826">
        <ele>655.5</ele>
        <time>2020-06-06T07:48:34Z</time>
      </trkpt>
      <trkpt lat="43.83493" lon="6.14834">
        <ele>655.6</ele>
        <time>2020-06-06T07:48:48Z</time>
      </trkpt>
      <trkpt lat="43.83486" lon="6.14842">
        <ele>655.5</ele>
        <time>2020-06-06T07:48:56Z</time>
      </trkpt>
      <trkpt lat="43.83478" lon="6.1485">
        <ele>655.5</ele>
        <time>2020-06-06T07:49:04Z</time>
      </trkpt>
      <trkpt lat="43.83471" lon="6.14859">
        <ele>655.4</ele>
        <time>2020-06-06T07:49:11Z</time>
      </trkpt>
      <trkpt lat="43.83464" lon="6.14868">
        <ele>655.3</ele>
        <time>2020-06-06T07:49:19Z</time>
      </trkpt>
      <trkpt lat="43.83456" lon="6.14875">
        <ele>655.2</ele>
        <time>2020-06-06T07:49:26Z</time>
      </trkpt>
      <trkpt lat="43.8345" lon="6.14887">
        <ele>655.1</ele>
        <time>2020-06-06T07:49:34Z</time>
      </trkpt>
      <trkpt lat="43.83446" lon="6.14899">
        <ele>654.8</ele>
        <time>2020-06-06T07:49:41Z</time>
      </trkpt>
      <trkpt lat="43.83439" lon="6.14907">
        <ele>654.6</ele>
        <time>2020-06-06T07:49:48Z</time>
      </trkpt>
      <trkpt lat="43.8343" lon="6.14913">
        <ele>654.5</ele>
        <time>2020-06-06T07:49:55Z</time>
      </trkpt>
      <trkpt lat="43.83421" lon="6.14918">
        <ele>654.8</ele>
        <time>2020-06-06T07:50:02Z</time>
      </trkpt>
      <trkpt lat="43.83413" lon="6.14924">
        <ele>655</ele>
        <time>2020-06-06T07:50:08Z</time>
      </trkpt>
      <trkpt lat="43.83405" lon="6.1493">
        <ele>655</ele>
        <time>2020-06-06T07:50:14Z</time>
      </trkpt>
      <trkpt lat="43.83396" lon="6.14937">
        <ele>655</ele>
        <time>2020-06-06T07:50:21Z</time>
      </trkpt>
      <trkpt lat="43.83387" lon="6.14944">
        <ele>655.2</ele>
        <time>2020-06-06T07:50:28Z</time>
      </trkpt>
      <trkpt lat="43.83378" lon="6.14949">
        <ele>655.4</ele>
        <time>2020-06-06T07:50:35Z</time>
      </trkpt>
      <trkpt lat="43.83369" lon="6.14952">
        <ele>655.2</ele>
        <time>2020-06-06T07:50:49Z</time>
      </trkpt>
      <trkpt lat="43.83361" lon="6.14946">
        <ele>655.2</ele>
        <time>2020-06-06T07:52:51Z</time>
      </trkpt>
      <trkpt lat="43.83359" lon="6.14933">
        <ele>655.5</ele>
        <time>2020-06-06T07:53:02Z</time>
      </trkpt>
      <trkpt lat="43.83355" lon="6.14921">
        <ele>655.5</ele>
        <time>2020-06-06T07:53:09Z</time>
      </trkpt>
      <trkpt lat="43.83351" lon="6.14908">
        <ele>655.9</ele>
        <time>2020-06-06T07:53:16Z</time>
      </trkpt>
      <trkpt lat="43.83346" lon="6.14896">
        <ele>656.2</ele>
        <time>2020-06-06T07:53:23Z</time>
      </trkpt>
      <trkpt lat="43.83342" lon="6.14883">
        <ele>655.6</ele>
        <time>2020-06-06T07:53:29Z</time>
      </trkpt>
      <trkpt lat="43.83338" lon="6.14871">
        <ele>655.9</ele>
        <time>2020-06-06T07:53:36Z</time>
      </trkpt>
      <trkpt lat="43.83334" lon="6.1486">
        <ele>656.5</ele>
        <time>2020-06-06T07:53:43Z</time>
      </trkpt>
      <trkpt lat="43.8333" lon="6.14847">
        <ele>656.2</ele>
        <time>2020-06-06T07:53:50Z</time>
      </trkpt>
      <trkpt lat="43.83326" lon="6.14835">
        <ele>656.1</ele>
        <time>2020-06-06T07:53:57Z</time>
      </trkpt>
      <trkpt lat="43.83323" lon="6.14823">
        <ele>656.1</ele>
        <time>2020-06-06T07:54:04Z</time>
      </trkpt>
      <trkpt lat="43.83319" lon="6.14811">
        <ele>655.5</ele>
        <time>2020-06-06T07:54:11Z</time>
      </trkpt>
      <trkpt lat="43.83315" lon="6.14799">
        <ele>655.1</ele>
        <time>2020-06-06T07:54:17Z</time>
      </trkpt>
      <trkpt lat="43.83311" lon="6.14786">
        <ele>654.4</ele>
        <time>2020-06-06T07:54:24Z</time>
      </trkpt>
      <trkpt lat="43.83307" lon="6.14775">
        <ele>654.2</ele>
        <time>2020-06-06T07:54:30Z</time>
      </trkpt>
      <trkpt lat="43.83303" lon="6.14763">
        <ele>654.3</ele>
        <time>2020-06-06T07:54:36Z</time>
      </trkpt>
      <trkpt lat="43.83299" lon="6.1475">
        <ele>654.5</ele>
        <time>2020-06-06T07:54:43Z</time>
      </trkpt>
      <trkpt lat="43.83295" lon="6.14739">
        <ele>653.5</ele>
        <time>2020-06-06T07:54:50Z</time>
      </trkpt>
      <trkpt lat="43.83291" lon="6.14727">
        <ele>653</ele>
        <time>2020-06-06T07:54:58Z</time>
      </trkpt>
      <trkpt lat="43.83285" lon="6.14718">
        <ele>652.1</ele>
        <time>2020-06-06T07:55:08Z</time>
      </trkpt>
      <trkpt lat="43.83279" lon="6.14728">
        <ele>651.5</ele>
        <time>2020-06-06T07:55:16Z</time>
      </trkpt>
      <trkpt lat="43.83275" lon="6.1474">
        <ele>651.4</ele>
        <time>2020-06-06T07:55:23Z</time>
      </trkpt>
      <trkpt lat="43.83272" lon="6.14753">
        <ele>651.6</ele>
        <time>2020-06-06T07:55:30Z</time>
      </trkpt>
      <trkpt lat="43.83271" lon="6.14767">
        <ele>651.9</ele>
        <time>2020-06-06T07:55:36Z</time>
      </trkpt>
      <trkpt lat="43.8327" lon="6.14781">
        <ele>651.6</ele>
        <time>2020-06-06T07:55:43Z</time>
      </trkpt>
      <trkpt lat="43.83267" lon="6.14794">
        <ele>651.8</ele>
        <time>2020-06-06T07:55:50Z</time>
      </trkpt>
      <trkpt lat="43.83264" lon="6.14808">
        <ele>652.3</ele>
        <time>2020-06-06T07:55:57Z</time>
      </trkpt>
      <trkpt lat="43.83262" lon="6.14821">
        <ele>652.7</ele>
        <time>2020-06-06T07:56:04Z</time>
      </trkpt>
      <trkpt lat="43.8326" lon="6.14834">
        <ele>652.7</ele>
        <time>2020-06-06T07:56:11Z</time>
      </trkpt>
      <trkpt lat="43.83258" lon="6.14846">
        <ele>653</ele>
        <time>2020-06-06T07:56:18Z</time>
      </trkpt>
      <trkpt lat="43.83257" lon="6.1486">
        <ele>653.6</ele>
        <time>2020-06-06T07:56:25Z</time>
      </trkpt>
      <trkpt lat="43.83255" lon="6.14872">
        <ele>654.1</ele>
        <time>2020-06-06T07:56:32Z</time>
      </trkpt>
      <trkpt lat="43.83252" lon="6.14885">
        <ele>654.2</ele>
        <time>2020-06-06T07:56:39Z</time>
      </trkpt>
      <trkpt lat="43.83248" lon="6.14899">
        <ele>654.6</ele>
        <time>2020-06-06T07:56:46Z</time>
      </trkpt>
      <trkpt lat="43.83246" lon="6.14912">
        <ele>655</ele>
        <time>2020-06-06T07:56:53Z</time>
      </trkpt>
      <trkpt lat="43.83245" lon="6.14925">
        <ele>655</ele>
        <time>2020-06-06T07:57:00Z</time>
      </trkpt>
      <trkpt lat="43.83243" lon="6.14939">
        <ele>654.7</ele>
        <time>2020-06-06T07:57:07Z</time>
      </trkpt>
      <trkpt lat="43.83242" lon="6.14952">
        <ele>654.7</ele>
        <time>2020-06-06T07:57:14Z</time>
      </trkpt>
      <trkpt lat="43.8324" lon="6.14964">
        <ele>655.2</ele>
        <time>2020-06-06T07:57:21Z</time>
      </trkpt>
      <trkpt lat="43.83237" lon="6.14977">
        <ele>655.2</ele>
        <time>2020-06-06T07:57:28Z</time>
      </trkpt>
      <trkpt lat="43.83232" lon="6.14989">
        <ele>655.6</ele>
        <time>2020-06-06T07:57:35Z</time>
      </trkpt>
      <trkpt lat="43.83226" lon="6.14998">
        <ele>655.9</ele>
        <time>2020-06-06T07:57:44Z</time>
      </trkpt>
      <trkpt lat="43.8322" lon="6.15009">
        <ele>656.2</ele>
        <time>2020-06-06T07:58:05Z</time>
      </trkpt>
      <trkpt lat="43.83218" lon="6.15021">
        <ele>656.1</ele>
        <time>2020-06-06T07:58:12Z</time>
      </trkpt>
      <trkpt lat="43.83216" lon="6.15034">
        <ele>657.6</ele>
        <time>2020-06-06T07:58:19Z</time>
      </trkpt>
      <trkpt lat="43.83215" lon="6.15046">
        <ele>658.3</ele>
        <time>2020-06-06T07:58:25Z</time>
      </trkpt>
      <trkpt lat="43.83214" lon="6.15059">
        <ele>658.1</ele>
        <time>2020-06-06T07:58:32Z</time>
      </trkpt>
      <trkpt lat="43.83217" lon="6.15071">
        <ele>657.5</ele>
        <time>2020-06-06T07:58:40Z</time>
      </trkpt>
      <trkpt lat="43.83225" lon="6.1508">
        <ele>656.7</ele>
        <time>2020-06-06T07:58:48Z</time>
      </trkpt>
      <trkpt lat="43.83232" lon="6.15088">
        <ele>656</ele>
        <time>2020-06-06T07:58:55Z</time>
      </trkpt>
      <trkpt lat="43.8324" lon="6.15096">
        <ele>655.2</ele>
        <time>2020-06-06T07:59:02Z</time>
      </trkpt>
      <trkpt lat="43.83247" lon="6.15106">
        <ele>654.5</ele>
        <time>2020-06-06T07:59:09Z</time>
      </trkpt>
      <trkpt lat="43.83255" lon="6.15115">
        <ele>652.7</ele>
        <time>2020-06-06T07:59:16Z</time>
      </trkpt>
      <trkpt lat="43.8326" lon="6.15126">
        <ele>652.8</ele>
        <time>2020-06-06T07:59:21Z</time>
      </trkpt>
      <trkpt lat="43.83266" lon="6.15135">
        <ele>652.5</ele>
        <time>2020-06-06T07:59:27Z</time>
      </trkpt>
      <trkpt lat="43.83268" lon="6.15148">
        <ele>652.1</ele>
        <time>2020-06-06T07:59:33Z</time>
      </trkpt>
      <trkpt lat="43.83261" lon="6.15159">
        <ele>650.9</ele>
        <time>2020-06-06T07:59:41Z</time>
      </trkpt>
      <trkpt lat="43.83253" lon="6.15164">
        <ele>649.6</ele>
        <time>2020-06-06T07:59:48Z</time>
      </trkpt>
      <trkpt lat="43.83243" lon="6.15169">
        <ele>648.7</ele>
        <time>2020-06-06T07:59:55Z</time>
      </trkpt>
      <trkpt lat="43.83234" lon="6.1517">
        <ele>647.1</ele>
        <time>2020-06-06T08:00:02Z</time>
      </trkpt>
      <trkpt lat="43.83224" lon="6.15167">
        <ele>645.9</ele>
        <time>2020-06-06T08:00:08Z</time>
      </trkpt>
      <trkpt lat="43.83214" lon="6.15166">
        <ele>644.9</ele>
        <time>2020-06-06T08:00:14Z</time>
      </trkpt>
      <trkpt lat="43.83206" lon="6.15162">
        <ele>643.6</ele>
        <time>2020-06-06T08:00:21Z</time>
      </trkpt>
      <trkpt lat="43.83196" lon="6.15159">
        <ele>642.3</ele>
        <time>2020-06-06T08:00:28Z</time>
      </trkpt>
      <trkpt lat="43.83187" lon="6.15156">
        <ele>640.2</ele>
        <time>2020-06-06T08:00:36Z</time>
      </trkpt>
      <trkpt lat="43.83177" lon="6.15161">
        <ele>638.5</ele>
        <time>2020-06-06T08:00:45Z</time>
      </trkpt>
      <trkpt lat="43.83168" lon="6.15161">
        <ele>636.2</ele>
        <time>2020-06-06T08:00:51Z</time>
      </trkpt>
      <trkpt lat="43.83157" lon="6.15161">
        <ele>634.4</ele>
        <time>2020-06-06T08:00:58Z</time>
      </trkpt>
      <trkpt lat="43.83148" lon="6.15161">
        <ele>633.4</ele>
        <time>2020-06-06T08:01:04Z</time>
      </trkpt>
      <trkpt lat="43.83139" lon="6.15161">
        <ele>632.4</ele>
        <time>2020-06-06T08:01:10Z</time>
      </trkpt>
      <trkpt lat="43.8313" lon="6.1516">
        <ele>630.2</ele>
        <time>2020-06-06T08:01:17Z</time>
      </trkpt>
      <trkpt lat="43.8312" lon="6.1516">
        <ele>628.7</ele>
        <time>2020-06-06T08:01:24Z</time>
      </trkpt>
      <trkpt lat="43.8311" lon="6.15159">
        <ele>627.5</ele>
        <time>2020-06-06T08:01:30Z</time>
      </trkpt>
      <trkpt lat="43.831" lon="6.15157">
        <ele>625.9</ele>
        <time>2020-06-06T08:01:37Z</time>
      </trkpt>
      <trkpt lat="43.83091" lon="6.1516">
        <ele>624.6</ele>
        <time>2020-06-06T08:01:44Z</time>
      </trkpt>
      <trkpt lat="43.83084" lon="6.15175">
        <ele>624.1</ele>
        <time>2020-06-06T08:01:48Z</time>
      </trkpt>
      <trkpt lat="43.83082" lon="6.15188">
        <ele>623.8</ele>
        <time>2020-06-06T08:01:51Z</time>
      </trkpt>
      <trkpt lat="43.83082" lon="6.15202">
        <ele>623.5</ele>
        <time>2020-06-06T08:01:55Z</time>
      </trkpt>
      <trkpt lat="43.83079" lon="6.15214">
        <ele>623.6</ele>
        <time>2020-06-06T08:01:59Z</time>
      </trkpt>
      <trkpt lat="43.83076" lon="6.15228">
        <ele>623.8</ele>
        <time>2020-06-06T08:02:03Z</time>
      </trkpt>
      <trkpt lat="43.83073" lon="6.15239">
        <ele>624.1</ele>
        <time>2020-06-06T08:02:08Z</time>
      </trkpt>
      <trkpt lat="43.83071" lon="6.15252">
        <ele>624.6</ele>
        <time>2020-06-06T08:02:15Z</time>
      </trkpt>
      <trkpt lat="43.83069" lon="6.15266">
        <ele>625.2</ele>
        <time>2020-06-06T08:02:22Z</time>
      </trkpt>
      <trkpt lat="43.83067" lon="6.15279">
        <ele>625.6</ele>
        <time>2020-06-06T08:02:29Z</time>
      </trkpt>
      <trkpt lat="43.83065" lon="6.15292">
        <ele>625.8</ele>
        <time>2020-06-06T08:02:36Z</time>
      </trkpt>
      <trkpt lat="43.83064" lon="6.15305">
        <ele>626.1</ele>
        <time>2020-06-06T08:02:43Z</time>
      </trkpt>
      <trkpt lat="43.83063" lon="6.15319">
        <ele>626.4</ele>
        <time>2020-06-06T08:02:49Z</time>
      </trkpt>
      <trkpt lat="43.8306" lon="6.15333">
        <ele>626.6</ele>
        <time>2020-06-06T08:02:55Z</time>
      </trkpt>
      <trkpt lat="43.83055" lon="6.15345">
        <ele>627</ele>
        <time>2020-06-06T08:03:02Z</time>
      </trkpt>
      <trkpt lat="43.83045" lon="6.1535">
        <ele>627.2</ele>
        <time>2020-06-06T08:03:09Z</time>
      </trkpt>
      <trkpt lat="43.83036" lon="6.1535">
        <ele>626.9</ele>
        <time>2020-06-06T08:03:15Z</time>
      </trkpt>
      <trkpt lat="43.83027" lon="6.15349">
        <ele>626.6</ele>
        <time>2020-06-06T08:03:20Z</time>
      </trkpt>
      <trkpt lat="43.83018" lon="6.15346">
        <ele>626.3</ele>
        <time>2020-06-06T08:03:25Z</time>
      </trkpt>
      <trkpt lat="43.83008" lon="6.15347">
        <ele>626</ele>
        <time>2020-06-06T08:03:33Z</time>
      </trkpt>
      <trkpt lat="43.83" lon="6.15356">
        <ele>625.6</ele>
        <time>2020-06-06T08:03:40Z</time>
      </trkpt>
      <trkpt lat="43.82998" lon="6.1537">
        <ele>625.4</ele>
        <time>2020-06-06T08:03:46Z</time>
      </trkpt>
      <trkpt lat="43.82997" lon="6.15383">
        <ele>625.3</ele>
        <time>2020-06-06T08:03:51Z</time>
      </trkpt>
      <trkpt lat="43.82997" lon="6.15396">
        <ele>625.3</ele>
        <time>2020-06-06T08:03:57Z</time>
      </trkpt>
      <trkpt lat="43.82997" lon="6.1541">
        <ele>625.2</ele>
        <time>2020-06-06T08:04:04Z</time>
      </trkpt>
      <trkpt lat="43.82997" lon="6.15424">
        <ele>625.1</ele>
        <time>2020-06-06T08:04:11Z</time>
      </trkpt>
      <trkpt lat="43.82997" lon="6.15439">
        <ele>625.4</ele>
        <time>2020-06-06T08:04:18Z</time>
      </trkpt>
      <trkpt lat="43.82995" lon="6.15452">
        <ele>625.7</ele>
        <time>2020-06-06T08:04:24Z</time>
      </trkpt>
      <trkpt lat="43.82994" lon="6.15466">
        <ele>626</ele>
        <time>2020-06-06T08:04:30Z</time>
      </trkpt>
      <trkpt lat="43.82992" lon="6.15479">
        <ele>626.2</ele>
        <time>2020-06-06T08:04:36Z</time>
      </trkpt>
      <trkpt lat="43.82991" lon="6.15491">
        <ele>626.4</ele>
        <time>2020-06-06T08:04:42Z</time>
      </trkpt>
      <trkpt lat="43.82987" lon="6.15504">
        <ele>626.8</ele>
        <time>2020-06-06T08:04:49Z</time>
      </trkpt>
      <trkpt lat="43.82986" lon="6.15517">
        <ele>627</ele>
        <time>2020-06-06T08:04:56Z</time>
      </trkpt>
      <trkpt lat="43.82983" lon="6.15531">
        <ele>627.1</ele>
        <time>2020-06-06T08:05:02Z</time>
      </trkpt>
      <trkpt lat="43.82981" lon="6.15545">
        <ele>627.5</ele>
        <time>2020-06-06T08:05:09Z</time>
      </trkpt>
      <trkpt lat="43.82979" lon="6.15557">
        <ele>629</ele>
        <time>2020-06-06T08:06:51Z</time>
      </trkpt>
      <trkpt lat="43.82979" lon="6.1557">
        <ele>628.8</ele>
        <time>2020-06-06T08:07:03Z</time>
      </trkpt>
      <trkpt lat="43.82981" lon="6.15583">
        <ele>628.6</ele>
        <time>2020-06-06T08:07:10Z</time>
      </trkpt>
      <trkpt lat="43.82982" lon="6.15596">
        <ele>628.7</ele>
        <time>2020-06-06T08:07:17Z</time>
      </trkpt>
      <trkpt lat="43.82984" lon="6.1561">
        <ele>629.2</ele>
        <time>2020-06-06T08:07:24Z</time>
      </trkpt>
      <trkpt lat="43.82985" lon="6.15623">
        <ele>629.6</ele>
        <time>2020-06-06T08:07:30Z</time>
      </trkpt>
      <trkpt lat="43.82984" lon="6.15637">
        <ele>629.8</ele>
        <time>2020-06-06T08:07:38Z</time>
      </trkpt>
      <trkpt lat="43.82982" lon="6.15649">
        <ele>630.2</ele>
        <time>2020-06-06T08:07:45Z</time>
      </trkpt>
      <trkpt lat="43.82981" lon="6.15663">
        <ele>630.5</ele>
        <time>2020-06-06T08:07:53Z</time>
      </trkpt>
      <trkpt lat="43.82981" lon="6.15677">
        <ele>630.9</ele>
        <time>2020-06-06T08:08:01Z</time>
      </trkpt>
      <trkpt lat="43.82979" lon="6.1569">
        <ele>631.2</ele>
        <time>2020-06-06T08:08:08Z</time>
      </trkpt>
      <trkpt lat="43.82977" lon="6.15703">
        <ele>631.6</ele>
        <time>2020-06-06T08:08:15Z</time>
      </trkpt>
      <trkpt lat="43.82975" lon="6.15717">
        <ele>631.9</ele>
        <time>2020-06-06T08:08:22Z</time>
      </trkpt>
      <trkpt lat="43.82976" lon="6.15731">
        <ele>632.1</ele>
        <time>2020-06-06T08:08:29Z</time>
      </trkpt>
      <trkpt lat="43.82975" lon="6.15745">
        <ele>632.3</ele>
        <time>2020-06-06T08:08:36Z</time>
      </trkpt>
      <trkpt lat="43.82976" lon="6.15758">
        <ele>632.5</ele>
        <time>2020-06-06T08:08:42Z</time>
      </trkpt>
      <trkpt lat="43.82977" lon="6.15772">
        <ele>632.7</ele>
        <time>2020-06-06T08:08:49Z</time>
      </trkpt>
      <trkpt lat="43.82978" lon="6.15784">
        <ele>632.7</ele>
        <time>2020-06-06T08:08:55Z</time>
      </trkpt>
      <trkpt lat="43.82978" lon="6.15797">
        <ele>632.9</ele>
        <time>2020-06-06T08:09:02Z</time>
      </trkpt>
      <trkpt lat="43.82979" lon="6.15812">
        <ele>633.3</ele>
        <time>2020-06-06T08:09:09Z</time>
      </trkpt>
      <trkpt lat="43.82983" lon="6.15825">
        <ele>633.8</ele>
        <time>2020-06-06T08:09:15Z</time>
      </trkpt>
      <trkpt lat="43.82983" lon="6.15839">
        <ele>634.6</ele>
        <time>2020-06-06T08:09:21Z</time>
      </trkpt>
      <trkpt lat="43.82977" lon="6.1585">
        <ele>635.6</ele>
        <time>2020-06-06T08:09:28Z</time>
      </trkpt>
      <trkpt lat="43.82968" lon="6.15857">
        <ele>635.8</ele>
        <time>2020-06-06T08:09:35Z</time>
      </trkpt>
      <trkpt lat="43.8296" lon="6.15862">
        <ele>636</ele>
        <time>2020-06-06T08:09:41Z</time>
      </trkpt>
      <trkpt lat="43.82952" lon="6.1587">
        <ele>636.4</ele>
        <time>2020-06-06T08:09:47Z</time>
      </trkpt>
      <trkpt lat="43.82948" lon="6.15883">
        <ele>636.1</ele>
        <time>2020-06-06T08:09:54Z</time>
      </trkpt>
      <trkpt lat="43.82946" lon="6.15898">
        <ele>636.3</ele>
        <time>2020-06-06T08:09:59Z</time>
      </trkpt>
      <trkpt lat="43.82949" lon="6.15911">
        <ele>636.5</ele>
        <time>2020-06-06T08:10:06Z</time>
      </trkpt>
      <trkpt lat="43.82953" lon="6.15924">
        <ele>636.8</ele>
        <time>2020-06-06T08:10:12Z</time>
      </trkpt>
      <trkpt lat="43.82957" lon="6.15936">
        <ele>637.1</ele>
        <time>2020-06-06T08:10:19Z</time>
      </trkpt>
      <trkpt lat="43.82959" lon="6.15949">
        <ele>637.6</ele>
        <time>2020-06-06T08:10:25Z</time>
      </trkpt>
      <trkpt lat="43.8296" lon="6.15963">
        <ele>638.1</ele>
        <time>2020-06-06T08:10:31Z</time>
      </trkpt>
      <trkpt lat="43.82957" lon="6.15976">
        <ele>638.5</ele>
        <time>2020-06-06T08:10:38Z</time>
      </trkpt>
      <trkpt lat="43.82957" lon="6.1599">
        <ele>638.6</ele>
        <time>2020-06-06T08:10:46Z</time>
      </trkpt>
      <trkpt lat="43.82949" lon="6.15999">
        <ele>638.7</ele>
        <time>2020-06-06T08:10:53Z</time>
      </trkpt>
      <trkpt lat="43.82942" lon="6.16007">
        <ele>638.9</ele>
        <time>2020-06-06T08:10:59Z</time>
      </trkpt>
      <trkpt lat="43.82935" lon="6.16017">
        <ele>639.1</ele>
        <time>2020-06-06T08:11:04Z</time>
      </trkpt>
      <trkpt lat="43.82933" lon="6.1603">
        <ele>639.3</ele>
        <time>2020-06-06T08:11:09Z</time>
      </trkpt>
      <trkpt lat="43.82931" lon="6.16045">
        <ele>639.6</ele>
        <time>2020-06-06T08:11:15Z</time>
      </trkpt>
      <trkpt lat="43.8293" lon="6.16059">
        <ele>639.9</ele>
        <time>2020-06-06T08:11:21Z</time>
      </trkpt>
      <trkpt lat="43.82928" lon="6.16073">
        <ele>640.1</ele>
        <time>2020-06-06T08:11:27Z</time>
      </trkpt>
      <trkpt lat="43.82924" lon="6.16084">
        <ele>640.5</ele>
        <time>2020-06-06T08:11:33Z</time>
      </trkpt>
      <trkpt lat="43.82921" lon="6.16096">
        <ele>640.7</ele>
        <time>2020-06-06T08:11:39Z</time>
      </trkpt>
      <trkpt lat="43.82917" lon="6.1611">
        <ele>640.8</ele>
        <time>2020-06-06T08:11:46Z</time>
      </trkpt>
      <trkpt lat="43.82914" lon="6.16123">
        <ele>641</ele>
        <time>2020-06-06T08:11:53Z</time>
      </trkpt>
      <trkpt lat="43.82912" lon="6.16136">
        <ele>641.1</ele>
        <time>2020-06-06T08:11:59Z</time>
      </trkpt>
      <trkpt lat="43.82911" lon="6.16149">
        <ele>641.3</ele>
        <time>2020-06-06T08:12:05Z</time>
      </trkpt>
      <trkpt lat="43.8291" lon="6.16163">
        <ele>641.7</ele>
        <time>2020-06-06T08:12:12Z</time>
      </trkpt>
      <trkpt lat="43.82909" lon="6.16176">
        <ele>642.3</ele>
        <time>2020-06-06T08:12:29Z</time>
      </trkpt>
      <trkpt lat="43.82907" lon="6.16189">
        <ele>642.4</ele>
        <time>2020-06-06T08:12:36Z</time>
      </trkpt>
      <trkpt lat="43.82907" lon="6.16203">
        <ele>642.5</ele>
        <time>2020-06-06T08:12:43Z</time>
      </trkpt>
      <trkpt lat="43.82908" lon="6.16217">
        <ele>642.8</ele>
        <time>2020-06-06T08:12:51Z</time>
      </trkpt>
      <trkpt lat="43.82909" lon="6.16231">
        <ele>643.1</ele>
        <time>2020-06-06T08:12:58Z</time>
      </trkpt>
      <trkpt lat="43.82911" lon="6.16243">
        <ele>644</ele>
        <time>2020-06-06T08:13:06Z</time>
      </trkpt>
      <trkpt lat="43.82909" lon="6.16256">
        <ele>645</ele>
        <time>2020-06-06T08:13:13Z</time>
      </trkpt>
      <trkpt lat="43.82907" lon="6.16269">
        <ele>645.6</ele>
        <time>2020-06-06T08:13:19Z</time>
      </trkpt>
      <trkpt lat="43.82905" lon="6.16283">
        <ele>646.2</ele>
        <time>2020-06-06T08:13:26Z</time>
      </trkpt>
      <trkpt lat="43.82901" lon="6.16295">
        <ele>646.6</ele>
        <time>2020-06-06T08:13:32Z</time>
      </trkpt>
      <trkpt lat="43.82899" lon="6.16307">
        <ele>646.8</ele>
        <time>2020-06-06T08:13:38Z</time>
      </trkpt>
      <trkpt lat="43.82898" lon="6.1632">
        <ele>647.1</ele>
        <time>2020-06-06T08:13:44Z</time>
      </trkpt>
      <trkpt lat="43.82897" lon="6.16334">
        <ele>647.3</ele>
        <time>2020-06-06T08:13:51Z</time>
      </trkpt>
      <trkpt lat="43.82894" lon="6.16346">
        <ele>647.6</ele>
        <time>2020-06-06T08:13:58Z</time>
      </trkpt>
      <trkpt lat="43.82893" lon="6.16359">
        <ele>647.9</ele>
        <time>2020-06-06T08:14:06Z</time>
      </trkpt>
      <trkpt lat="43.82886" lon="6.16374">
        <ele>648.7</ele>
        <time>2020-06-06T08:14:28Z</time>
      </trkpt>
      <trkpt lat="43.82885" lon="6.16388">
        <ele>649</ele>
        <time>2020-06-06T08:14:36Z</time>
      </trkpt>
      <trkpt lat="43.82884" lon="6.16402">
        <ele>649.7</ele>
        <time>2020-06-06T08:14:52Z</time>
      </trkpt>
      <trkpt lat="43.82879" lon="6.16415">
        <ele>649.9</ele>
        <time>2020-06-06T08:15:00Z</time>
      </trkpt>
      <trkpt lat="43.82874" lon="6.16427">
        <ele>650</ele>
        <time>2020-06-06T08:15:07Z</time>
      </trkpt>
      <trkpt lat="43.82871" lon="6.1644">
        <ele>650.2</ele>
        <time>2020-06-06T08:15:15Z</time>
      </trkpt>
      <trkpt lat="43.82869" lon="6.16453">
        <ele>650.5</ele>
        <time>2020-06-06T08:15:22Z</time>
      </trkpt>
      <trkpt lat="43.82868" lon="6.16467">
        <ele>650.9</ele>
        <time>2020-06-06T08:15:29Z</time>
      </trkpt>
      <trkpt lat="43.82869" lon="6.16481">
        <ele>651.1</ele>
        <time>2020-06-06T08:15:36Z</time>
      </trkpt>
      <trkpt lat="43.82868" lon="6.16494">
        <ele>651.4</ele>
        <time>2020-06-06T08:15:44Z</time>
      </trkpt>
      <trkpt lat="43.82867" lon="6.16507">
        <ele>651.5</ele>
        <time>2020-06-06T08:15:51Z</time>
      </trkpt>
      <trkpt lat="43.82869" lon="6.16519">
        <ele>651.7</ele>
        <time>2020-06-06T08:15:58Z</time>
      </trkpt>
      <trkpt lat="43.82874" lon="6.16529">
        <ele>652</ele>
        <time>2020-06-06T08:16:05Z</time>
      </trkpt>
      <trkpt lat="43.82877" lon="6.16542">
        <ele>652.5</ele>
        <time>2020-06-06T08:16:11Z</time>
      </trkpt>
      <trkpt lat="43.82877" lon="6.16555">
        <ele>652.9</ele>
        <time>2020-06-06T08:16:16Z</time>
      </trkpt>
      <trkpt lat="43.82874" lon="6.16568">
        <ele>653.7</ele>
        <time>2020-06-06T08:16:23Z</time>
      </trkpt>
      <trkpt lat="43.82871" lon="6.16581">
        <ele>654.2</ele>
        <time>2020-06-06T08:16:30Z</time>
      </trkpt>
      <trkpt lat="43.82869" lon="6.16593">
        <ele>654.6</ele>
        <time>2020-06-06T08:16:36Z</time>
      </trkpt>
      <trkpt lat="43.82868" lon="6.16607">
        <ele>654.9</ele>
        <time>2020-06-06T08:16:43Z</time>
      </trkpt>
      <trkpt lat="43.82869" lon="6.1662">
        <ele>655.2</ele>
        <time>2020-06-06T08:16:49Z</time>
      </trkpt>
      <trkpt lat="43.82872" lon="6.16633">
        <ele>655.4</ele>
        <time>2020-06-06T08:16:55Z</time>
      </trkpt>
      <trkpt lat="43.82877" lon="6.16645">
        <ele>655.4</ele>
        <time>2020-06-06T08:17:02Z</time>
      </trkpt>
      <trkpt lat="43.82883" lon="6.16654">
        <ele>655.8</ele>
        <time>2020-06-06T08:17:09Z</time>
      </trkpt>
      <trkpt lat="43.82891" lon="6.16661">
        <ele>656.4</ele>
        <time>2020-06-06T08:17:15Z</time>
      </trkpt>
      <trkpt lat="43.82899" lon="6.16667">
        <ele>656.8</ele>
        <time>2020-06-06T08:17:22Z</time>
      </trkpt>
      <trkpt lat="43.82908" lon="6.16675">
        <ele>657.3</ele>
        <time>2020-06-06T08:17:30Z</time>
      </trkpt>
      <trkpt lat="43.82917" lon="6.16681">
        <ele>658</ele>
        <time>2020-06-06T08:17:37Z</time>
      </trkpt>
      <trkpt lat="43.82926" lon="6.16684">
        <ele>658.3</ele>
        <time>2020-06-06T08:17:45Z</time>
      </trkpt>
      <trkpt lat="43.82936" lon="6.1668">
        <ele>658.9</ele>
        <time>2020-06-06T08:17:53Z</time>
      </trkpt>
      <trkpt lat="43.82943" lon="6.16689">
        <ele>659.5</ele>
        <time>2020-06-06T08:18:00Z</time>
      </trkpt>
      <trkpt lat="43.82946" lon="6.16702">
        <ele>660.3</ele>
        <time>2020-06-06T08:18:08Z</time>
      </trkpt>
      <trkpt lat="43.82949" lon="6.16714">
        <ele>660.6</ele>
        <time>2020-06-06T08:18:15Z</time>
      </trkpt>
      <trkpt lat="43.82956" lon="6.16723">
        <ele>660.6</ele>
        <time>2020-06-06T08:18:22Z</time>
      </trkpt>
      <trkpt lat="43.82964" lon="6.16731">
        <ele>660.7</ele>
        <time>2020-06-06T08:18:30Z</time>
      </trkpt>
      <trkpt lat="43.82973" lon="6.16737">
        <ele>661.1</ele>
        <time>2020-06-06T08:18:38Z</time>
      </trkpt>
      <trkpt lat="43.82982" lon="6.16743">
        <ele>661.7</ele>
        <time>2020-06-06T08:18:46Z</time>
      </trkpt>
      <trkpt lat="43.82991" lon="6.16747">
        <ele>662.3</ele>
        <time>2020-06-06T08:18:54Z</time>
      </trkpt>
      <trkpt lat="43.82998" lon="6.16756">
        <ele>662.7</ele>
        <time>2020-06-06T08:19:02Z</time>
      </trkpt>
      <trkpt lat="43.83" lon="6.16769">
        <ele>663</ele>
        <time>2020-06-06T08:19:09Z</time>
      </trkpt>
      <trkpt lat="43.83" lon="6.16783">
        <ele>663.1</ele>
        <time>2020-06-06T08:19:16Z</time>
      </trkpt>
      <trkpt lat="43.83003" lon="6.16795">
        <ele>663.2</ele>
        <time>2020-06-06T08:19:23Z</time>
      </trkpt>
      <trkpt lat="43.83009" lon="6.16807">
        <ele>663.3</ele>
        <time>2020-06-06T08:19:30Z</time>
      </trkpt>
      <trkpt lat="43.83016" lon="6.16814">
        <ele>663.5</ele>
        <time>2020-06-06T08:19:37Z</time>
      </trkpt>
      <trkpt lat="43.83023" lon="6.16823">
        <ele>664.1</ele>
        <time>2020-06-06T08:19:43Z</time>
      </trkpt>
      <trkpt lat="43.8303" lon="6.16832">
        <ele>664.6</ele>
        <time>2020-06-06T08:19:50Z</time>
      </trkpt>
      <trkpt lat="43.83037" lon="6.1684">
        <ele>664.7</ele>
        <time>2020-06-06T08:19:57Z</time>
      </trkpt>
      <trkpt lat="43.83043" lon="6.16851">
        <ele>665</ele>
        <time>2020-06-06T08:20:04Z</time>
      </trkpt>
      <trkpt lat="43.8305" lon="6.16862">
        <ele>665.2</ele>
        <time>2020-06-06T08:20:11Z</time>
      </trkpt>
      <trkpt lat="43.83058" lon="6.16872">
        <ele>665.5</ele>
        <time>2020-06-06T08:20:17Z</time>
      </trkpt>
      <trkpt lat="43.83065" lon="6.16881">
        <ele>665.9</ele>
        <time>2020-06-06T08:20:22Z</time>
      </trkpt>
      <trkpt lat="43.83072" lon="6.1689">
        <ele>666.4</ele>
        <time>2020-06-06T08:20:29Z</time>
      </trkpt>
      <trkpt lat="43.83078" lon="6.169">
        <ele>667.1</ele>
        <time>2020-06-06T08:20:36Z</time>
      </trkpt>
      <trkpt lat="43.83085" lon="6.16908">
        <ele>667.7</ele>
        <time>2020-06-06T08:20:43Z</time>
      </trkpt>
      <trkpt lat="43.83092" lon="6.16916">
        <ele>668.3</ele>
        <time>2020-06-06T08:20:50Z</time>
      </trkpt>
      <trkpt lat="43.83098" lon="6.16927">
        <ele>669.1</ele>
        <time>2020-06-06T08:20:56Z</time>
      </trkpt>
      <trkpt lat="43.83102" lon="6.16938">
        <ele>669.6</ele>
        <time>2020-06-06T08:21:03Z</time>
      </trkpt>
      <trkpt lat="43.83106" lon="6.1695">
        <ele>670.2</ele>
        <time>2020-06-06T08:21:10Z</time>
      </trkpt>
      <trkpt lat="43.8311" lon="6.16962">
        <ele>671</ele>
        <time>2020-06-06T08:21:18Z</time>
      </trkpt>
      <trkpt lat="43.83116" lon="6.16972">
        <ele>671.6</ele>
        <time>2020-06-06T08:21:26Z</time>
      </trkpt>
      <trkpt lat="43.83123" lon="6.16982">
        <ele>672.1</ele>
        <time>2020-06-06T08:21:34Z</time>
      </trkpt>
      <trkpt lat="43.8312" lon="6.16995">
        <ele>672.5</ele>
        <time>2020-06-06T08:21:41Z</time>
      </trkpt>
      <trkpt lat="43.83115" lon="6.17006">
        <ele>672.8</ele>
        <time>2020-06-06T08:21:48Z</time>
      </trkpt>
      <trkpt lat="43.83108" lon="6.17017">
        <ele>673.2</ele>
        <time>2020-06-06T08:21:53Z</time>
      </trkpt>
      <trkpt lat="43.83104" lon="6.17029">
        <ele>673.1</ele>
        <time>2020-06-06T08:22:00Z</time>
      </trkpt>
      <trkpt lat="43.83101" lon="6.17042">
        <ele>673.2</ele>
        <time>2020-06-06T08:22:07Z</time>
      </trkpt>
      <trkpt lat="43.83102" lon="6.17056">
        <ele>673.4</ele>
        <time>2020-06-06T08:22:14Z</time>
      </trkpt>
      <trkpt lat="43.83102" lon="6.1707">
        <ele>673.5</ele>
        <time>2020-06-06T08:22:21Z</time>
      </trkpt>
      <trkpt lat="43.83101" lon="6.17082">
        <ele>674.8</ele>
        <time>2020-06-06T08:25:35Z</time>
      </trkpt>
      <trkpt lat="43.83098" lon="6.17095">
        <ele>674.9</ele>
        <time>2020-06-06T08:25:50Z</time>
      </trkpt>
      <trkpt lat="43.83098" lon="6.17107">
        <ele>675</ele>
        <time>2020-06-06T08:25:58Z</time>
      </trkpt>
      <trkpt lat="43.83101" lon="6.17121">
        <ele>674.9</ele>
        <time>2020-06-06T08:26:03Z</time>
      </trkpt>
      <trkpt lat="43.83103" lon="6.17133">
        <ele>675.2</ele>
        <time>2020-06-06T08:26:15Z</time>
      </trkpt>
      <trkpt lat="43.83102" lon="6.17146">
        <ele>675.6</ele>
        <time>2020-06-06T08:26:23Z</time>
      </trkpt>
      <trkpt lat="43.83102" lon="6.1716">
        <ele>676.4</ele>
        <time>2020-06-06T08:26:34Z</time>
      </trkpt>
      <trkpt lat="43.83111" lon="6.17165">
        <ele>677.7</ele>
        <time>2020-06-06T08:27:01Z</time>
      </trkpt>
      <trkpt lat="43.83115" lon="6.1718">
        <ele>678.7</ele>
        <time>2020-06-06T08:28:05Z</time>
      </trkpt>
      <trkpt lat="43.83115" lon="6.17193">
        <ele>678.7</ele>
        <time>2020-06-06T08:28:08Z</time>
      </trkpt>
      <trkpt lat="43.83115" lon="6.17207">
        <ele>679</ele>
        <time>2020-06-06T08:28:11Z</time>
      </trkpt>
      <trkpt lat="43.83114" lon="6.1722">
        <ele>679.2</ele>
        <time>2020-06-06T08:28:13Z</time>
      </trkpt>
      <trkpt lat="43.83111" lon="6.17238">
        <ele>679.6</ele>
        <time>2020-06-06T08:28:16Z</time>
      </trkpt>
      <trkpt lat="43.83107" lon="6.17256">
        <ele>680.1</ele>
        <time>2020-06-06T08:28:19Z</time>
      </trkpt>
      <trkpt lat="43.83103" lon="6.17273">
        <ele>680.6</ele>
        <time>2020-06-06T08:28:22Z</time>
      </trkpt>
      <trkpt lat="43.83099" lon="6.17288">
        <ele>681.2</ele>
        <time>2020-06-06T08:28:25Z</time>
      </trkpt>
      <trkpt lat="43.83096" lon="6.17303">
        <ele>681.7</ele>
        <time>2020-06-06T08:28:28Z</time>
      </trkpt>
      <trkpt lat="43.83093" lon="6.17318">
        <ele>682.3</ele>
        <time>2020-06-06T08:28:32Z</time>
      </trkpt>
      <trkpt lat="43.83092" lon="6.17331">
        <ele>682.7</ele>
        <time>2020-06-06T08:28:35Z</time>
      </trkpt>
      <trkpt lat="43.8309" lon="6.17345">
        <ele>683.4</ele>
        <time>2020-06-06T08:28:38Z</time>
      </trkpt>
      <trkpt lat="43.83088" lon="6.17362">
        <ele>684.1</ele>
        <time>2020-06-06T08:28:41Z</time>
      </trkpt>
      <trkpt lat="43.83086" lon="6.17375">
        <ele>684.6</ele>
        <time>2020-06-06T08:28:43Z</time>
      </trkpt>
      <trkpt lat="43.83085" lon="6.17388">
        <ele>684.8</ele>
        <time>2020-06-06T08:28:45Z</time>
      </trkpt>
      <trkpt lat="43.83083" lon="6.17401">
        <ele>685.3</ele>
        <time>2020-06-06T08:28:47Z</time>
      </trkpt>
      <trkpt lat="43.83081" lon="6.17415">
        <ele>685.7</ele>
        <time>2020-06-06T08:28:49Z</time>
      </trkpt>
      <trkpt lat="43.83081" lon="6.17431">
        <ele>685.9</ele>
        <time>2020-06-06T08:28:51Z</time>
      </trkpt>
      <trkpt lat="43.83082" lon="6.17445">
        <ele>686.3</ele>
        <time>2020-06-06T08:28:53Z</time>
      </trkpt>
      <trkpt lat="43.83084" lon="6.17461">
        <ele>686.7</ele>
        <time>2020-06-06T08:28:55Z</time>
      </trkpt>
      <trkpt lat="43.83086" lon="6.17476">
        <ele>687</ele>
        <time>2020-06-06T08:28:57Z</time>
      </trkpt>
      <trkpt lat="43.83091" lon="6.1749">
        <ele>687.4</ele>
        <time>2020-06-06T08:28:59Z</time>
      </trkpt>
      <trkpt lat="43.83098" lon="6.17505">
        <ele>687.1</ele>
        <time>2020-06-06T08:29:01Z</time>
      </trkpt>
      <trkpt lat="43.83103" lon="6.17522">
        <ele>687.2</ele>
        <time>2020-06-06T08:29:03Z</time>
      </trkpt>
      <trkpt lat="43.8311" lon="6.17538">
        <ele>687.9</ele>
        <time>2020-06-06T08:29:05Z</time>
      </trkpt>
      <trkpt lat="43.83118" lon="6.17554">
        <ele>688.7</ele>
        <time>2020-06-06T08:29:07Z</time>
      </trkpt>
      <trkpt lat="43.83125" lon="6.17568">
        <ele>689.5</ele>
        <time>2020-06-06T08:29:09Z</time>
      </trkpt>
      <trkpt lat="43.8313" lon="6.17582">
        <ele>689.9</ele>
        <time>2020-06-06T08:29:11Z</time>
      </trkpt>
      <trkpt lat="43.83135" lon="6.17595">
        <ele>690.7</ele>
        <time>2020-06-06T08:29:13Z</time>
      </trkpt>
      <trkpt lat="43.83143" lon="6.1761">
        <ele>691.8</ele>
        <time>2020-06-06T08:29:16Z</time>
      </trkpt>
      <trkpt lat="43.83153" lon="6.17618">
        <ele>693</ele>
        <time>2020-06-06T08:29:19Z</time>
      </trkpt>
      <trkpt lat="43.83162" lon="6.17625">
        <ele>694.3</ele>
        <time>2020-06-06T08:29:22Z</time>
      </trkpt>
      <trkpt lat="43.83167" lon="6.17639">
        <ele>696.2</ele>
        <time>2020-06-06T08:29:26Z</time>
      </trkpt>
      <trkpt lat="43.83169" lon="6.17652">
        <ele>698</ele>
        <time>2020-06-06T08:29:30Z</time>
      </trkpt>
      <trkpt lat="43.83171" lon="6.17666">
        <ele>699.7</ele>
        <time>2020-06-06T08:29:34Z</time>
      </trkpt>
      <trkpt lat="43.83171" lon="6.17678">
        <ele>701.7</ele>
        <time>2020-06-06T08:29:41Z</time>
      </trkpt>
      <trkpt lat="43.83168" lon="6.1769">
        <ele>703.1</ele>
        <time>2020-06-06T08:29:48Z</time>
      </trkpt>
      <trkpt lat="43.83166" lon="6.17702">
        <ele>703.9</ele>
        <time>2020-06-06T08:29:54Z</time>
      </trkpt>
      <trkpt lat="43.83165" lon="6.17716">
        <ele>704.6</ele>
        <time>2020-06-06T08:30:01Z</time>
      </trkpt>
      <trkpt lat="43.83165" lon="6.17728">
        <ele>705.2</ele>
        <time>2020-06-06T08:30:08Z</time>
      </trkpt>
      <trkpt lat="43.83164" lon="6.17742">
        <ele>705.7</ele>
        <time>2020-06-06T08:30:16Z</time>
      </trkpt>
      <trkpt lat="43.83163" lon="6.17755">
        <ele>705.9</ele>
        <time>2020-06-06T08:30:23Z</time>
      </trkpt>
      <trkpt lat="43.83161" lon="6.17768">
        <ele>706.1</ele>
        <time>2020-06-06T08:30:30Z</time>
      </trkpt>
      <trkpt lat="43.8316" lon="6.17781">
        <ele>706.1</ele>
        <time>2020-06-06T08:30:47Z</time>
      </trkpt>
      <trkpt lat="43.83165" lon="6.17793">
        <ele>706.1</ele>
        <time>2020-06-06T08:30:53Z</time>
      </trkpt>
      <trkpt lat="43.83167" lon="6.17805">
        <ele>706</ele>
        <time>2020-06-06T08:30:59Z</time>
      </trkpt>
      <trkpt lat="43.83171" lon="6.17817">
        <ele>706.1</ele>
        <time>2020-06-06T08:31:06Z</time>
      </trkpt>
      <trkpt lat="43.83173" lon="6.17831">
        <ele>706.3</ele>
        <time>2020-06-06T08:31:13Z</time>
      </trkpt>
      <trkpt lat="43.83171" lon="6.17844">
        <ele>706.4</ele>
        <time>2020-06-06T08:31:20Z</time>
      </trkpt>
      <trkpt lat="43.83165" lon="6.17854">
        <ele>705.9</ele>
        <time>2020-06-06T08:31:29Z</time>
      </trkpt>
      <trkpt lat="43.83168" lon="6.17866">
        <ele>705.7</ele>
        <time>2020-06-06T08:31:36Z</time>
      </trkpt>
      <trkpt lat="43.83172" lon="6.17878">
        <ele>705.5</ele>
        <time>2020-06-06T08:31:43Z</time>
      </trkpt>
      <trkpt lat="43.83176" lon="6.17891">
        <ele>705.4</ele>
        <time>2020-06-06T08:31:51Z</time>
      </trkpt>
      <trkpt lat="43.8317" lon="6.17902">
        <ele>705.6</ele>
        <time>2020-06-06T08:32:05Z</time>
      </trkpt>
      <trkpt lat="43.83172" lon="6.17914">
        <ele>706.5</ele>
        <time>2020-06-06T08:32:21Z</time>
      </trkpt>
      <trkpt lat="43.83169" lon="6.17927">
        <ele>707.4</ele>
        <time>2020-06-06T08:32:36Z</time>
      </trkpt>
      <trkpt lat="43.83172" lon="6.1794">
        <ele>708.6</ele>
        <time>2020-06-06T08:32:58Z</time>
      </trkpt>
      <trkpt lat="43.83168" lon="6.17952">
        <ele>709.1</ele>
        <time>2020-06-06T08:33:06Z</time>
      </trkpt>
      <trkpt lat="43.83168" lon="6.17964">
        <ele>710.3</ele>
        <time>2020-06-06T08:33:36Z</time>
      </trkpt>
      <trkpt lat="43.83175" lon="6.17974">
        <ele>710.7</ele>
        <time>2020-06-06T08:34:04Z</time>
      </trkpt>
      <trkpt lat="43.83175" lon="6.1799">
        <ele>711</ele>
        <time>2020-06-06T08:34:08Z</time>
      </trkpt>
      <trkpt lat="43.83165" lon="6.17993">
        <ele>711.6</ele>
        <time>2020-06-06T08:34:13Z</time>
      </trkpt>
      <trkpt lat="43.83157" lon="6.17981">
        <ele>712.1</ele>
        <time>2020-06-06T08:34:17Z</time>
      </trkpt>
      <trkpt lat="43.8315" lon="6.17969">
        <ele>712.8</ele>
        <time>2020-06-06T08:34:20Z</time>
      </trkpt>
      <trkpt lat="43.83143" lon="6.17957">
        <ele>713.4</ele>
        <time>2020-06-06T08:34:23Z</time>
      </trkpt>
      <trkpt lat="43.83135" lon="6.17949">
        <ele>713.6</ele>
        <time>2020-06-06T08:34:26Z</time>
      </trkpt>
      <trkpt lat="43.83125" lon="6.17942">
        <ele>714.3</ele>
        <time>2020-06-06T08:34:29Z</time>
      </trkpt>
      <trkpt lat="43.83117" lon="6.17934">
        <ele>715.1</ele>
        <time>2020-06-06T08:34:32Z</time>
      </trkpt>
      <trkpt lat="43.83109" lon="6.17925">
        <ele>715.7</ele>
        <time>2020-06-06T08:34:35Z</time>
      </trkpt>
      <trkpt lat="43.83102" lon="6.17915">
        <ele>716.4</ele>
        <time>2020-06-06T08:34:38Z</time>
      </trkpt>
      <trkpt lat="43.83094" lon="6.17907">
        <ele>716.9</ele>
        <time>2020-06-06T08:34:41Z</time>
      </trkpt>
      <trkpt lat="43.83085" lon="6.17899">
        <ele>717.7</ele>
        <time>2020-06-06T08:34:44Z</time>
      </trkpt>
      <trkpt lat="43.83075" lon="6.17895">
        <ele>718.4</ele>
        <time>2020-06-06T08:34:47Z</time>
      </trkpt>
      <trkpt lat="43.83063" lon="6.17901">
        <ele>718.9</ele>
        <time>2020-06-06T08:34:50Z</time>
      </trkpt>
      <trkpt lat="43.83054" lon="6.17909">
        <ele>719</ele>
        <time>2020-06-06T08:34:52Z</time>
      </trkpt>
      <trkpt lat="43.83044" lon="6.17921">
        <ele>719.5</ele>
        <time>2020-06-06T08:34:55Z</time>
      </trkpt>
      <trkpt lat="43.83036" lon="6.17933">
        <ele>719.8</ele>
        <time>2020-06-06T08:34:58Z</time>
      </trkpt>
      <trkpt lat="43.8303" lon="6.17949">
        <ele>720.3</ele>
        <time>2020-06-06T08:35:01Z</time>
      </trkpt>
      <trkpt lat="43.83023" lon="6.17963">
        <ele>720.8</ele>
        <time>2020-06-06T08:35:04Z</time>
      </trkpt>
      <trkpt lat="43.83016" lon="6.17971">
        <ele>721.2</ele>
        <time>2020-06-06T08:35:06Z</time>
      </trkpt>
      <trkpt lat="43.83005" lon="6.1798">
        <ele>721.7</ele>
        <time>2020-06-06T08:35:09Z</time>
      </trkpt>
      <trkpt lat="43.82995" lon="6.1799">
        <ele>722</ele>
        <time>2020-06-06T08:35:12Z</time>
      </trkpt>
      <trkpt lat="43.82983" lon="6.18">
        <ele>722.6</ele>
        <time>2020-06-06T08:35:15Z</time>
      </trkpt>
      <trkpt lat="43.82975" lon="6.18008">
        <ele>723</ele>
        <time>2020-06-06T08:35:17Z</time>
      </trkpt>
      <trkpt lat="43.82964" lon="6.18018">
        <ele>723.7</ele>
        <time>2020-06-06T08:35:20Z</time>
      </trkpt>
      <trkpt lat="43.82956" lon="6.18025">
        <ele>724.1</ele>
        <time>2020-06-06T08:35:22Z</time>
      </trkpt>
      <trkpt lat="43.82947" lon="6.18033">
        <ele>724.4</ele>
        <time>2020-06-06T08:35:24Z</time>
      </trkpt>
      <trkpt lat="43.82938" lon="6.1804">
        <ele>724.4</ele>
        <time>2020-06-06T08:35:26Z</time>
      </trkpt>
      <trkpt lat="43.82928" lon="6.18048">
        <ele>724.8</ele>
        <time>2020-06-06T08:35:28Z</time>
      </trkpt>
      <trkpt lat="43.82919" lon="6.18055">
        <ele>725.1</ele>
        <time>2020-06-06T08:35:30Z</time>
      </trkpt>
      <trkpt lat="43.8291" lon="6.18062">
        <ele>725.4</ele>
        <time>2020-06-06T08:35:32Z</time>
      </trkpt>
      <trkpt lat="43.82899" lon="6.1807">
        <ele>725.7</ele>
        <time>2020-06-06T08:35:35Z</time>
      </trkpt>
      <trkpt lat="43.82889" lon="6.18077">
        <ele>726.1</ele>
        <time>2020-06-06T08:35:38Z</time>
      </trkpt>
      <trkpt lat="43.82879" lon="6.18085">
        <ele>726.5</ele>
        <time>2020-06-06T08:35:41Z</time>
      </trkpt>
      <trkpt lat="43.82867" lon="6.18093">
        <ele>726.8</ele>
        <time>2020-06-06T08:35:44Z</time>
      </trkpt>
      <trkpt lat="43.82856" lon="6.18102">
        <ele>727</ele>
        <time>2020-06-06T08:35:47Z</time>
      </trkpt>
      <trkpt lat="43.82844" lon="6.1811">
        <ele>727.1</ele>
        <time>2020-06-06T08:35:50Z</time>
      </trkpt>
      <trkpt lat="43.82833" lon="6.18116">
        <ele>727.3</ele>
        <time>2020-06-06T08:35:53Z</time>
      </trkpt>
      <trkpt lat="43.82822" lon="6.18121">
        <ele>727.6</ele>
        <time>2020-06-06T08:35:56Z</time>
      </trkpt>
      <trkpt lat="43.82814" lon="6.18126">
        <ele>726.9</ele>
        <time>2020-06-06T08:39:32Z</time>
      </trkpt>
      <trkpt lat="43.82805" lon="6.18129">
        <ele>726.7</ele>
        <time>2020-06-06T08:39:40Z</time>
      </trkpt>
      <trkpt lat="43.82796" lon="6.18135">
        <ele>726.4</ele>
        <time>2020-06-06T08:39:47Z</time>
      </trkpt>
      <trkpt lat="43.82792" lon="6.18148">
        <ele>726.6</ele>
        <time>2020-06-06T08:39:55Z</time>
      </trkpt>
      <trkpt lat="43.82795" lon="6.1816">
        <ele>726.2</ele>
        <time>2020-06-06T08:40:02Z</time>
      </trkpt>
      <trkpt lat="43.82801" lon="6.18169">
        <ele>725.7</ele>
        <time>2020-06-06T08:40:08Z</time>
      </trkpt>
      <trkpt lat="43.82807" lon="6.18179">
        <ele>725</ele>
        <time>2020-06-06T08:40:14Z</time>
      </trkpt>
      <trkpt lat="43.82813" lon="6.18191">
        <ele>724.6</ele>
        <time>2020-06-06T08:40:20Z</time>
      </trkpt>
      <trkpt lat="43.82818" lon="6.18203">
        <ele>724.3</ele>
        <time>2020-06-06T08:40:26Z</time>
      </trkpt>
      <trkpt lat="43.82823" lon="6.18216">
        <ele>724.1</ele>
        <time>2020-06-06T08:40:32Z</time>
      </trkpt>
      <trkpt lat="43.82828" lon="6.18226">
        <ele>723.7</ele>
        <time>2020-06-06T08:40:38Z</time>
      </trkpt>
      <trkpt lat="43.82833" lon="6.18238">
        <ele>723.3</ele>
        <time>2020-06-06T08:40:45Z</time>
      </trkpt>
      <trkpt lat="43.82838" lon="6.1825">
        <ele>723.1</ele>
        <time>2020-06-06T08:40:51Z</time>
      </trkpt>
      <trkpt lat="43.82842" lon="6.18261">
        <ele>723</ele>
        <time>2020-06-06T08:40:56Z</time>
      </trkpt>
      <trkpt lat="43.82845" lon="6.18273">
        <ele>722.9</ele>
        <time>2020-06-06T08:41:02Z</time>
      </trkpt>
      <trkpt lat="43.82847" lon="6.18286">
        <ele>722.5</ele>
        <time>2020-06-06T08:41:08Z</time>
      </trkpt>
      <trkpt lat="43.82847" lon="6.183">
        <ele>721.7</ele>
        <time>2020-06-06T08:41:15Z</time>
      </trkpt>
      <trkpt lat="43.82847" lon="6.18314">
        <ele>720.8</ele>
        <time>2020-06-06T08:41:22Z</time>
      </trkpt>
      <trkpt lat="43.82848" lon="6.18328">
        <ele>720</ele>
        <time>2020-06-06T08:41:29Z</time>
      </trkpt>
      <trkpt lat="43.8285" lon="6.1834">
        <ele>719.6</ele>
        <time>2020-06-06T08:41:35Z</time>
      </trkpt>
      <trkpt lat="43.82854" lon="6.18352">
        <ele>719.3</ele>
        <time>2020-06-06T08:41:42Z</time>
      </trkpt>
      <trkpt lat="43.8286" lon="6.18362">
        <ele>718.7</ele>
        <time>2020-06-06T08:41:48Z</time>
      </trkpt>
      <trkpt lat="43.82868" lon="6.18371">
        <ele>717.9</ele>
        <time>2020-06-06T08:41:55Z</time>
      </trkpt>
      <trkpt lat="43.82876" lon="6.1838">
        <ele>717.4</ele>
        <time>2020-06-06T08:42:02Z</time>
      </trkpt>
      <trkpt lat="43.82884" lon="6.18389">
        <ele>717.1</ele>
        <time>2020-06-06T08:42:09Z</time>
      </trkpt>
      <trkpt lat="43.82891" lon="6.18397">
        <ele>716.9</ele>
        <time>2020-06-06T08:42:15Z</time>
      </trkpt>
      <trkpt lat="43.82897" lon="6.18408">
        <ele>716.4</ele>
        <time>2020-06-06T08:42:22Z</time>
      </trkpt>
      <trkpt lat="43.82903" lon="6.1842">
        <ele>715.2</ele>
        <time>2020-06-06T08:42:29Z</time>
      </trkpt>
      <trkpt lat="43.82907" lon="6.18432">
        <ele>714.2</ele>
        <time>2020-06-06T08:42:36Z</time>
      </trkpt>
      <trkpt lat="43.82913" lon="6.18443">
        <ele>713.5</ele>
        <time>2020-06-06T08:42:43Z</time>
      </trkpt>
      <trkpt lat="43.82918" lon="6.18455">
        <ele>712.7</ele>
        <time>2020-06-06T08:42:50Z</time>
      </trkpt>
      <trkpt lat="43.82921" lon="6.18467">
        <ele>712.1</ele>
        <time>2020-06-06T08:42:56Z</time>
      </trkpt>
      <trkpt lat="43.82927" lon="6.18477">
        <ele>711.6</ele>
        <time>2020-06-06T08:43:03Z</time>
      </trkpt>
      <trkpt lat="43.82937" lon="6.18482">
        <ele>711.3</ele>
        <time>2020-06-06T08:43:07Z</time>
      </trkpt>
      <trkpt lat="43.82946" lon="6.18489">
        <ele>711.2</ele>
        <time>2020-06-06T08:43:14Z</time>
      </trkpt>
      <trkpt lat="43.82955" lon="6.18493">
        <ele>711.1</ele>
        <time>2020-06-06T08:43:20Z</time>
      </trkpt>
      <trkpt lat="43.82962" lon="6.18501">
        <ele>711.2</ele>
        <time>2020-06-06T08:43:27Z</time>
      </trkpt>
      <trkpt lat="43.82969" lon="6.18511">
        <ele>711.5</ele>
        <time>2020-06-06T08:43:35Z</time>
      </trkpt>
      <trkpt lat="43.82974" lon="6.18523">
        <ele>712.1</ele>
        <time>2020-06-06T08:43:42Z</time>
      </trkpt>
      <trkpt lat="43.8298" lon="6.18534">
        <ele>712.4</ele>
        <time>2020-06-06T08:43:49Z</time>
      </trkpt>
      <trkpt lat="43.82985" lon="6.18545">
        <ele>712.8</ele>
        <time>2020-06-06T08:43:56Z</time>
      </trkpt>
      <trkpt lat="43.8299" lon="6.18558">
        <ele>713.1</ele>
        <time>2020-06-06T08:44:04Z</time>
      </trkpt>
      <trkpt lat="43.82996" lon="6.18569">
        <ele>713.3</ele>
        <time>2020-06-06T08:44:11Z</time>
      </trkpt>
      <trkpt lat="43.83001" lon="6.18579">
        <ele>713.7</ele>
        <time>2020-06-06T08:44:17Z</time>
      </trkpt>
      <trkpt lat="43.83009" lon="6.18589">
        <ele>714.2</ele>
        <time>2020-06-06T08:44:24Z</time>
      </trkpt>
      <trkpt lat="43.83015" lon="6.18599">
        <ele>714.8</ele>
        <time>2020-06-06T08:44:31Z</time>
      </trkpt>
      <trkpt lat="43.83021" lon="6.18611">
        <ele>715.4</ele>
        <time>2020-06-06T08:44:38Z</time>
      </trkpt>
      <trkpt lat="43.83025" lon="6.18621">
        <ele>715.8</ele>
        <time>2020-06-06T08:44:44Z</time>
      </trkpt>
      <trkpt lat="43.83031" lon="6.18634">
        <ele>716.2</ele>
        <time>2020-06-06T08:44:51Z</time>
      </trkpt>
      <trkpt lat="43.83036" lon="6.18645">
        <ele>716.6</ele>
        <time>2020-06-06T08:44:58Z</time>
      </trkpt>
      <trkpt lat="43.83041" lon="6.18657">
        <ele>717.1</ele>
        <time>2020-06-06T08:45:05Z</time>
      </trkpt>
      <trkpt lat="43.83046" lon="6.18667">
        <ele>717.6</ele>
        <time>2020-06-06T08:45:11Z</time>
      </trkpt>
      <trkpt lat="43.83051" lon="6.18678">
        <ele>718</ele>
        <time>2020-06-06T08:45:18Z</time>
      </trkpt>
      <trkpt lat="43.83053" lon="6.18692">
        <ele>718.6</ele>
        <time>2020-06-06T08:45:27Z</time>
      </trkpt>
      <trkpt lat="43.83055" lon="6.18704">
        <ele>719.2</ele>
        <time>2020-06-06T08:45:35Z</time>
      </trkpt>
      <trkpt lat="43.83052" lon="6.18716">
        <ele>719.8</ele>
        <time>2020-06-06T08:45:42Z</time>
      </trkpt>
      <trkpt lat="43.83052" lon="6.1873">
        <ele>720.4</ele>
        <time>2020-06-06T08:45:49Z</time>
      </trkpt>
      <trkpt lat="43.83051" lon="6.18742">
        <ele>720.8</ele>
        <time>2020-06-06T08:45:56Z</time>
      </trkpt>
      <trkpt lat="43.83053" lon="6.18755">
        <ele>721.1</ele>
        <time>2020-06-06T08:46:03Z</time>
      </trkpt>
      <trkpt lat="43.83053" lon="6.18768">
        <ele>721.5</ele>
        <time>2020-06-06T08:46:10Z</time>
      </trkpt>
      <trkpt lat="43.83055" lon="6.18781">
        <ele>722</ele>
        <time>2020-06-06T08:46:18Z</time>
      </trkpt>
      <trkpt lat="43.83056" lon="6.18794">
        <ele>722.3</ele>
        <time>2020-06-06T08:46:25Z</time>
      </trkpt>
      <trkpt lat="43.83055" lon="6.18808">
        <ele>722.8</ele>
        <time>2020-06-06T08:46:33Z</time>
      </trkpt>
      <trkpt lat="43.83055" lon="6.18822">
        <ele>723.5</ele>
        <time>2020-06-06T08:46:40Z</time>
      </trkpt>
      <trkpt lat="43.83056" lon="6.18836">
        <ele>723.7</ele>
        <time>2020-06-06T08:46:47Z</time>
      </trkpt>
      <trkpt lat="43.83057" lon="6.18849">
        <ele>724.6</ele>
        <time>2020-06-06T08:46:55Z</time>
      </trkpt>
      <trkpt lat="43.83061" lon="6.18862">
        <ele>725.6</ele>
        <time>2020-06-06T08:47:03Z</time>
      </trkpt>
      <trkpt lat="43.83064" lon="6.18874">
        <ele>726.4</ele>
        <time>2020-06-06T08:47:10Z</time>
      </trkpt>
      <trkpt lat="43.83066" lon="6.18887">
        <ele>727.3</ele>
        <time>2020-06-06T08:47:18Z</time>
      </trkpt>
      <trkpt lat="43.83066" lon="6.18901">
        <ele>727.9</ele>
        <time>2020-06-06T08:47:25Z</time>
      </trkpt>
      <trkpt lat="43.83062" lon="6.18913">
        <ele>728.3</ele>
        <time>2020-06-06T08:47:31Z</time>
      </trkpt>
      <trkpt lat="43.83058" lon="6.18925">
        <ele>728.9</ele>
        <time>2020-06-06T08:47:37Z</time>
      </trkpt>
      <trkpt lat="43.8306" lon="6.18939">
        <ele>729.6</ele>
        <time>2020-06-06T08:47:44Z</time>
      </trkpt>
      <trkpt lat="43.8306" lon="6.18952">
        <ele>730</ele>
        <time>2020-06-06T08:47:51Z</time>
      </trkpt>
      <trkpt lat="43.83064" lon="6.18965">
        <ele>730.3</ele>
        <time>2020-06-06T08:47:58Z</time>
      </trkpt>
      <trkpt lat="43.83067" lon="6.18977">
        <ele>730.4</ele>
        <time>2020-06-06T08:48:04Z</time>
      </trkpt>
      <trkpt lat="43.83069" lon="6.18991">
        <ele>730.6</ele>
        <time>2020-06-06T08:48:11Z</time>
      </trkpt>
      <trkpt lat="43.83072" lon="6.19004">
        <ele>730.7</ele>
        <time>2020-06-06T08:48:18Z</time>
      </trkpt>
      <trkpt lat="43.83073" lon="6.19018">
        <ele>731.2</ele>
        <time>2020-06-06T08:48:26Z</time>
      </trkpt>
      <trkpt lat="43.83076" lon="6.1903">
        <ele>731.5</ele>
        <time>2020-06-06T08:48:33Z</time>
      </trkpt>
      <trkpt lat="43.83078" lon="6.19043">
        <ele>732.3</ele>
        <time>2020-06-06T08:48:41Z</time>
      </trkpt>
      <trkpt lat="43.8308" lon="6.19056">
        <ele>732.8</ele>
        <time>2020-06-06T08:48:48Z</time>
      </trkpt>
      <trkpt lat="43.83083" lon="6.19069">
        <ele>733.3</ele>
        <time>2020-06-06T08:48:55Z</time>
      </trkpt>
      <trkpt lat="43.83085" lon="6.19082">
        <ele>733.8</ele>
        <time>2020-06-06T08:49:03Z</time>
      </trkpt>
      <trkpt lat="43.83086" lon="6.19095">
        <ele>734.5</ele>
        <time>2020-06-06T08:49:11Z</time>
      </trkpt>
      <trkpt lat="43.83089" lon="6.19107">
        <ele>735.1</ele>
        <time>2020-06-06T08:49:19Z</time>
      </trkpt>
      <trkpt lat="43.83086" lon="6.19121">
        <ele>736</ele>
        <time>2020-06-06T08:49:27Z</time>
      </trkpt>
      <trkpt lat="43.83087" lon="6.19136">
        <ele>736.9</ele>
        <time>2020-06-06T08:49:35Z</time>
      </trkpt>
      <trkpt lat="43.8309" lon="6.19149">
        <ele>737.3</ele>
        <time>2020-06-06T08:49:41Z</time>
      </trkpt>
      <trkpt lat="43.83093" lon="6.19161">
        <ele>737.8</ele>
        <time>2020-06-06T08:49:47Z</time>
      </trkpt>
      <trkpt lat="43.83097" lon="6.19173">
        <ele>738.3</ele>
        <time>2020-06-06T08:49:54Z</time>
      </trkpt>
      <trkpt lat="43.831" lon="6.19185">
        <ele>738.8</ele>
        <time>2020-06-06T08:50:01Z</time>
      </trkpt>
      <trkpt lat="43.83105" lon="6.19197">
        <ele>739.4</ele>
        <time>2020-06-06T08:50:09Z</time>
      </trkpt>
      <trkpt lat="43.83109" lon="6.19209">
        <ele>739.9</ele>
        <time>2020-06-06T08:50:16Z</time>
      </trkpt>
      <trkpt lat="43.83114" lon="6.19221">
        <ele>740.6</ele>
        <time>2020-06-06T08:50:24Z</time>
      </trkpt>
      <trkpt lat="43.83119" lon="6.19233">
        <ele>741.2</ele>
        <time>2020-06-06T08:50:32Z</time>
      </trkpt>
      <trkpt lat="43.83122" lon="6.19246">
        <ele>741.9</ele>
        <time>2020-06-06T08:50:40Z</time>
      </trkpt>
      <trkpt lat="43.83128" lon="6.19258">
        <ele>742.5</ele>
        <time>2020-06-06T08:50:47Z</time>
      </trkpt>
      <trkpt lat="43.83131" lon="6.1927">
        <ele>743.3</ele>
        <time>2020-06-06T08:50:54Z</time>
      </trkpt>
      <trkpt lat="43.83123" lon="6.19278">
        <ele>743.9</ele>
        <time>2020-06-06T08:51:01Z</time>
      </trkpt>
      <trkpt lat="43.83114" lon="6.19286">
        <ele>744.5</ele>
        <time>2020-06-06T08:51:08Z</time>
      </trkpt>
      <trkpt lat="43.83117" lon="6.19299">
        <ele>745.1</ele>
        <time>2020-06-06T08:51:15Z</time>
      </trkpt>
      <trkpt lat="43.83123" lon="6.19308">
        <ele>745.5</ele>
        <time>2020-06-06T08:51:21Z</time>
      </trkpt>
      <trkpt lat="43.8313" lon="6.19318">
        <ele>746</ele>
        <time>2020-06-06T08:51:28Z</time>
      </trkpt>
      <trkpt lat="43.83135" lon="6.1933">
        <ele>746.6</ele>
        <time>2020-06-06T08:51:35Z</time>
      </trkpt>
      <trkpt lat="43.83142" lon="6.19342">
        <ele>747.1</ele>
        <time>2020-06-06T08:51:42Z</time>
      </trkpt>
      <trkpt lat="43.83148" lon="6.19353">
        <ele>747.7</ele>
        <time>2020-06-06T08:51:49Z</time>
      </trkpt>
      <trkpt lat="43.83152" lon="6.19365">
        <ele>748.2</ele>
        <time>2020-06-06T08:51:57Z</time>
      </trkpt>
      <trkpt lat="43.83157" lon="6.19376">
        <ele>749.1</ele>
        <time>2020-06-06T08:52:05Z</time>
      </trkpt>
      <trkpt lat="43.83164" lon="6.19386">
        <ele>749.7</ele>
        <time>2020-06-06T08:52:12Z</time>
      </trkpt>
      <trkpt lat="43.83168" lon="6.19397">
        <ele>750.5</ele>
        <time>2020-06-06T08:52:19Z</time>
      </trkpt>
      <trkpt lat="43.83174" lon="6.19407">
        <ele>751</ele>
        <time>2020-06-06T08:52:26Z</time>
      </trkpt>
      <trkpt lat="43.8318" lon="6.19418">
        <ele>751.8</ele>
        <time>2020-06-06T08:52:33Z</time>
      </trkpt>
      <trkpt lat="43.83186" lon="6.19428">
        <ele>752.5</ele>
        <time>2020-06-06T08:52:40Z</time>
      </trkpt>
      <trkpt lat="43.83193" lon="6.19438">
        <ele>753.1</ele>
        <time>2020-06-06T08:52:47Z</time>
      </trkpt>
      <trkpt lat="43.83198" lon="6.19449">
        <ele>754</ele>
        <time>2020-06-06T08:52:54Z</time>
      </trkpt>
      <trkpt lat="43.83205" lon="6.19458">
        <ele>754.6</ele>
        <time>2020-06-06T08:53:00Z</time>
      </trkpt>
      <trkpt lat="43.83211" lon="6.19469">
        <ele>755.3</ele>
        <time>2020-06-06T08:53:07Z</time>
      </trkpt>
      <trkpt lat="43.83206" lon="6.1948">
        <ele>756.5</ele>
        <time>2020-06-06T08:53:18Z</time>
      </trkpt>
      <trkpt lat="43.83197" lon="6.19485">
        <ele>757.2</ele>
        <time>2020-06-06T08:53:22Z</time>
      </trkpt>
      <trkpt lat="43.83197" lon="6.19498">
        <ele>758.4</ele>
        <time>2020-06-06T08:53:30Z</time>
      </trkpt>
      <trkpt lat="43.83204" lon="6.19506">
        <ele>759.2</ele>
        <time>2020-06-06T08:53:37Z</time>
      </trkpt>
      <trkpt lat="43.83211" lon="6.19514">
        <ele>760.1</ele>
        <time>2020-06-06T08:53:44Z</time>
      </trkpt>
      <trkpt lat="43.83215" lon="6.19526">
        <ele>760.9</ele>
        <time>2020-06-06T08:53:52Z</time>
      </trkpt>
      <trkpt lat="43.83207" lon="6.19536">
        <ele>761.4</ele>
        <time>2020-06-06T08:53:57Z</time>
      </trkpt>
      <trkpt lat="43.83201" lon="6.19544">
        <ele>764.1</ele>
        <time>2020-06-06T08:54:21Z</time>
      </trkpt>
      <trkpt lat="43.83204" lon="6.19532">
        <ele>764.9</ele>
        <time>2020-06-06T08:55:05Z</time>
      </trkpt>
      <trkpt lat="43.83213" lon="6.19526">
        <ele>763.3</ele>
        <time>2020-06-06T08:58:10Z</time>
      </trkpt>
      <trkpt lat="43.83222" lon="6.19526">
        <ele>763</ele>
        <time>2020-06-06T08:58:17Z</time>
      </trkpt>
      <trkpt lat="43.83228" lon="6.19536">
        <ele>762.8</ele>
        <time>2020-06-06T08:58:25Z</time>
      </trkpt>
      <trkpt lat="43.83234" lon="6.19546">
        <ele>762.2</ele>
        <time>2020-06-06T08:58:32Z</time>
      </trkpt>
      <trkpt lat="43.83238" lon="6.19558">
        <ele>761.8</ele>
        <time>2020-06-06T08:58:39Z</time>
      </trkpt>
      <trkpt lat="43.83236" lon="6.19571">
        <ele>760.8</ele>
        <time>2020-06-06T08:58:48Z</time>
      </trkpt>
      <trkpt lat="43.83228" lon="6.19577">
        <ele>759.2</ele>
        <time>2020-06-06T08:59:01Z</time>
      </trkpt>
      <trkpt lat="43.83218" lon="6.1958">
        <ele>758.3</ele>
        <time>2020-06-06T08:59:09Z</time>
      </trkpt>
      <trkpt lat="43.83208" lon="6.19581">
        <ele>757.4</ele>
        <time>2020-06-06T08:59:15Z</time>
      </trkpt>
      <trkpt lat="43.832" lon="6.19584">
        <ele>754.7</ele>
        <time>2020-06-06T08:59:23Z</time>
      </trkpt>
      <trkpt lat="43.83191" lon="6.1959">
        <ele>751.6</ele>
        <time>2020-06-06T08:59:33Z</time>
      </trkpt>
      <trkpt lat="43.83183" lon="6.19597">
        <ele>749.9</ele>
        <time>2020-06-06T08:59:39Z</time>
      </trkpt>
      <trkpt lat="43.83175" lon="6.19607">
        <ele>748.3</ele>
        <time>2020-06-06T08:59:45Z</time>
      </trkpt>
      <trkpt lat="43.83176" lon="6.19621">
        <ele>746.3</ele>
        <time>2020-06-06T08:59:52Z</time>
      </trkpt>
      <trkpt lat="43.8318" lon="6.19633">
        <ele>744.5</ele>
        <time>2020-06-06T08:59:59Z</time>
      </trkpt>
      <trkpt lat="43.83183" lon="6.19646">
        <ele>743.1</ele>
        <time>2020-06-06T09:00:07Z</time>
      </trkpt>
      <trkpt lat="43.83191" lon="6.19654">
        <ele>741.9</ele>
        <time>2020-06-06T09:00:16Z</time>
      </trkpt>
      <trkpt lat="43.832" lon="6.19655">
        <ele>740.9</ele>
        <time>2020-06-06T09:00:23Z</time>
      </trkpt>
      <trkpt lat="43.8321" lon="6.19661">
        <ele>740.1</ele>
        <time>2020-06-06T09:00:31Z</time>
      </trkpt>
      <trkpt lat="43.83215" lon="6.19673">
        <ele>739.3</ele>
        <time>2020-06-06T09:00:37Z</time>
      </trkpt>
      <trkpt lat="43.83221" lon="6.19683">
        <ele>738.5</ele>
        <time>2020-06-06T09:00:43Z</time>
      </trkpt>
      <trkpt lat="43.83227" lon="6.19693">
        <ele>737.8</ele>
        <time>2020-06-06T09:00:50Z</time>
      </trkpt>
      <trkpt lat="43.8323" lon="6.19706">
        <ele>737</ele>
        <time>2020-06-06T09:00:57Z</time>
      </trkpt>
      <trkpt lat="43.83225" lon="6.19717">
        <ele>735.9</ele>
        <time>2020-06-06T09:01:04Z</time>
      </trkpt>
      <trkpt lat="43.83215" lon="6.19714">
        <ele>734.3</ele>
        <time>2020-06-06T09:01:13Z</time>
      </trkpt>
      <trkpt lat="43.83209" lon="6.19705">
        <ele>733.2</ele>
        <time>2020-06-06T09:01:21Z</time>
      </trkpt>
      <trkpt lat="43.832" lon="6.19699">
        <ele>731.9</ele>
        <time>2020-06-06T09:01:38Z</time>
      </trkpt>
      <trkpt lat="43.83191" lon="6.19694">
        <ele>731.3</ele>
        <time>2020-06-06T09:01:45Z</time>
      </trkpt>
      <trkpt lat="43.83182" lon="6.1969">
        <ele>730.8</ele>
        <time>2020-06-06T09:01:53Z</time>
      </trkpt>
      <trkpt lat="43.83173" lon="6.19685">
        <ele>730.5</ele>
        <time>2020-06-06T09:01:59Z</time>
      </trkpt>
      <trkpt lat="43.83164" lon="6.19681">
        <ele>730.3</ele>
        <time>2020-06-06T09:02:05Z</time>
      </trkpt>
      <trkpt lat="43.83155" lon="6.19677">
        <ele>730.2</ele>
        <time>2020-06-06T09:02:10Z</time>
      </trkpt>
      <trkpt lat="43.83146" lon="6.19671">
        <ele>730.3</ele>
        <time>2020-06-06T09:02:16Z</time>
      </trkpt>
      <trkpt lat="43.83137" lon="6.1967">
        <ele>730.9</ele>
        <time>2020-06-06T09:02:24Z</time>
      </trkpt>
      <trkpt lat="43.83129" lon="6.19678">
        <ele>731.5</ele>
        <time>2020-06-06T09:02:31Z</time>
      </trkpt>
      <trkpt lat="43.83126" lon="6.19691">
        <ele>731.8</ele>
        <time>2020-06-06T09:02:37Z</time>
      </trkpt>
      <trkpt lat="43.83123" lon="6.19704">
        <ele>731.8</ele>
        <time>2020-06-06T09:02:46Z</time>
      </trkpt>
      <trkpt lat="43.83119" lon="6.19718">
        <ele>731.6</ele>
        <time>2020-06-06T09:02:53Z</time>
      </trkpt>
      <trkpt lat="43.83114" lon="6.1973">
        <ele>730.9</ele>
        <time>2020-06-06T09:02:59Z</time>
      </trkpt>
      <trkpt lat="43.83104" lon="6.19731">
        <ele>730.1</ele>
        <time>2020-06-06T09:03:08Z</time>
      </trkpt>
      <trkpt lat="43.83095" lon="6.19724">
        <ele>730</ele>
        <time>2020-06-06T09:03:17Z</time>
      </trkpt>
      <trkpt lat="43.83086" lon="6.19719">
        <ele>730</ele>
        <time>2020-06-06T09:03:22Z</time>
      </trkpt>
      <trkpt lat="43.83077" lon="6.19712">
        <ele>729.6</ele>
        <time>2020-06-06T09:03:29Z</time>
      </trkpt>
      <trkpt lat="43.83068" lon="6.19707">
        <ele>729.3</ele>
        <time>2020-06-06T09:03:36Z</time>
      </trkpt>
      <trkpt lat="43.83059" lon="6.19711">
        <ele>729.3</ele>
        <time>2020-06-06T09:03:42Z</time>
      </trkpt>
      <trkpt lat="43.83053" lon="6.19721">
        <ele>730.1</ele>
        <time>2020-06-06T09:03:50Z</time>
      </trkpt>
      <trkpt lat="43.83047" lon="6.19733">
        <ele>731</ele>
        <time>2020-06-06T09:03:57Z</time>
      </trkpt>
      <trkpt lat="43.83041" lon="6.19744">
        <ele>731.6</ele>
        <time>2020-06-06T09:04:05Z</time>
      </trkpt>
      <trkpt lat="43.8303" lon="6.19743">
        <ele>731.1</ele>
        <time>2020-06-06T09:04:16Z</time>
      </trkpt>
      <trkpt lat="43.83028" lon="6.1973">
        <ele>730.6</ele>
        <time>2020-06-06T09:04:22Z</time>
      </trkpt>
      <trkpt lat="43.8303" lon="6.19717">
        <ele>730.2</ele>
        <time>2020-06-06T09:04:28Z</time>
      </trkpt>
      <trkpt lat="43.83027" lon="6.19702">
        <ele>729.7</ele>
        <time>2020-06-06T09:04:34Z</time>
      </trkpt>
      <trkpt lat="43.83021" lon="6.19693">
        <ele>729.4</ele>
        <time>2020-06-06T09:04:40Z</time>
      </trkpt>
      <trkpt lat="43.83016" lon="6.19682">
        <ele>729.2</ele>
        <time>2020-06-06T09:04:47Z</time>
      </trkpt>
      <trkpt lat="43.83015" lon="6.19668">
        <ele>729.1</ele>
        <time>2020-06-06T09:04:54Z</time>
      </trkpt>
      <trkpt lat="43.83015" lon="6.19654">
        <ele>729.1</ele>
        <time>2020-06-06T09:05:00Z</time>
      </trkpt>
      <trkpt lat="43.83017" lon="6.1964">
        <ele>729.2</ele>
        <time>2020-06-06T09:05:09Z</time>
      </trkpt>
      <trkpt lat="43.83015" lon="6.19628">
        <ele>729.2</ele>
        <time>2020-06-06T09:05:17Z</time>
      </trkpt>
      <trkpt lat="43.83006" lon="6.19627">
        <ele>729.7</ele>
        <time>2020-06-06T09:05:29Z</time>
      </trkpt>
      <trkpt lat="43.82998" lon="6.19633">
        <ele>730.6</ele>
        <time>2020-06-06T09:05:46Z</time>
      </trkpt>
      <trkpt lat="43.82989" lon="6.19638">
        <ele>731.2</ele>
        <time>2020-06-06T09:06:07Z</time>
      </trkpt>
      <trkpt lat="43.82984" lon="6.19627">
        <ele>731.9</ele>
        <time>2020-06-06T09:07:00Z</time>
      </trkpt>
      <trkpt lat="43.8298" lon="6.19616">
        <ele>732.1</ele>
        <time>2020-06-06T09:07:10Z</time>
      </trkpt>
      <trkpt lat="43.8297" lon="6.19614">
        <ele>733.6</ele>
        <time>2020-06-06T09:07:49Z</time>
      </trkpt>
      <trkpt lat="43.82961" lon="6.19615">
        <ele>733.7</ele>
        <time>2020-06-06T09:07:54Z</time>
      </trkpt>
      <trkpt lat="43.82952" lon="6.19622">
        <ele>733.9</ele>
        <time>2020-06-06T09:08:00Z</time>
      </trkpt>
      <trkpt lat="43.82943" lon="6.19629">
        <ele>734</ele>
        <time>2020-06-06T09:08:06Z</time>
      </trkpt>
      <trkpt lat="43.82936" lon="6.19636">
        <ele>734.1</ele>
        <time>2020-06-06T09:08:12Z</time>
      </trkpt>
      <trkpt lat="43.82927" lon="6.19642">
        <ele>734.4</ele>
        <time>2020-06-06T09:08:22Z</time>
      </trkpt>
      <trkpt lat="43.82918" lon="6.19642">
        <ele>734.7</ele>
        <time>2020-06-06T09:08:28Z</time>
      </trkpt>
      <trkpt lat="43.82908" lon="6.19637">
        <ele>735</ele>
        <time>2020-06-06T09:08:36Z</time>
      </trkpt>
      <trkpt lat="43.82899" lon="6.19643">
        <ele>735.4</ele>
        <time>2020-06-06T09:08:43Z</time>
      </trkpt>
      <trkpt lat="43.8289" lon="6.19649">
        <ele>735.8</ele>
        <time>2020-06-06T09:08:50Z</time>
      </trkpt>
      <trkpt lat="43.8288" lon="6.19656">
        <ele>736.2</ele>
        <time>2020-06-06T09:08:58Z</time>
      </trkpt>
      <trkpt lat="43.82873" lon="6.19665">
        <ele>736.4</ele>
        <time>2020-06-06T09:09:03Z</time>
      </trkpt>
      <trkpt lat="43.82867" lon="6.19676">
        <ele>736.6</ele>
        <time>2020-06-06T09:09:09Z</time>
      </trkpt>
      <trkpt lat="43.82861" lon="6.19686">
        <ele>736.8</ele>
        <time>2020-06-06T09:09:16Z</time>
      </trkpt>
      <trkpt lat="43.82855" lon="6.19697">
        <ele>737.4</ele>
        <time>2020-06-06T09:09:23Z</time>
      </trkpt>
      <trkpt lat="43.82849" lon="6.19707">
        <ele>737.7</ele>
        <time>2020-06-06T09:09:30Z</time>
      </trkpt>
      <trkpt lat="43.8284" lon="6.19714">
        <ele>738.2</ele>
        <time>2020-06-06T09:09:39Z</time>
      </trkpt>
      <trkpt lat="43.82832" lon="6.19721">
        <ele>738.4</ele>
        <time>2020-06-06T09:09:46Z</time>
      </trkpt>
      <trkpt lat="43.82824" lon="6.19728">
        <ele>739.2</ele>
        <time>2020-06-06T09:09:56Z</time>
      </trkpt>
      <trkpt lat="43.82815" lon="6.19728">
        <ele>739.9</ele>
        <time>2020-06-06T09:10:05Z</time>
      </trkpt>
      <trkpt lat="43.82806" lon="6.19723">
        <ele>740.4</ele>
        <time>2020-06-06T09:10:13Z</time>
      </trkpt>
      <trkpt lat="43.82796" lon="6.19722">
        <ele>743</ele>
        <time>2020-06-06T09:13:42Z</time>
      </trkpt>
      <trkpt lat="43.82786" lon="6.19724">
        <ele>742.9</ele>
        <time>2020-06-06T09:17:30Z</time>
      </trkpt>
      <trkpt lat="43.82777" lon="6.19724">
        <ele>743.8</ele>
        <time>2020-06-06T09:18:54Z</time>
      </trkpt>
      <trkpt lat="43.82768" lon="6.19722">
        <ele>747.4</ele>
        <time>2020-06-06T09:20:14Z</time>
      </trkpt>
      <trkpt lat="43.82759" lon="6.19728">
        <ele>747.5</ele>
        <time>2020-06-06T09:20:28Z</time>
      </trkpt>
      <trkpt lat="43.82751" lon="6.19735">
        <ele>746.9</ele>
        <time>2020-06-06T09:20:42Z</time>
      </trkpt>
      <trkpt lat="43.82742" lon="6.19739">
        <ele>746.1</ele>
        <time>2020-06-06T09:21:27Z</time>
      </trkpt>
      <trkpt lat="43.82733" lon="6.19743">
        <ele>746</ele>
        <time>2020-06-06T09:22:56Z</time>
      </trkpt>
      <trkpt lat="43.82723" lon="6.19746">
        <ele>746</ele>
        <time>2020-06-06T09:23:58Z</time>
      </trkpt>
      <trkpt lat="43.82713" lon="6.19749">
        <ele>746</ele>
        <time>2020-06-06T09:24:07Z</time>
      </trkpt>
      <trkpt lat="43.82704" lon="6.19752">
        <ele>746.1</ele>
        <time>2020-06-06T09:24:14Z</time>
      </trkpt>
      <trkpt lat="43.82695" lon="6.19755">
        <ele>746.5</ele>
        <time>2020-06-06T09:24:29Z</time>
      </trkpt>
      <trkpt lat="43.82686" lon="6.19756">
        <ele>746.7</ele>
        <time>2020-06-06T09:24:36Z</time>
      </trkpt>
      <trkpt lat="43.82676" lon="6.19755">
        <ele>747.1</ele>
        <time>2020-06-06T09:24:44Z</time>
      </trkpt>
      <trkpt lat="43.82667" lon="6.19758">
        <ele>747.6</ele>
        <time>2020-06-06T09:24:53Z</time>
      </trkpt>
      <trkpt lat="43.82658" lon="6.19765">
        <ele>748.3</ele>
        <time>2020-06-06T09:25:03Z</time>
      </trkpt>
      <trkpt lat="43.8265" lon="6.19771">
        <ele>748.9</ele>
        <time>2020-06-06T09:25:10Z</time>
      </trkpt>
      <trkpt lat="43.82644" lon="6.19783">
        <ele>749.2</ele>
        <time>2020-06-06T09:25:17Z</time>
      </trkpt>
      <trkpt lat="43.82639" lon="6.19794">
        <ele>749.4</ele>
        <time>2020-06-06T09:25:23Z</time>
      </trkpt>
      <trkpt lat="43.82642" lon="6.19807">
        <ele>749.6</ele>
        <time>2020-06-06T09:25:32Z</time>
      </trkpt>
      <trkpt lat="43.82642" lon="6.1982">
        <ele>749.7</ele>
        <time>2020-06-06T09:25:38Z</time>
      </trkpt>
      <trkpt lat="43.82639" lon="6.19832">
        <ele>749.9</ele>
        <time>2020-06-06T09:25:46Z</time>
      </trkpt>
      <trkpt lat="43.82636" lon="6.19844">
        <ele>750.2</ele>
        <time>2020-06-06T09:25:53Z</time>
      </trkpt>
      <trkpt lat="43.82634" lon="6.19856">
        <ele>750.4</ele>
        <time>2020-06-06T09:26:01Z</time>
      </trkpt>
      <trkpt lat="43.82629" lon="6.19869">
        <ele>750.7</ele>
        <time>2020-06-06T09:26:09Z</time>
      </trkpt>
      <trkpt lat="43.82625" lon="6.1988">
        <ele>751</ele>
        <time>2020-06-06T09:26:17Z</time>
      </trkpt>
      <trkpt lat="43.8262" lon="6.1989">
        <ele>751.1</ele>
        <time>2020-06-06T09:26:24Z</time>
      </trkpt>
      <trkpt lat="43.82616" lon="6.19902">
        <ele>751.5</ele>
        <time>2020-06-06T09:26:34Z</time>
      </trkpt>
      <trkpt lat="43.82606" lon="6.19909">
        <ele>752</ele>
        <time>2020-06-06T09:26:42Z</time>
      </trkpt>
      <trkpt lat="43.82596" lon="6.19909">
        <ele>752.3</ele>
        <time>2020-06-06T09:26:47Z</time>
      </trkpt>
      <trkpt lat="43.82586" lon="6.19908">
        <ele>752.7</ele>
        <time>2020-06-06T09:26:57Z</time>
      </trkpt>
      <trkpt lat="43.82576" lon="6.19907">
        <ele>753.1</ele>
        <time>2020-06-06T09:27:05Z</time>
      </trkpt>
      <trkpt lat="43.82567" lon="6.19905">
        <ele>753.2</ele>
        <time>2020-06-06T09:27:10Z</time>
      </trkpt>
      <trkpt lat="43.82557" lon="6.19907">
        <ele>753.5</ele>
        <time>2020-06-06T09:27:18Z</time>
      </trkpt>
      <trkpt lat="43.82547" lon="6.19906">
        <ele>754.1</ele>
        <time>2020-06-06T09:27:28Z</time>
      </trkpt>
      <trkpt lat="43.82537" lon="6.19908">
        <ele>754.5</ele>
        <time>2020-06-06T09:27:39Z</time>
      </trkpt>
      <trkpt lat="43.82528" lon="6.19914">
        <ele>755</ele>
        <time>2020-06-06T09:27:50Z</time>
      </trkpt>
      <trkpt lat="43.82519" lon="6.19917">
        <ele>755.3</ele>
        <time>2020-06-06T09:27:56Z</time>
      </trkpt>
      <trkpt lat="43.8251" lon="6.19922">
        <ele>755.6</ele>
        <time>2020-06-06T09:28:03Z</time>
      </trkpt>
      <trkpt lat="43.82502" lon="6.19929">
        <ele>755.9</ele>
        <time>2020-06-06T09:28:11Z</time>
      </trkpt>
      <trkpt lat="43.82493" lon="6.19934">
        <ele>756.2</ele>
        <time>2020-06-06T09:28:20Z</time>
      </trkpt>
      <trkpt lat="43.82485" lon="6.19941">
        <ele>756.5</ele>
        <time>2020-06-06T09:28:27Z</time>
      </trkpt>
      <trkpt lat="43.82477" lon="6.19948">
        <ele>756.9</ele>
        <time>2020-06-06T09:28:35Z</time>
      </trkpt>
      <trkpt lat="43.82469" lon="6.19954">
        <ele>757.1</ele>
        <time>2020-06-06T09:28:42Z</time>
      </trkpt>
      <trkpt lat="43.82459" lon="6.19957">
        <ele>757.6</ele>
        <time>2020-06-06T09:28:51Z</time>
      </trkpt>
      <trkpt lat="43.8245" lon="6.19959">
        <ele>758.2</ele>
        <time>2020-06-06T09:29:01Z</time>
      </trkpt>
      <trkpt lat="43.82441" lon="6.19958">
        <ele>758.5</ele>
        <time>2020-06-06T09:29:09Z</time>
      </trkpt>
      <trkpt lat="43.82432" lon="6.19964">
        <ele>758.8</ele>
        <time>2020-06-06T09:29:20Z</time>
      </trkpt>
      <trkpt lat="43.82441" lon="6.19972">
        <ele>758.6</ele>
        <time>2020-06-06T09:29:33Z</time>
      </trkpt>
      <trkpt lat="43.82449" lon="6.1998">
        <ele>757.7</ele>
        <time>2020-06-06T09:29:42Z</time>
      </trkpt>
      <trkpt lat="43.82458" lon="6.19987">
        <ele>756.8</ele>
        <time>2020-06-06T09:29:49Z</time>
      </trkpt>
      <trkpt lat="43.82467" lon="6.19993">
        <ele>755.7</ele>
        <time>2020-06-06T09:29:57Z</time>
      </trkpt>
      <trkpt lat="43.82475" lon="6.20002">
        <ele>753.9</ele>
        <time>2020-06-06T09:30:07Z</time>
      </trkpt>
      <trkpt lat="43.82471" lon="6.20014">
        <ele>752.1</ele>
        <time>2020-06-06T09:30:17Z</time>
      </trkpt>
      <trkpt lat="43.82466" lon="6.20024">
        <ele>746.6</ele>
        <time>2020-06-06T09:31:21Z</time>
      </trkpt>
      <trkpt lat="43.82467" lon="6.20037">
        <ele>742.8</ele>
        <time>2020-06-06T09:41:59Z</time>
      </trkpt>
      <trkpt lat="43.82473" lon="6.20049">
        <ele>742.5</ele>
        <time>2020-06-06T09:42:08Z</time>
      </trkpt>
      <trkpt lat="43.82478" lon="6.2006">
        <ele>742.2</ele>
        <time>2020-06-06T09:42:15Z</time>
      </trkpt>
      <trkpt lat="43.82484" lon="6.2007">
        <ele>741.4</ele>
        <time>2020-06-06T09:42:23Z</time>
      </trkpt>
      <trkpt lat="43.82492" lon="6.20078">
        <ele>739.8</ele>
        <time>2020-06-06T09:42:39Z</time>
      </trkpt>
      <trkpt lat="43.825" lon="6.20086">
        <ele>739.1</ele>
        <time>2020-06-06T09:42:47Z</time>
      </trkpt>
      <trkpt lat="43.82506" lon="6.20096">
        <ele>738.1</ele>
        <time>2020-06-06T09:42:56Z</time>
      </trkpt>
      <trkpt lat="43.82513" lon="6.20104">
        <ele>736.9</ele>
        <time>2020-06-06T09:43:05Z</time>
      </trkpt>
      <trkpt lat="43.82519" lon="6.20115">
        <ele>735.7</ele>
        <time>2020-06-06T09:43:14Z</time>
      </trkpt>
      <trkpt lat="43.82525" lon="6.20124">
        <ele>734.3</ele>
        <time>2020-06-06T09:43:24Z</time>
      </trkpt>
      <trkpt lat="43.82533" lon="6.2013">
        <ele>732.2</ele>
        <time>2020-06-06T09:43:36Z</time>
      </trkpt>
      <trkpt lat="43.82541" lon="6.20138">
        <ele>730.3</ele>
        <time>2020-06-06T09:43:47Z</time>
      </trkpt>
      <trkpt lat="43.82537" lon="6.20151">
        <ele>728.2</ele>
        <time>2020-06-06T09:43:59Z</time>
      </trkpt>
      <trkpt lat="43.8253" lon="6.20159">
        <ele>725.8</ele>
        <time>2020-06-06T09:44:09Z</time>
      </trkpt>
      <trkpt lat="43.82522" lon="6.20167">
        <ele>724.4</ele>
        <time>2020-06-06T09:44:18Z</time>
      </trkpt>
      <trkpt lat="43.82525" lon="6.2018">
        <ele>722.5</ele>
        <time>2020-06-06T09:44:28Z</time>
      </trkpt>
      <trkpt lat="43.82534" lon="6.20183">
        <ele>720.5</ele>
        <time>2020-06-06T09:44:39Z</time>
      </trkpt>
      <trkpt lat="43.82543" lon="6.20178">
        <ele>718.1</ele>
        <time>2020-06-06T09:44:52Z</time>
      </trkpt>
      <trkpt lat="43.82551" lon="6.20182">
        <ele>715.8</ele>
        <time>2020-06-06T09:45:07Z</time>
      </trkpt>
      <trkpt lat="43.82552" lon="6.20195">
        <ele>713.9</ele>
        <time>2020-06-06T09:45:18Z</time>
      </trkpt>
      <trkpt lat="43.82543" lon="6.20201">
        <ele>711.8</ele>
        <time>2020-06-06T09:45:30Z</time>
      </trkpt>
      <trkpt lat="43.82534" lon="6.20205">
        <ele>710.5</ele>
        <time>2020-06-06T09:45:40Z</time>
      </trkpt>
      <trkpt lat="43.82536" lon="6.20217">
        <ele>708.3</ele>
        <time>2020-06-06T09:45:54Z</time>
      </trkpt>
      <trkpt lat="43.82546" lon="6.20216">
        <ele>705.6</ele>
        <time>2020-06-06T09:46:09Z</time>
      </trkpt>
      <trkpt lat="43.82555" lon="6.20219">
        <ele>703.7</ele>
        <time>2020-06-06T09:46:18Z</time>
      </trkpt>
      <trkpt lat="43.82563" lon="6.20226">
        <ele>702.3</ele>
        <time>2020-06-06T09:46:26Z</time>
      </trkpt>
      <trkpt lat="43.82572" lon="6.20231">
        <ele>700.3</ele>
        <time>2020-06-06T09:46:36Z</time>
      </trkpt>
      <trkpt lat="43.82581" lon="6.20235">
        <ele>698.8</ele>
        <time>2020-06-06T09:46:45Z</time>
      </trkpt>
      <trkpt lat="43.8259" lon="6.2024">
        <ele>697.1</ele>
        <time>2020-06-06T09:46:52Z</time>
      </trkpt>
      <trkpt lat="43.82595" lon="6.2025">
        <ele>695.4</ele>
        <time>2020-06-06T09:47:01Z</time>
      </trkpt>
      <trkpt lat="43.8259" lon="6.20261">
        <ele>693.6</ele>
        <time>2020-06-06T09:47:11Z</time>
      </trkpt>
      <trkpt lat="43.82593" lon="6.20273">
        <ele>691.4</ele>
        <time>2020-06-06T09:47:20Z</time>
      </trkpt>
      <trkpt lat="43.82601" lon="6.20279">
        <ele>689.4</ele>
        <time>2020-06-06T09:47:32Z</time>
      </trkpt>
      <trkpt lat="43.8261" lon="6.20281">
        <ele>687.3</ele>
        <time>2020-06-06T09:47:43Z</time>
      </trkpt>
      <trkpt lat="43.8262" lon="6.20284">
        <ele>685.6</ele>
        <time>2020-06-06T09:47:52Z</time>
      </trkpt>
      <trkpt lat="43.82628" lon="6.20289">
        <ele>683.5</ele>
        <time>2020-06-06T09:48:04Z</time>
      </trkpt>
      <trkpt lat="43.82639" lon="6.20293">
        <ele>682.4</ele>
        <time>2020-06-06T09:48:11Z</time>
      </trkpt>
      <trkpt lat="43.82648" lon="6.20292">
        <ele>681</ele>
        <time>2020-06-06T09:48:21Z</time>
      </trkpt>
      <trkpt lat="43.82657" lon="6.20295">
        <ele>680</ele>
        <time>2020-06-06T09:48:27Z</time>
      </trkpt>
      <trkpt lat="43.82665" lon="6.20303">
        <ele>678.8</ele>
        <time>2020-06-06T09:48:35Z</time>
      </trkpt>
      <trkpt lat="43.82664" lon="6.20316">
        <ele>677.6</ele>
        <time>2020-06-06T09:48:44Z</time>
      </trkpt>
      <trkpt lat="43.82659" lon="6.20327">
        <ele>676.4</ele>
        <time>2020-06-06T09:48:52Z</time>
      </trkpt>
      <trkpt lat="43.82655" lon="6.2034">
        <ele>675.1</ele>
        <time>2020-06-06T09:49:01Z</time>
      </trkpt>
      <trkpt lat="43.82661" lon="6.20351">
        <ele>673.9</ele>
        <time>2020-06-06T09:49:09Z</time>
      </trkpt>
      <trkpt lat="43.8267" lon="6.20356">
        <ele>671.8</ele>
        <time>2020-06-06T09:49:18Z</time>
      </trkpt>
      <trkpt lat="43.82679" lon="6.20358">
        <ele>669.8</ele>
        <time>2020-06-06T09:49:30Z</time>
      </trkpt>
      <trkpt lat="43.82689" lon="6.20357">
        <ele>668.2</ele>
        <time>2020-06-06T09:49:41Z</time>
      </trkpt>
      <trkpt lat="43.82698" lon="6.20357">
        <ele>666.4</ele>
        <time>2020-06-06T09:49:52Z</time>
      </trkpt>
      <trkpt lat="43.82706" lon="6.2036">
        <ele>665.4</ele>
        <time>2020-06-06T09:49:59Z</time>
      </trkpt>
      <trkpt lat="43.82715" lon="6.20364">
        <ele>664.7</ele>
        <time>2020-06-06T09:50:05Z</time>
      </trkpt>
      <trkpt lat="43.82725" lon="6.20367">
        <ele>663.4</ele>
        <time>2020-06-06T09:50:14Z</time>
      </trkpt>
      <trkpt lat="43.82733" lon="6.20373">
        <ele>662</ele>
        <time>2020-06-06T09:50:24Z</time>
      </trkpt>
      <trkpt lat="43.82741" lon="6.20378">
        <ele>660.8</ele>
        <time>2020-06-06T09:50:31Z</time>
      </trkpt>
      <trkpt lat="43.82751" lon="6.20382">
        <ele>659.7</ele>
        <time>2020-06-06T09:50:38Z</time>
      </trkpt>
      <trkpt lat="43.82759" lon="6.20387">
        <ele>658.5</ele>
        <time>2020-06-06T09:50:46Z</time>
      </trkpt>
      <trkpt lat="43.82766" lon="6.20395">
        <ele>657.3</ele>
        <time>2020-06-06T09:50:54Z</time>
      </trkpt>
      <trkpt lat="43.82768" lon="6.20408">
        <ele>655.9</ele>
        <time>2020-06-06T09:51:03Z</time>
      </trkpt>
      <trkpt lat="43.82764" lon="6.20421">
        <ele>654.3</ele>
        <time>2020-06-06T09:51:11Z</time>
      </trkpt>
      <trkpt lat="43.82762" lon="6.20434">
        <ele>652.2</ele>
        <time>2020-06-06T09:51:22Z</time>
      </trkpt>
      <trkpt lat="43.82769" lon="6.20441">
        <ele>650.7</ele>
        <time>2020-06-06T09:51:31Z</time>
      </trkpt>
      <trkpt lat="43.82777" lon="6.20449">
        <ele>649.3</ele>
        <time>2020-06-06T09:51:40Z</time>
      </trkpt>
      <trkpt lat="43.82784" lon="6.20455">
        <ele>647.3</ele>
        <time>2020-06-06T09:51:51Z</time>
      </trkpt>
      <trkpt lat="43.82793" lon="6.20462">
        <ele>646</ele>
        <time>2020-06-06T09:51:58Z</time>
      </trkpt>
      <trkpt lat="43.828" lon="6.2047">
        <ele>644.4</ele>
        <time>2020-06-06T09:52:07Z</time>
      </trkpt>
      <trkpt lat="43.82799" lon="6.20483">
        <ele>642.5</ele>
        <time>2020-06-06T09:52:18Z</time>
      </trkpt>
      <trkpt lat="43.82801" lon="6.20496">
        <ele>640.7</ele>
        <time>2020-06-06T09:52:28Z</time>
      </trkpt>
      <trkpt lat="43.82806" lon="6.20507">
        <ele>639.2</ele>
        <time>2020-06-06T09:52:38Z</time>
      </trkpt>
      <trkpt lat="43.82809" lon="6.20519">
        <ele>638</ele>
        <time>2020-06-06T09:52:46Z</time>
      </trkpt>
      <trkpt lat="43.8281" lon="6.20532">
        <ele>636.5</ele>
        <time>2020-06-06T09:52:55Z</time>
      </trkpt>
      <trkpt lat="43.82811" lon="6.20545">
        <ele>635.1</ele>
        <time>2020-06-06T09:53:03Z</time>
      </trkpt>
      <trkpt lat="43.82813" lon="6.20559">
        <ele>633.7</ele>
        <time>2020-06-06T09:53:12Z</time>
      </trkpt>
      <trkpt lat="43.82813" lon="6.20572">
        <ele>632.1</ele>
        <time>2020-06-06T09:53:21Z</time>
      </trkpt>
      <trkpt lat="43.82819" lon="6.20582">
        <ele>630.9</ele>
        <time>2020-06-06T09:53:29Z</time>
      </trkpt>
      <trkpt lat="43.82827" lon="6.20591">
        <ele>629.3</ele>
        <time>2020-06-06T09:53:38Z</time>
      </trkpt>
      <trkpt lat="43.82835" lon="6.20599">
        <ele>627.9</ele>
        <time>2020-06-06T09:53:46Z</time>
      </trkpt>
      <trkpt lat="43.82843" lon="6.20607">
        <ele>626.3</ele>
        <time>2020-06-06T09:53:56Z</time>
      </trkpt>
      <trkpt lat="43.82849" lon="6.20617">
        <ele>624.9</ele>
        <time>2020-06-06T09:54:04Z</time>
      </trkpt>
      <trkpt lat="43.82854" lon="6.20629">
        <ele>623.6</ele>
        <time>2020-06-06T09:54:13Z</time>
      </trkpt>
      <trkpt lat="43.8286" lon="6.20639">
        <ele>622</ele>
        <time>2020-06-06T09:54:24Z</time>
      </trkpt>
      <trkpt lat="43.82869" lon="6.20643">
        <ele>620.9</ele>
        <time>2020-06-06T09:54:33Z</time>
      </trkpt>
      <trkpt lat="43.82878" lon="6.20644">
        <ele>619</ele>
        <time>2020-06-06T09:54:47Z</time>
      </trkpt>
      <trkpt lat="43.82882" lon="6.20656">
        <ele>617.5</ele>
        <time>2020-06-06T09:54:56Z</time>
      </trkpt>
      <trkpt lat="43.82878" lon="6.20667">
        <ele>615.9</ele>
        <time>2020-06-06T09:55:06Z</time>
      </trkpt>
      <trkpt lat="43.82872" lon="6.20676">
        <ele>613.7</ele>
        <time>2020-06-06T09:55:16Z</time>
      </trkpt>
      <trkpt lat="43.82863" lon="6.20681">
        <ele>612.3</ele>
        <time>2020-06-06T09:55:24Z</time>
      </trkpt>
      <trkpt lat="43.82856" lon="6.2069">
        <ele>611.2</ele>
        <time>2020-06-06T09:55:32Z</time>
      </trkpt>
      <trkpt lat="43.82849" lon="6.20699">
        <ele>609.5</ele>
        <time>2020-06-06T09:55:42Z</time>
      </trkpt>
      <trkpt lat="43.82848" lon="6.20712">
        <ele>607.7</ele>
        <time>2020-06-06T09:55:52Z</time>
      </trkpt>
      <trkpt lat="43.82853" lon="6.20723">
        <ele>605.7</ele>
        <time>2020-06-06T09:56:04Z</time>
      </trkpt>
      <trkpt lat="43.8286" lon="6.20735">
        <ele>604</ele>
        <time>2020-06-06T09:56:12Z</time>
      </trkpt>
      <trkpt lat="43.82868" lon="6.20743">
        <ele>603.1</ele>
        <time>2020-06-06T09:56:17Z</time>
      </trkpt>
      <trkpt lat="43.82875" lon="6.20752">
        <ele>602</ele>
        <time>2020-06-06T09:56:24Z</time>
      </trkpt>
      <trkpt lat="43.82882" lon="6.20762">
        <ele>600.7</ele>
        <time>2020-06-06T09:56:32Z</time>
      </trkpt>
      <trkpt lat="43.82889" lon="6.2077">
        <ele>599.5</ele>
        <time>2020-06-06T09:56:40Z</time>
      </trkpt>
      <trkpt lat="43.82895" lon="6.20779">
        <ele>598.1</ele>
        <time>2020-06-06T09:56:49Z</time>
      </trkpt>
      <trkpt lat="43.82902" lon="6.20789">
        <ele>596.7</ele>
        <time>2020-06-06T09:56:59Z</time>
      </trkpt>
      <trkpt lat="43.82904" lon="6.20802">
        <ele>595.3</ele>
        <time>2020-06-06T09:57:08Z</time>
      </trkpt>
      <trkpt lat="43.82896" lon="6.2081">
        <ele>594.2</ele>
        <time>2020-06-06T09:57:15Z</time>
      </trkpt>
      <trkpt lat="43.8289" lon="6.2082">
        <ele>592.5</ele>
        <time>2020-06-06T09:57:25Z</time>
      </trkpt>
      <trkpt lat="43.82882" lon="6.20826">
        <ele>590.6</ele>
        <time>2020-06-06T09:57:36Z</time>
      </trkpt>
      <trkpt lat="43.82873" lon="6.20831">
        <ele>589</ele>
        <time>2020-06-06T09:57:44Z</time>
      </trkpt>
      <trkpt lat="43.82866" lon="6.20839">
        <ele>586.5</ele>
        <time>2020-06-06T09:58:01Z</time>
      </trkpt>
      <trkpt lat="43.82865" lon="6.20853">
        <ele>585.6</ele>
        <time>2020-06-06T09:58:08Z</time>
      </trkpt>
      <trkpt lat="43.8287" lon="6.20864">
        <ele>584.7</ele>
        <time>2020-06-06T09:58:16Z</time>
      </trkpt>
      <trkpt lat="43.82878" lon="6.20873">
        <ele>583.2</ele>
        <time>2020-06-06T09:58:26Z</time>
      </trkpt>
      <trkpt lat="43.82887" lon="6.20879">
        <ele>582</ele>
        <time>2020-06-06T09:58:32Z</time>
      </trkpt>
      <trkpt lat="43.82896" lon="6.20884">
        <ele>581.2</ele>
        <time>2020-06-06T09:58:37Z</time>
      </trkpt>
      <trkpt lat="43.82902" lon="6.20894">
        <ele>579.7</ele>
        <time>2020-06-06T09:58:45Z</time>
      </trkpt>
      <trkpt lat="43.82907" lon="6.20906">
        <ele>578</ele>
        <time>2020-06-06T09:58:55Z</time>
      </trkpt>
      <trkpt lat="43.82912" lon="6.20917">
        <ele>576.5</ele>
        <time>2020-06-06T09:59:05Z</time>
      </trkpt>
      <trkpt lat="43.82919" lon="6.20928">
        <ele>576</ele>
        <time>2020-06-06T09:59:10Z</time>
      </trkpt>
      <trkpt lat="43.82926" lon="6.20936">
        <ele>575</ele>
        <time>2020-06-06T09:59:17Z</time>
      </trkpt>
      <trkpt lat="43.82933" lon="6.20945">
        <ele>574</ele>
        <time>2020-06-06T09:59:26Z</time>
      </trkpt>
      <trkpt lat="43.82941" lon="6.20953">
        <ele>572.8</ele>
        <time>2020-06-06T09:59:35Z</time>
      </trkpt>
      <trkpt lat="43.82946" lon="6.20964">
        <ele>571.2</ele>
        <time>2020-06-06T09:59:47Z</time>
      </trkpt>
      <trkpt lat="43.82949" lon="6.20977">
        <ele>568.7</ele>
        <time>2020-06-06T10:00:13Z</time>
      </trkpt>
      <trkpt lat="43.82957" lon="6.20986">
        <ele>568.2</ele>
        <time>2020-06-06T10:00:21Z</time>
      </trkpt>
      <trkpt lat="43.82963" lon="6.20995">
        <ele>567.8</ele>
        <time>2020-06-06T10:00:25Z</time>
      </trkpt>
      <trkpt lat="43.82971" lon="6.21003">
        <ele>567.4</ele>
        <time>2020-06-06T10:00:31Z</time>
      </trkpt>
      <trkpt lat="43.82981" lon="6.21007">
        <ele>565.5</ele>
        <time>2020-06-06T10:01:09Z</time>
      </trkpt>
      <trkpt lat="43.82984" lon="6.21019">
        <ele>564.9</ele>
        <time>2020-06-06T10:01:22Z</time>
      </trkpt>
      <trkpt lat="43.82988" lon="6.21031">
        <ele>563.7</ele>
        <time>2020-06-06T10:01:34Z</time>
      </trkpt>
      <trkpt lat="43.82995" lon="6.2104">
        <ele>563</ele>
        <time>2020-06-06T10:01:41Z</time>
      </trkpt>
      <trkpt lat="43.83001" lon="6.2105">
        <ele>562.1</ele>
        <time>2020-06-06T10:01:50Z</time>
      </trkpt>
      <trkpt lat="43.83006" lon="6.21061">
        <ele>561.2</ele>
        <time>2020-06-06T10:01:59Z</time>
      </trkpt>
      <trkpt lat="43.83011" lon="6.21072">
        <ele>560.6</ele>
        <time>2020-06-06T10:02:06Z</time>
      </trkpt>
      <trkpt lat="43.83018" lon="6.21081">
        <ele>560.2</ele>
        <time>2020-06-06T10:02:11Z</time>
      </trkpt>
      <trkpt lat="43.83024" lon="6.2109">
        <ele>559.8</ele>
        <time>2020-06-06T10:02:18Z</time>
      </trkpt>
      <trkpt lat="43.83031" lon="6.211">
        <ele>559.3</ele>
        <time>2020-06-06T10:02:26Z</time>
      </trkpt>
      <trkpt lat="43.83036" lon="6.2111">
        <ele>558.8</ele>
        <time>2020-06-06T10:02:35Z</time>
      </trkpt>
      <trkpt lat="43.83044" lon="6.21118">
        <ele>558.4</ele>
        <time>2020-06-06T10:02:41Z</time>
      </trkpt>
      <trkpt lat="43.83051" lon="6.21127">
        <ele>558</ele>
        <time>2020-06-06T10:02:49Z</time>
      </trkpt>
      <trkpt lat="43.83059" lon="6.21134">
        <ele>557.6</ele>
        <time>2020-06-06T10:02:57Z</time>
      </trkpt>
      <trkpt lat="43.83065" lon="6.21145">
        <ele>557.1</ele>
        <time>2020-06-06T10:03:07Z</time>
      </trkpt>
      <trkpt lat="43.83071" lon="6.21155">
        <ele>556.5</ele>
        <time>2020-06-06T10:03:16Z</time>
      </trkpt>
      <trkpt lat="43.83076" lon="6.21166">
        <ele>555.6</ele>
        <time>2020-06-06T10:03:25Z</time>
      </trkpt>
      <trkpt lat="43.83083" lon="6.21174">
        <ele>554.7</ele>
        <time>2020-06-06T10:03:36Z</time>
      </trkpt>
      <trkpt lat="43.83092" lon="6.21181">
        <ele>554.1</ele>
        <time>2020-06-06T10:03:43Z</time>
      </trkpt>
      <trkpt lat="43.831" lon="6.21189">
        <ele>553.7</ele>
        <time>2020-06-06T10:03:49Z</time>
      </trkpt>
      <trkpt lat="43.83108" lon="6.21195">
        <ele>552.6</ele>
        <time>2020-06-06T10:03:57Z</time>
      </trkpt>
      <trkpt lat="43.83117" lon="6.21202">
        <ele>551.7</ele>
        <time>2020-06-06T10:04:05Z</time>
      </trkpt>
      <trkpt lat="43.83127" lon="6.21212">
        <ele>549.2</ele>
        <time>2020-06-06T10:04:38Z</time>
      </trkpt>
      <trkpt lat="43.83135" lon="6.21219">
        <ele>549.3</ele>
        <time>2020-06-06T10:04:46Z</time>
      </trkpt>
      <trkpt lat="43.83141" lon="6.21229">
        <ele>548.9</ele>
        <time>2020-06-06T10:04:56Z</time>
      </trkpt>
      <trkpt lat="43.83149" lon="6.21235">
        <ele>548.5</ele>
        <time>2020-06-06T10:05:05Z</time>
      </trkpt>
      <trkpt lat="43.83157" lon="6.21241">
        <ele>548.4</ele>
        <time>2020-06-06T10:05:13Z</time>
      </trkpt>
      <trkpt lat="43.83165" lon="6.21247">
        <ele>548.3</ele>
        <time>2020-06-06T10:05:19Z</time>
      </trkpt>
      <trkpt lat="43.83174" lon="6.21252">
        <ele>547.8</ele>
        <time>2020-06-06T10:05:25Z</time>
      </trkpt>
      <trkpt lat="43.83183" lon="6.21257">
        <ele>547.4</ele>
        <time>2020-06-06T10:05:31Z</time>
      </trkpt>
      <trkpt lat="43.83191" lon="6.21262">
        <ele>547.2</ele>
        <time>2020-06-06T10:05:37Z</time>
      </trkpt>
      <trkpt lat="43.832" lon="6.21268">
        <ele>547</ele>
        <time>2020-06-06T10:05:43Z</time>
      </trkpt>
      <trkpt lat="43.83209" lon="6.21273">
        <ele>546.9</ele>
        <time>2020-06-06T10:05:50Z</time>
      </trkpt>
      <trkpt lat="43.83219" lon="6.21279">
        <ele>546.6</ele>
        <time>2020-06-06T10:05:57Z</time>
      </trkpt>
      <trkpt lat="43.83227" lon="6.21285">
        <ele>546.2</ele>
        <time>2020-06-06T10:06:04Z</time>
      </trkpt>
      <trkpt lat="43.83236" lon="6.21289">
        <ele>545.4</ele>
        <time>2020-06-06T10:06:12Z</time>
      </trkpt>
      <trkpt lat="43.83244" lon="6.21297">
        <ele>545.3</ele>
        <time>2020-06-06T10:06:17Z</time>
      </trkpt>
      <trkpt lat="43.8325" lon="6.21306">
        <ele>545.3</ele>
        <time>2020-06-06T10:06:23Z</time>
      </trkpt>
      <trkpt lat="43.83257" lon="6.21314">
        <ele>544.6</ele>
        <time>2020-06-06T10:06:31Z</time>
      </trkpt>
      <trkpt lat="43.83267" lon="6.21318">
        <ele>544.7</ele>
        <time>2020-06-06T10:06:40Z</time>
      </trkpt>
      <trkpt lat="43.83276" lon="6.21321">
        <ele>544.6</ele>
        <time>2020-06-06T10:06:47Z</time>
      </trkpt>
      <trkpt lat="43.83285" lon="6.21328">
        <ele>544.8</ele>
        <time>2020-06-06T10:06:54Z</time>
      </trkpt>
      <trkpt lat="43.83293" lon="6.21332">
        <ele>545.2</ele>
        <time>2020-06-06T10:07:02Z</time>
      </trkpt>
      <trkpt lat="43.83302" lon="6.21338">
        <ele>546.7</ele>
        <time>2020-06-06T10:07:35Z</time>
      </trkpt>
      <trkpt lat="43.8331" lon="6.21347">
        <ele>546.4</ele>
        <time>2020-06-06T10:09:16Z</time>
      </trkpt>
      <trkpt lat="43.83315" lon="6.21358">
        <ele>545.4</ele>
        <time>2020-06-06T10:10:36Z</time>
      </trkpt>
      <trkpt lat="43.83323" lon="6.21365">
        <ele>545.6</ele>
        <time>2020-06-06T10:10:44Z</time>
      </trkpt>
      <trkpt lat="43.83332" lon="6.21371">
        <ele>546.7</ele>
        <time>2020-06-06T10:10:51Z</time>
      </trkpt>
      <trkpt lat="43.83341" lon="6.21378">
        <ele>547.4</ele>
        <time>2020-06-06T10:10:58Z</time>
      </trkpt>
      <trkpt lat="43.83349" lon="6.21385">
        <ele>547.1</ele>
        <time>2020-06-06T10:11:05Z</time>
      </trkpt>
      <trkpt lat="43.83357" lon="6.21391">
        <ele>547</ele>
        <time>2020-06-06T10:11:12Z</time>
      </trkpt>
      <trkpt lat="43.83365" lon="6.21399">
        <ele>547.5</ele>
        <time>2020-06-06T10:11:19Z</time>
      </trkpt>
      <trkpt lat="43.83373" lon="6.21408">
        <ele>547.9</ele>
        <time>2020-06-06T10:11:26Z</time>
      </trkpt>
      <trkpt lat="43.83381" lon="6.21416">
        <ele>548.1</ele>
        <time>2020-06-06T10:11:33Z</time>
      </trkpt>
      <trkpt lat="43.83389" lon="6.21424">
        <ele>548.2</ele>
        <time>2020-06-06T10:11:40Z</time>
      </trkpt>
      <trkpt lat="43.83398" lon="6.21432">
        <ele>548.7</ele>
        <time>2020-06-06T10:11:47Z</time>
      </trkpt>
      <trkpt lat="43.83407" lon="6.21434">
        <ele>548.6</ele>
        <time>2020-06-06T10:11:53Z</time>
      </trkpt>
      <trkpt lat="43.83416" lon="6.2144">
        <ele>548.2</ele>
        <time>2020-06-06T10:12:00Z</time>
      </trkpt>
      <trkpt lat="43.83425" lon="6.21444">
        <ele>547.7</ele>
        <time>2020-06-06T10:12:08Z</time>
      </trkpt>
      <trkpt lat="43.83434" lon="6.2145">
        <ele>547</ele>
        <time>2020-06-06T10:12:16Z</time>
      </trkpt>
      <trkpt lat="43.83441" lon="6.21459">
        <ele>546.4</ele>
        <time>2020-06-06T10:12:24Z</time>
      </trkpt>
      <trkpt lat="43.83449" lon="6.21467">
        <ele>545.8</ele>
        <time>2020-06-06T10:12:30Z</time>
      </trkpt>
      <trkpt lat="43.83455" lon="6.21477">
        <ele>545.1</ele>
        <time>2020-06-06T10:12:37Z</time>
      </trkpt>
      <trkpt lat="43.83461" lon="6.21487">
        <ele>544.5</ele>
        <time>2020-06-06T10:12:43Z</time>
      </trkpt>
      <trkpt lat="43.83468" lon="6.21496">
        <ele>543.9</ele>
        <time>2020-06-06T10:12:49Z</time>
      </trkpt>
      <trkpt lat="43.83475" lon="6.21505">
        <ele>543</ele>
        <time>2020-06-06T10:12:56Z</time>
      </trkpt>
      <trkpt lat="43.83483" lon="6.21511">
        <ele>542.5</ele>
        <time>2020-06-06T10:13:03Z</time>
      </trkpt>
      <trkpt lat="43.83492" lon="6.21518">
        <ele>542.2</ele>
        <time>2020-06-06T10:13:09Z</time>
      </trkpt>
      <trkpt lat="43.835" lon="6.21525">
        <ele>541.8</ele>
        <time>2020-06-06T10:13:15Z</time>
      </trkpt>
      <trkpt lat="43.83508" lon="6.21532">
        <ele>541.5</ele>
        <time>2020-06-06T10:13:21Z</time>
      </trkpt>
      <trkpt lat="43.83517" lon="6.21539">
        <ele>541.2</ele>
        <time>2020-06-06T10:13:27Z</time>
      </trkpt>
      <trkpt lat="43.83525" lon="6.21546">
        <ele>540.5</ele>
        <time>2020-06-06T10:13:33Z</time>
      </trkpt>
      <trkpt lat="43.83534" lon="6.21553">
        <ele>540</ele>
        <time>2020-06-06T10:13:39Z</time>
      </trkpt>
      <trkpt lat="43.83542" lon="6.21559">
        <ele>539.7</ele>
        <time>2020-06-06T10:13:44Z</time>
      </trkpt>
      <trkpt lat="43.8355" lon="6.21567">
        <ele>539.6</ele>
        <time>2020-06-06T10:13:50Z</time>
      </trkpt>
      <trkpt lat="43.83558" lon="6.21575">
        <ele>539.4</ele>
        <time>2020-06-06T10:13:56Z</time>
      </trkpt>
      <trkpt lat="43.83565" lon="6.21582">
        <ele>539.1</ele>
        <time>2020-06-06T10:14:03Z</time>
      </trkpt>
      <trkpt lat="43.83573" lon="6.2159">
        <ele>538.8</ele>
        <time>2020-06-06T10:14:10Z</time>
      </trkpt>
      <trkpt lat="43.83581" lon="6.21598">
        <ele>538.8</ele>
        <time>2020-06-06T10:14:16Z</time>
      </trkpt>
      <trkpt lat="43.83589" lon="6.21605">
        <ele>538.7</ele>
        <time>2020-06-06T10:14:23Z</time>
      </trkpt>
      <trkpt lat="43.83597" lon="6.21613">
        <ele>538.6</ele>
        <time>2020-06-06T10:14:30Z</time>
      </trkpt>
      <trkpt lat="43.83605" lon="6.21621">
        <ele>538.1</ele>
        <time>2020-06-06T10:14:37Z</time>
      </trkpt>
      <trkpt lat="43.83613" lon="6.21628">
        <ele>537.7</ele>
        <time>2020-06-06T10:14:44Z</time>
      </trkpt>
      <trkpt lat="43.83622" lon="6.21636">
        <ele>537.5</ele>
        <time>2020-06-06T10:14:51Z</time>
      </trkpt>
      <trkpt lat="43.83631" lon="6.21643">
        <ele>537.4</ele>
        <time>2020-06-06T10:14:58Z</time>
      </trkpt>
      <trkpt lat="43.83638" lon="6.21651">
        <ele>537.3</ele>
        <time>2020-06-06T10:15:05Z</time>
      </trkpt>
      <trkpt lat="43.83646" lon="6.21659">
        <ele>537.3</ele>
        <time>2020-06-06T10:15:12Z</time>
      </trkpt>
      <trkpt lat="43.83653" lon="6.21667">
        <ele>537.3</ele>
        <time>2020-06-06T10:15:19Z</time>
      </trkpt>
      <trkpt lat="43.83661" lon="6.21674">
        <ele>537.1</ele>
        <time>2020-06-06T10:15:26Z</time>
      </trkpt>
      <trkpt lat="43.8367" lon="6.21679">
        <ele>536.6</ele>
        <time>2020-06-06T10:15:34Z</time>
      </trkpt>
      <trkpt lat="43.83677" lon="6.21688">
        <ele>535.8</ele>
        <time>2020-06-06T10:15:46Z</time>
      </trkpt>
      <trkpt lat="43.83686" lon="6.21694">
        <ele>534.4</ele>
        <time>2020-06-06T10:16:46Z</time>
      </trkpt>
      <trkpt lat="43.83678" lon="6.21686">
        <ele>534.9</ele>
        <time>2020-06-06T10:17:45Z</time>
      </trkpt>
      <trkpt lat="43.83669" lon="6.21683">
        <ele>534.7</ele>
        <time>2020-06-06T10:17:57Z</time>
      </trkpt>
      <trkpt lat="43.83662" lon="6.21675">
        <ele>534.8</ele>
        <time>2020-06-06T10:18:06Z</time>
      </trkpt>
      <trkpt lat="43.83652" lon="6.21674">
        <ele>535.2</ele>
        <time>2020-06-06T10:18:17Z</time>
      </trkpt>
      <trkpt lat="43.83645" lon="6.21684">
        <ele>535.8</ele>
        <time>2020-06-06T10:18:38Z</time>
      </trkpt>
      <trkpt lat="43.83641" lon="6.21698">
        <ele>536</ele>
        <time>2020-06-06T10:18:56Z</time>
      </trkpt>
      <trkpt lat="43.83638" lon="6.21709">
        <ele>536</ele>
        <time>2020-06-06T10:19:02Z</time>
      </trkpt>
      <trkpt lat="43.83633" lon="6.21721">
        <ele>536</ele>
        <time>2020-06-06T10:19:09Z</time>
      </trkpt>
      <trkpt lat="43.83627" lon="6.21732">
        <ele>536.1</ele>
        <time>2020-06-06T10:19:16Z</time>
      </trkpt>
      <trkpt lat="43.83623" lon="6.21743">
        <ele>536</ele>
        <time>2020-06-06T10:19:23Z</time>
      </trkpt>
      <trkpt lat="43.83618" lon="6.21754">
        <ele>535.9</ele>
        <time>2020-06-06T10:19:30Z</time>
      </trkpt>
      <trkpt lat="43.83612" lon="6.21765">
        <ele>535.8</ele>
        <time>2020-06-06T10:19:38Z</time>
      </trkpt>
      <trkpt lat="43.83604" lon="6.21773">
        <ele>535.5</ele>
        <time>2020-06-06T10:19:45Z</time>
      </trkpt>
      <trkpt lat="43.83595" lon="6.21777">
        <ele>535</ele>
        <time>2020-06-06T10:19:53Z</time>
      </trkpt>
      <trkpt lat="43.83586" lon="6.21777">
        <ele>534.3</ele>
        <time>2020-06-06T10:19:58Z</time>
      </trkpt>
      <trkpt lat="43.83576" lon="6.21779">
        <ele>533.7</ele>
        <time>2020-06-06T10:20:04Z</time>
      </trkpt>
      <trkpt lat="43.83565" lon="6.21782">
        <ele>533.4</ele>
        <time>2020-06-06T10:20:10Z</time>
      </trkpt>
      <trkpt lat="43.83555" lon="6.21784">
        <ele>533</ele>
        <time>2020-06-06T10:20:16Z</time>
      </trkpt>
      <trkpt lat="43.83545" lon="6.21785">
        <ele>532.7</ele>
        <time>2020-06-06T10:20:22Z</time>
      </trkpt>
      <trkpt lat="43.83535" lon="6.21789">
        <ele>532.4</ele>
        <time>2020-06-06T10:20:28Z</time>
      </trkpt>
      <trkpt lat="43.83527" lon="6.21792">
        <ele>531.9</ele>
        <time>2020-06-06T10:20:55Z</time>
      </trkpt>
      <trkpt lat="43.83517" lon="6.21792">
        <ele>531.9</ele>
        <time>2020-06-06T10:21:08Z</time>
      </trkpt>
      <trkpt lat="43.83508" lon="6.21789">
        <ele>531.9</ele>
        <time>2020-06-06T10:21:17Z</time>
      </trkpt>
      <trkpt lat="43.83499" lon="6.21784">
        <ele>532.1</ele>
        <time>2020-06-06T10:21:29Z</time>
      </trkpt>
      <trkpt lat="43.8349" lon="6.21782">
        <ele>532.5</ele>
        <time>2020-06-06T10:21:36Z</time>
      </trkpt>
      <trkpt lat="43.8348" lon="6.21779">
        <ele>532.5</ele>
        <time>2020-06-06T10:21:43Z</time>
      </trkpt>
      <trkpt lat="43.83471" lon="6.21777">
        <ele>532.5</ele>
        <time>2020-06-06T10:21:50Z</time>
      </trkpt>
      <trkpt lat="43.83462" lon="6.21774">
        <ele>532.6</ele>
        <time>2020-06-06T10:22:16Z</time>
      </trkpt>
      <trkpt lat="43.83452" lon="6.21772">
        <ele>532.3</ele>
        <time>2020-06-06T10:22:24Z</time>
      </trkpt>
      <trkpt lat="43.83443" lon="6.21768">
        <ele>532.2</ele>
        <time>2020-06-06T10:22:30Z</time>
      </trkpt>
      <trkpt lat="43.83433" lon="6.21767">
        <ele>532.1</ele>
        <time>2020-06-06T10:22:38Z</time>
      </trkpt>
      <trkpt lat="43.83423" lon="6.21765">
        <ele>532</ele>
        <time>2020-06-06T10:22:45Z</time>
      </trkpt>
      <trkpt lat="43.83413" lon="6.21764">
        <ele>531.6</ele>
        <time>2020-06-06T10:22:53Z</time>
      </trkpt>
      <trkpt lat="43.83404" lon="6.21763">
        <ele>531.4</ele>
        <time>2020-06-06T10:23:00Z</time>
      </trkpt>
      <trkpt lat="43.83394" lon="6.21762">
        <ele>531.3</ele>
        <time>2020-06-06T10:23:07Z</time>
      </trkpt>
      <trkpt lat="43.83385" lon="6.21761">
        <ele>531.3</ele>
        <time>2020-06-06T10:23:14Z</time>
      </trkpt>
      <trkpt lat="43.83375" lon="6.21758">
        <ele>531.3</ele>
        <time>2020-06-06T10:23:21Z</time>
      </trkpt>
      <trkpt lat="43.83366" lon="6.21755">
        <ele>531.2</ele>
        <time>2020-06-06T10:23:28Z</time>
      </trkpt>
      <trkpt lat="43.83356" lon="6.21753">
        <ele>531.2</ele>
        <time>2020-06-06T10:23:35Z</time>
      </trkpt>
      <trkpt lat="43.83346" lon="6.21751">
        <ele>531.2</ele>
        <time>2020-06-06T10:23:42Z</time>
      </trkpt>
      <trkpt lat="43.83337" lon="6.21749">
        <ele>531.1</ele>
        <time>2020-06-06T10:23:49Z</time>
      </trkpt>
      <trkpt lat="43.83326" lon="6.21748">
        <ele>531</ele>
        <time>2020-06-06T10:23:56Z</time>
      </trkpt>
      <trkpt lat="43.83317" lon="6.21746">
        <ele>530.9</ele>
        <time>2020-06-06T10:24:02Z</time>
      </trkpt>
      <trkpt lat="43.83307" lon="6.21744">
        <ele>530.8</ele>
        <time>2020-06-06T10:24:09Z</time>
      </trkpt>
      <trkpt lat="43.83297" lon="6.21741">
        <ele>530.8</ele>
        <time>2020-06-06T10:24:16Z</time>
      </trkpt>
      <trkpt lat="43.83288" lon="6.2174">
        <ele>530.6</ele>
        <time>2020-06-06T10:24:23Z</time>
      </trkpt>
      <trkpt lat="43.83278" lon="6.21739">
        <ele>530.6</ele>
        <time>2020-06-06T10:24:30Z</time>
      </trkpt>
      <trkpt lat="43.83268" lon="6.21741">
        <ele>530.5</ele>
        <time>2020-06-06T10:24:37Z</time>
      </trkpt>
      <trkpt lat="43.83258" lon="6.21742">
        <ele>530.6</ele>
        <time>2020-06-06T10:24:44Z</time>
      </trkpt>
      <trkpt lat="43.83249" lon="6.21744">
        <ele>530.6</ele>
        <time>2020-06-06T10:24:51Z</time>
      </trkpt>
      <trkpt lat="43.8324" lon="6.21746">
        <ele>530.5</ele>
        <time>2020-06-06T10:24:58Z</time>
      </trkpt>
      <trkpt lat="43.83229" lon="6.21749">
        <ele>530.4</ele>
        <time>2020-06-06T10:25:05Z</time>
      </trkpt>
      <trkpt lat="43.8322" lon="6.21753">
        <ele>530.4</ele>
        <time>2020-06-06T10:25:12Z</time>
      </trkpt>
      <trkpt lat="43.83211" lon="6.21757">
        <ele>530.4</ele>
        <time>2020-06-06T10:25:19Z</time>
      </trkpt>
      <trkpt lat="43.83202" lon="6.21762">
        <ele>530.3</ele>
        <time>2020-06-06T10:25:26Z</time>
      </trkpt>
      <trkpt lat="43.83193" lon="6.21766">
        <ele>530.1</ele>
        <time>2020-06-06T10:25:33Z</time>
      </trkpt>
      <trkpt lat="43.83183" lon="6.21771">
        <ele>529.8</ele>
        <time>2020-06-06T10:25:40Z</time>
      </trkpt>
      <trkpt lat="43.83174" lon="6.21776">
        <ele>529.7</ele>
        <time>2020-06-06T10:25:47Z</time>
      </trkpt>
      <trkpt lat="43.83171" lon="6.21789">
        <ele>529.6</ele>
        <time>2020-06-06T10:25:54Z</time>
      </trkpt>
      <trkpt lat="43.83168" lon="6.21801">
        <ele>529.1</ele>
        <time>2020-06-06T10:26:00Z</time>
      </trkpt>
      <trkpt lat="43.83163" lon="6.21814">
        <ele>528.7</ele>
        <time>2020-06-06T10:26:07Z</time>
      </trkpt>
      <trkpt lat="43.83157" lon="6.21826">
        <ele>528.6</ele>
        <time>2020-06-06T10:26:14Z</time>
      </trkpt>
      <trkpt lat="43.83152" lon="6.21838">
        <ele>528.6</ele>
        <time>2020-06-06T10:26:21Z</time>
      </trkpt>
      <trkpt lat="43.83147" lon="6.21849">
        <ele>528.7</ele>
        <time>2020-06-06T10:26:27Z</time>
      </trkpt>
      <trkpt lat="43.8314" lon="6.21863">
        <ele>528.8</ele>
        <time>2020-06-06T10:26:30Z</time>
      </trkpt>
      <trkpt lat="43.83132" lon="6.21877">
        <ele>528.7</ele>
        <time>2020-06-06T10:26:33Z</time>
      </trkpt>
      <trkpt lat="43.83124" lon="6.2189">
        <ele>528.8</ele>
        <time>2020-06-06T10:26:36Z</time>
      </trkpt>
      <trkpt lat="43.83114" lon="6.21901">
        <ele>528.7</ele>
        <time>2020-06-06T10:26:39Z</time>
      </trkpt>
      <trkpt lat="43.83104" lon="6.21907">
        <ele>528.8</ele>
        <time>2020-06-06T10:26:42Z</time>
      </trkpt>
      <trkpt lat="43.83091" lon="6.21911">
        <ele>528.5</ele>
        <time>2020-06-06T10:26:45Z</time>
      </trkpt>
      <trkpt lat="43.8308" lon="6.21914">
        <ele>528.5</ele>
        <time>2020-06-06T10:26:48Z</time>
      </trkpt>
      <trkpt lat="43.8307" lon="6.21914">
        <ele>528.3</ele>
        <time>2020-06-06T10:26:52Z</time>
      </trkpt>
      <trkpt lat="43.8306" lon="6.21911">
        <ele>528.2</ele>
        <time>2020-06-06T10:26:58Z</time>
      </trkpt>
      <trkpt lat="43.83051" lon="6.21911">
        <ele>528</ele>
        <time>2020-06-06T10:27:35Z</time>
      </trkpt>
      <trkpt lat="43.83042" lon="6.21915">
        <ele>527.8</ele>
        <time>2020-06-06T10:27:42Z</time>
      </trkpt>
      <trkpt lat="43.83032" lon="6.21912">
        <ele>527.6</ele>
        <time>2020-06-06T10:27:49Z</time>
      </trkpt>
      <trkpt lat="43.83024" lon="6.21906">
        <ele>527.5</ele>
        <time>2020-06-06T10:27:56Z</time>
      </trkpt>
      <trkpt lat="43.83014" lon="6.21902">
        <ele>527.6</ele>
        <time>2020-06-06T10:28:02Z</time>
      </trkpt>
      <trkpt lat="43.83005" lon="6.21898">
        <ele>527.4</ele>
        <time>2020-06-06T10:28:08Z</time>
      </trkpt>
      <trkpt lat="43.82995" lon="6.21895">
        <ele>526.8</ele>
        <time>2020-06-06T10:28:14Z</time>
      </trkpt>
      <trkpt lat="43.82986" lon="6.21891">
        <ele>526</ele>
        <time>2020-06-06T10:28:21Z</time>
      </trkpt>
      <trkpt lat="43.82977" lon="6.21894">
        <ele>525.4</ele>
        <time>2020-06-06T10:28:29Z</time>
      </trkpt>
      <trkpt lat="43.82968" lon="6.21902">
        <ele>525</ele>
        <time>2020-06-06T10:28:38Z</time>
      </trkpt>
      <trkpt lat="43.82961" lon="6.21911">
        <ele>524.6</ele>
        <time>2020-06-06T10:28:46Z</time>
      </trkpt>
      <trkpt lat="43.82951" lon="6.21913">
        <ele>524.4</ele>
        <time>2020-06-06T10:28:51Z</time>
      </trkpt>
      <trkpt lat="43.82944" lon="6.21923">
        <ele>524.2</ele>
        <time>2020-06-06T10:28:58Z</time>
      </trkpt>
      <trkpt lat="43.8294" lon="6.21935">
        <ele>524.1</ele>
        <time>2020-06-06T10:29:04Z</time>
      </trkpt>
      <trkpt lat="43.82936" lon="6.21948">
        <ele>523.7</ele>
        <time>2020-06-06T10:29:11Z</time>
      </trkpt>
      <trkpt lat="43.82938" lon="6.21935">
        <ele>522.7</ele>
        <time>2020-06-06T10:29:37Z</time>
      </trkpt>
      <trkpt lat="43.82941" lon="6.21921">
        <ele>522.7</ele>
        <time>2020-06-06T10:29:41Z</time>
      </trkpt>
      <trkpt lat="43.82943" lon="6.21909">
        <ele>522.8</ele>
        <time>2020-06-06T10:29:44Z</time>
      </trkpt>
      <trkpt lat="43.82936" lon="6.21899">
        <ele>522.9</ele>
        <time>2020-06-06T10:29:47Z</time>
      </trkpt>
      <trkpt lat="43.82925" lon="6.21895">
        <ele>523.1</ele>
        <time>2020-06-06T10:29:50Z</time>
      </trkpt>
      <trkpt lat="43.82916" lon="6.21893">
        <ele>523.3</ele>
        <time>2020-06-06T10:29:54Z</time>
      </trkpt>
      <trkpt lat="43.82907" lon="6.21894">
        <ele>523.5</ele>
        <time>2020-06-06T10:29:58Z</time>
      </trkpt>
      <trkpt lat="43.82897" lon="6.21896">
        <ele>523.8</ele>
        <time>2020-06-06T10:30:05Z</time>
      </trkpt>
      <trkpt lat="43.82887" lon="6.219">
        <ele>524</ele>
        <time>2020-06-06T10:30:12Z</time>
      </trkpt>
      <trkpt lat="43.82878" lon="6.21901">
        <ele>524.2</ele>
        <time>2020-06-06T10:30:19Z</time>
      </trkpt>
      <trkpt lat="43.82869" lon="6.21904">
        <ele>524.3</ele>
        <time>2020-06-06T10:30:26Z</time>
      </trkpt>
      <trkpt lat="43.82858" lon="6.21906">
        <ele>523.8</ele>
        <time>2020-06-06T10:30:33Z</time>
      </trkpt>
      <trkpt lat="43.82848" lon="6.21909">
        <ele>523.3</ele>
        <time>2020-06-06T10:30:40Z</time>
      </trkpt>
      <trkpt lat="43.82842" lon="6.21919">
        <ele>523</ele>
        <time>2020-06-06T10:30:46Z</time>
      </trkpt>
      <trkpt lat="43.82838" lon="6.21931">
        <ele>522.8</ele>
        <time>2020-06-06T10:30:53Z</time>
      </trkpt>
      <trkpt lat="43.82835" lon="6.21942">
        <ele>522.7</ele>
        <time>2020-06-06T10:31:00Z</time>
      </trkpt>
      <trkpt lat="43.82829" lon="6.21953">
        <ele>522.4</ele>
        <time>2020-06-06T10:31:06Z</time>
      </trkpt>
      <trkpt lat="43.82823" lon="6.21963">
        <ele>522.1</ele>
        <time>2020-06-06T10:31:12Z</time>
      </trkpt>
      <trkpt lat="43.82817" lon="6.21973">
        <ele>521.6</ele>
        <time>2020-06-06T10:31:19Z</time>
      </trkpt>
      <trkpt lat="43.82811" lon="6.21984">
        <ele>521.2</ele>
        <time>2020-06-06T10:31:26Z</time>
      </trkpt>
      <trkpt lat="43.82804" lon="6.21993">
        <ele>520.8</ele>
        <time>2020-06-06T10:31:34Z</time>
      </trkpt>
      <trkpt lat="43.82796" lon="6.22">
        <ele>520.7</ele>
        <time>2020-06-06T10:31:41Z</time>
      </trkpt>
      <trkpt lat="43.82788" lon="6.22006">
        <ele>520.5</ele>
        <time>2020-06-06T10:31:48Z</time>
      </trkpt>
      <trkpt lat="43.82779" lon="6.2201">
        <ele>520.1</ele>
        <time>2020-06-06T10:31:54Z</time>
      </trkpt>
      <trkpt lat="43.8277" lon="6.22014">
        <ele>519.8</ele>
        <time>2020-06-06T10:32:00Z</time>
      </trkpt>
      <trkpt lat="43.82762" lon="6.2202">
        <ele>519.2</ele>
        <time>2020-06-06T10:32:07Z</time>
      </trkpt>
      <trkpt lat="43.82753" lon="6.22028">
        <ele>518.8</ele>
        <time>2020-06-06T10:32:14Z</time>
      </trkpt>
      <trkpt lat="43.82745" lon="6.22036">
        <ele>518.6</ele>
        <time>2020-06-06T10:32:21Z</time>
      </trkpt>
      <trkpt lat="43.82738" lon="6.22046">
        <ele>518.4</ele>
        <time>2020-06-06T10:32:28Z</time>
      </trkpt>
      <trkpt lat="43.82732" lon="6.22057">
        <ele>517.8</ele>
        <time>2020-06-06T10:32:35Z</time>
      </trkpt>
      <trkpt lat="43.82726" lon="6.22068">
        <ele>517.3</ele>
        <time>2020-06-06T10:32:42Z</time>
      </trkpt>
      <trkpt lat="43.82716" lon="6.22073">
        <ele>517</ele>
        <time>2020-06-06T10:32:49Z</time>
      </trkpt>
      <trkpt lat="43.82705" lon="6.22072">
        <ele>516.8</ele>
        <time>2020-06-06T10:32:55Z</time>
      </trkpt>
      <trkpt lat="43.82696" lon="6.22069">
        <ele>516.7</ele>
        <time>2020-06-06T10:33:01Z</time>
      </trkpt>
      <trkpt lat="43.82686" lon="6.22065">
        <ele>516.3</ele>
        <time>2020-06-06T10:33:08Z</time>
      </trkpt>
      <trkpt lat="43.82677" lon="6.22061">
        <ele>516.1</ele>
        <time>2020-06-06T10:33:14Z</time>
      </trkpt>
      <trkpt lat="43.82668" lon="6.22057">
        <ele>515.9</ele>
        <time>2020-06-06T10:33:20Z</time>
      </trkpt>
      <trkpt lat="43.82659" lon="6.22056">
        <ele>515.8</ele>
        <time>2020-06-06T10:33:26Z</time>
      </trkpt>
      <trkpt lat="43.82649" lon="6.22053">
        <ele>515.8</ele>
        <time>2020-06-06T10:33:33Z</time>
      </trkpt>
      <trkpt lat="43.82639" lon="6.22049">
        <ele>516</ele>
        <time>2020-06-06T10:33:40Z</time>
      </trkpt>
      <trkpt lat="43.82631" lon="6.22044">
        <ele>516.2</ele>
        <time>2020-06-06T10:33:46Z</time>
      </trkpt>
      <trkpt lat="43.82622" lon="6.2204">
        <ele>516.5</ele>
        <time>2020-06-06T10:33:52Z</time>
      </trkpt>
      <trkpt lat="43.82614" lon="6.22036">
        <ele>516.7</ele>
        <time>2020-06-06T10:33:58Z</time>
      </trkpt>
      <trkpt lat="43.82604" lon="6.22032">
        <ele>517</ele>
        <time>2020-06-06T10:34:05Z</time>
      </trkpt>
      <trkpt lat="43.82594" lon="6.2203">
        <ele>517.2</ele>
        <time>2020-06-06T10:34:12Z</time>
      </trkpt>
      <trkpt lat="43.82584" lon="6.22027">
        <ele>517.4</ele>
        <time>2020-06-06T10:34:19Z</time>
      </trkpt>
      <trkpt lat="43.82575" lon="6.22024">
        <ele>517.7</ele>
        <time>2020-06-06T10:34:25Z</time>
      </trkpt>
      <trkpt lat="43.82565" lon="6.22027">
        <ele>518.2</ele>
        <time>2020-06-06T10:34:33Z</time>
      </trkpt>
      <trkpt lat="43.82556" lon="6.2203">
        <ele>518.7</ele>
        <time>2020-06-06T10:34:40Z</time>
      </trkpt>
      <trkpt lat="43.82546" lon="6.22032">
        <ele>519</ele>
        <time>2020-06-06T10:34:47Z</time>
      </trkpt>
      <trkpt lat="43.82537" lon="6.22032">
        <ele>519.1</ele>
        <time>2020-06-06T10:34:53Z</time>
      </trkpt>
      <trkpt lat="43.82527" lon="6.22034">
        <ele>519.2</ele>
        <time>2020-06-06T10:35:00Z</time>
      </trkpt>
      <trkpt lat="43.82517" lon="6.22037">
        <ele>519</ele>
        <time>2020-06-06T10:35:07Z</time>
      </trkpt>
      <trkpt lat="43.82507" lon="6.2204">
        <ele>518.7</ele>
        <time>2020-06-06T10:35:14Z</time>
      </trkpt>
      <trkpt lat="43.82497" lon="6.22042">
        <ele>518.4</ele>
        <time>2020-06-06T10:35:21Z</time>
      </trkpt>
      <trkpt lat="43.82487" lon="6.22046">
        <ele>518</ele>
        <time>2020-06-06T10:35:28Z</time>
      </trkpt>
      <trkpt lat="43.82477" lon="6.22048">
        <ele>517.6</ele>
        <time>2020-06-06T10:35:34Z</time>
      </trkpt>
      <trkpt lat="43.82468" lon="6.22051">
        <ele>517.1</ele>
        <time>2020-06-06T10:35:41Z</time>
      </trkpt>
      <trkpt lat="43.82459" lon="6.22052">
        <ele>516.3</ele>
        <time>2020-06-06T10:35:47Z</time>
      </trkpt>
      <trkpt lat="43.82449" lon="6.22056">
        <ele>515.7</ele>
        <time>2020-06-06T10:35:53Z</time>
      </trkpt>
      <trkpt lat="43.8244" lon="6.22058">
        <ele>515.2</ele>
        <time>2020-06-06T10:35:59Z</time>
      </trkpt>
      <trkpt lat="43.82432" lon="6.22066">
        <ele>514.7</ele>
        <time>2020-06-06T10:36:07Z</time>
      </trkpt>
      <trkpt lat="43.82427" lon="6.22077">
        <ele>514.1</ele>
        <time>2020-06-06T10:36:14Z</time>
      </trkpt>
      <trkpt lat="43.82423" lon="6.2209">
        <ele>513.7</ele>
        <time>2020-06-06T10:36:20Z</time>
      </trkpt>
      <trkpt lat="43.82417" lon="6.22104">
        <ele>513.4</ele>
        <time>2020-06-06T10:36:27Z</time>
      </trkpt>
      <trkpt lat="43.82413" lon="6.22116">
        <ele>512.9</ele>
        <time>2020-06-06T10:36:33Z</time>
      </trkpt>
      <trkpt lat="43.82407" lon="6.22127">
        <ele>512.3</ele>
        <time>2020-06-06T10:36:39Z</time>
      </trkpt>
      <trkpt lat="43.824" lon="6.22134">
        <ele>511.7</ele>
        <time>2020-06-06T10:36:45Z</time>
      </trkpt>
      <trkpt lat="43.82389" lon="6.22134">
        <ele>510.6</ele>
        <time>2020-06-06T10:36:52Z</time>
      </trkpt>
      <trkpt lat="43.82379" lon="6.2213">
        <ele>509.7</ele>
        <time>2020-06-06T10:36:57Z</time>
      </trkpt>
      <trkpt lat="43.8237" lon="6.22128">
        <ele>508.8</ele>
        <time>2020-06-06T10:37:05Z</time>
      </trkpt>
      <trkpt lat="43.82361" lon="6.22127">
        <ele>507.9</ele>
        <time>2020-06-06T10:37:14Z</time>
      </trkpt>
      <trkpt lat="43.82353" lon="6.22133">
        <ele>507.4</ele>
        <time>2020-06-06T10:37:21Z</time>
      </trkpt>
      <trkpt lat="43.82346" lon="6.22143">
        <ele>507.2</ele>
        <time>2020-06-06T10:37:26Z</time>
      </trkpt>
      <trkpt lat="43.82339" lon="6.22151">
        <ele>507</ele>
        <time>2020-06-06T10:37:33Z</time>
      </trkpt>
      <trkpt lat="43.82332" lon="6.2216">
        <ele>506.9</ele>
        <time>2020-06-06T10:37:39Z</time>
      </trkpt>
      <trkpt lat="43.82328" lon="6.22171">
        <ele>506.9</ele>
        <time>2020-06-06T10:37:45Z</time>
      </trkpt>
      <trkpt lat="43.82325" lon="6.22183">
        <ele>506.6</ele>
        <time>2020-06-06T10:37:51Z</time>
      </trkpt>
      <trkpt lat="43.82319" lon="6.22194">
        <ele>506.3</ele>
        <time>2020-06-06T10:37:57Z</time>
      </trkpt>
      <trkpt lat="43.82309" lon="6.22194">
        <ele>506.1</ele>
        <time>2020-06-06T10:38:03Z</time>
      </trkpt>
      <trkpt lat="43.82298" lon="6.22195">
        <ele>505.8</ele>
        <time>2020-06-06T10:38:09Z</time>
      </trkpt>
      <trkpt lat="43.82289" lon="6.22197">
        <ele>505.6</ele>
        <time>2020-06-06T10:38:14Z</time>
      </trkpt>
      <trkpt lat="43.8228" lon="6.22202">
        <ele>505.3</ele>
        <time>2020-06-06T10:38:20Z</time>
      </trkpt>
      <trkpt lat="43.82271" lon="6.22207">
        <ele>505</ele>
        <time>2020-06-06T10:38:26Z</time>
      </trkpt>
      <trkpt lat="43.82261" lon="6.22215">
        <ele>504.9</ele>
        <time>2020-06-06T10:38:33Z</time>
      </trkpt>
      <trkpt lat="43.82252" lon="6.22219">
        <ele>504.8</ele>
        <time>2020-06-06T10:38:39Z</time>
      </trkpt>
      <trkpt lat="43.82242" lon="6.22222">
        <ele>504.7</ele>
        <time>2020-06-06T10:38:46Z</time>
      </trkpt>
      <trkpt lat="43.82233" lon="6.22221">
        <ele>504.7</ele>
        <time>2020-06-06T10:38:51Z</time>
      </trkpt>
      <trkpt lat="43.82223" lon="6.2222">
        <ele>504.6</ele>
        <time>2020-06-06T10:38:57Z</time>
      </trkpt>
      <trkpt lat="43.82213" lon="6.22221">
        <ele>504.6</ele>
        <time>2020-06-06T10:39:04Z</time>
      </trkpt>
      <trkpt lat="43.82203" lon="6.22224">
        <ele>504.3</ele>
        <time>2020-06-06T10:39:10Z</time>
      </trkpt>
      <trkpt lat="43.82192" lon="6.22228">
        <ele>504.1</ele>
        <time>2020-06-06T10:39:17Z</time>
      </trkpt>
      <trkpt lat="43.82182" lon="6.22233">
        <ele>504</ele>
        <time>2020-06-06T10:39:22Z</time>
      </trkpt>
      <trkpt lat="43.82172" lon="6.22233">
        <ele>503.7</ele>
        <time>2020-06-06T10:39:27Z</time>
      </trkpt>
      <trkpt lat="43.82162" lon="6.22234">
        <ele>503.5</ele>
        <time>2020-06-06T10:39:33Z</time>
      </trkpt>
      <trkpt lat="43.82153" lon="6.22237">
        <ele>503.3</ele>
        <time>2020-06-06T10:39:39Z</time>
      </trkpt>
      <trkpt lat="43.82143" lon="6.22239">
        <ele>503.1</ele>
        <time>2020-06-06T10:39:45Z</time>
      </trkpt>
      <trkpt lat="43.82133" lon="6.22242">
        <ele>502.9</ele>
        <time>2020-06-06T10:39:52Z</time>
      </trkpt>
      <trkpt lat="43.82124" lon="6.22245">
        <ele>502.8</ele>
        <time>2020-06-06T10:39:58Z</time>
      </trkpt>
      <trkpt lat="43.82115" lon="6.2225">
        <ele>502.7</ele>
        <time>2020-06-06T10:40:04Z</time>
      </trkpt>
      <trkpt lat="43.82106" lon="6.22257">
        <ele>502.6</ele>
        <time>2020-06-06T10:40:11Z</time>
      </trkpt>
      <trkpt lat="43.82098" lon="6.22265">
        <ele>502.4</ele>
        <time>2020-06-06T10:40:18Z</time>
      </trkpt>
      <trkpt lat="43.82089" lon="6.22272">
        <ele>502.2</ele>
        <time>2020-06-06T10:40:25Z</time>
      </trkpt>
      <trkpt lat="43.8208" lon="6.22278">
        <ele>502.2</ele>
        <time>2020-06-06T10:40:32Z</time>
      </trkpt>
      <trkpt lat="43.82072" lon="6.22283">
        <ele>502.2</ele>
        <time>2020-06-06T10:40:38Z</time>
      </trkpt>
      <trkpt lat="43.82062" lon="6.22287">
        <ele>502.2</ele>
        <time>2020-06-06T10:40:45Z</time>
      </trkpt>
      <trkpt lat="43.82054" lon="6.22292">
        <ele>502.3</ele>
        <time>2020-06-06T10:40:52Z</time>
      </trkpt>
      <trkpt lat="43.82045" lon="6.22299">
        <ele>502.3</ele>
        <time>2020-06-06T10:40:59Z</time>
      </trkpt>
      <trkpt lat="43.82037" lon="6.22305">
        <ele>502.3</ele>
        <time>2020-06-06T10:41:05Z</time>
      </trkpt>
      <trkpt lat="43.82029" lon="6.2231">
        <ele>502.4</ele>
        <time>2020-06-06T10:41:11Z</time>
      </trkpt>
      <trkpt lat="43.82019" lon="6.22314">
        <ele>502.4</ele>
        <time>2020-06-06T10:41:17Z</time>
      </trkpt>
      <trkpt lat="43.8201" lon="6.22318">
        <ele>502.4</ele>
        <time>2020-06-06T10:41:23Z</time>
      </trkpt>
      <trkpt lat="43.82" lon="6.22321">
        <ele>502.6</ele>
        <time>2020-06-06T10:41:30Z</time>
      </trkpt>
      <trkpt lat="43.81989" lon="6.22323">
        <ele>502.7</ele>
        <time>2020-06-06T10:41:36Z</time>
      </trkpt>
      <trkpt lat="43.81979" lon="6.2232">
        <ele>502.8</ele>
        <time>2020-06-06T10:41:42Z</time>
      </trkpt>
      <trkpt lat="43.8197" lon="6.22321">
        <ele>502.9</ele>
        <time>2020-06-06T10:41:49Z</time>
      </trkpt>
      <trkpt lat="43.81961" lon="6.22327">
        <ele>503</ele>
        <time>2020-06-06T10:41:56Z</time>
      </trkpt>
      <trkpt lat="43.81952" lon="6.22333">
        <ele>503</ele>
        <time>2020-06-06T10:42:02Z</time>
      </trkpt>
      <trkpt lat="43.81947" lon="6.22344">
        <ele>502.4</ele>
        <time>2020-06-06T10:42:08Z</time>
      </trkpt>
      <trkpt lat="43.8194" lon="6.22352">
        <ele>502</ele>
        <time>2020-06-06T10:42:14Z</time>
      </trkpt>
      <trkpt lat="43.81934" lon="6.22362">
        <ele>501.3</ele>
        <time>2020-06-06T10:42:20Z</time>
      </trkpt>
      <trkpt lat="43.81928" lon="6.22372">
        <ele>500.7</ele>
        <time>2020-06-06T10:42:26Z</time>
      </trkpt>
      <trkpt lat="43.81922" lon="6.22382">
        <ele>499.9</ele>
        <time>2020-06-06T10:42:32Z</time>
      </trkpt>
      <trkpt lat="43.81914" lon="6.2239">
        <ele>498.9</ele>
        <time>2020-06-06T10:42:39Z</time>
      </trkpt>
      <trkpt lat="43.81905" lon="6.22395">
        <ele>498.4</ele>
        <time>2020-06-06T10:42:45Z</time>
      </trkpt>
      <trkpt lat="43.81896" lon="6.22399">
        <ele>497.9</ele>
        <time>2020-06-06T10:42:52Z</time>
      </trkpt>
      <trkpt lat="43.81892" lon="6.22413">
        <ele>497.6</ele>
        <time>2020-06-06T10:42:56Z</time>
      </trkpt>
      <trkpt lat="43.81885" lon="6.22424">
        <ele>497.6</ele>
        <time>2020-06-06T10:43:09Z</time>
      </trkpt>
      <trkpt lat="43.81879" lon="6.22412">
        <ele>497.6</ele>
        <time>2020-06-06T10:43:21Z</time>
      </trkpt>
      <trkpt lat="43.81871" lon="6.22406">
        <ele>497.6</ele>
        <time>2020-06-06T10:43:27Z</time>
      </trkpt>
      <trkpt lat="43.8186" lon="6.22405">
        <ele>497.4</ele>
        <time>2020-06-06T10:43:33Z</time>
      </trkpt>
      <trkpt lat="43.81851" lon="6.22409">
        <ele>497.1</ele>
        <time>2020-06-06T10:43:40Z</time>
      </trkpt>
      <trkpt lat="43.81842" lon="6.22414">
        <ele>497</ele>
        <time>2020-06-06T10:43:47Z</time>
      </trkpt>
      <trkpt lat="43.81835" lon="6.22421">
        <ele>496.7</ele>
        <time>2020-06-06T10:43:53Z</time>
      </trkpt>
      <trkpt lat="43.81825" lon="6.22426">
        <ele>496.5</ele>
        <time>2020-06-06T10:44:00Z</time>
      </trkpt>
      <trkpt lat="43.81816" lon="6.22424">
        <ele>496.3</ele>
        <time>2020-06-06T10:44:06Z</time>
      </trkpt>
      <trkpt lat="43.81808" lon="6.22418">
        <ele>496.3</ele>
        <time>2020-06-06T10:44:12Z</time>
      </trkpt>
      <trkpt lat="43.81799" lon="6.22415">
        <ele>496.2</ele>
        <time>2020-06-06T10:44:18Z</time>
      </trkpt>
      <trkpt lat="43.8179" lon="6.22415">
        <ele>496.2</ele>
        <time>2020-06-06T10:44:25Z</time>
      </trkpt>
      <trkpt lat="43.8178" lon="6.22418">
        <ele>496.1</ele>
        <time>2020-06-06T10:44:32Z</time>
      </trkpt>
      <trkpt lat="43.81771" lon="6.2242">
        <ele>496.1</ele>
        <time>2020-06-06T10:44:39Z</time>
      </trkpt>
      <trkpt lat="43.81761" lon="6.22425">
        <ele>495.9</ele>
        <time>2020-06-06T10:44:46Z</time>
      </trkpt>
      <trkpt lat="43.81753" lon="6.22431">
        <ele>495.7</ele>
        <time>2020-06-06T10:44:52Z</time>
      </trkpt>
      <trkpt lat="43.81744" lon="6.22437">
        <ele>495.6</ele>
        <time>2020-06-06T10:44:58Z</time>
      </trkpt>
      <trkpt lat="43.81734" lon="6.22442">
        <ele>495.5</ele>
        <time>2020-06-06T10:45:04Z</time>
      </trkpt>
      <trkpt lat="43.81726" lon="6.2245">
        <ele>495.3</ele>
        <time>2020-06-06T10:45:11Z</time>
      </trkpt>
      <trkpt lat="43.81718" lon="6.22457">
        <ele>495.3</ele>
        <time>2020-06-06T10:45:18Z</time>
      </trkpt>
      <trkpt lat="43.81708" lon="6.2246">
        <ele>495</ele>
        <time>2020-06-06T10:45:25Z</time>
      </trkpt>
      <trkpt lat="43.81699" lon="6.22463">
        <ele>494.6</ele>
        <time>2020-06-06T10:45:33Z</time>
      </trkpt>
      <trkpt lat="43.81689" lon="6.22467">
        <ele>494.4</ele>
        <time>2020-06-06T10:45:40Z</time>
      </trkpt>
      <trkpt lat="43.81679" lon="6.22468">
        <ele>494.3</ele>
        <time>2020-06-06T10:45:46Z</time>
      </trkpt>
      <trkpt lat="43.8167" lon="6.22467">
        <ele>494.4</ele>
        <time>2020-06-06T10:45:52Z</time>
      </trkpt>
      <trkpt lat="43.8166" lon="6.22466">
        <ele>494.5</ele>
        <time>2020-06-06T10:45:58Z</time>
      </trkpt>
      <trkpt lat="43.81651" lon="6.22471">
        <ele>494.6</ele>
        <time>2020-06-06T10:46:04Z</time>
      </trkpt>
      <trkpt lat="43.81642" lon="6.22477">
        <ele>494.6</ele>
        <time>2020-06-06T10:46:11Z</time>
      </trkpt>
      <trkpt lat="43.81634" lon="6.22484">
        <ele>494.4</ele>
        <time>2020-06-06T10:46:18Z</time>
      </trkpt>
      <trkpt lat="43.81627" lon="6.22494">
        <ele>494.2</ele>
        <time>2020-06-06T10:46:25Z</time>
      </trkpt>
      <trkpt lat="43.81618" lon="6.22502">
        <ele>494.1</ele>
        <time>2020-06-06T10:46:31Z</time>
      </trkpt>
      <trkpt lat="43.81611" lon="6.22509">
        <ele>494</ele>
        <time>2020-06-06T10:46:37Z</time>
      </trkpt>
      <trkpt lat="43.81602" lon="6.22515">
        <ele>494.2</ele>
        <time>2020-06-06T10:46:44Z</time>
      </trkpt>
      <trkpt lat="43.81595" lon="6.22524">
        <ele>494.5</ele>
        <time>2020-06-06T10:46:52Z</time>
      </trkpt>
      <trkpt lat="43.8159" lon="6.22537">
        <ele>494.7</ele>
        <time>2020-06-06T10:46:59Z</time>
      </trkpt>
      <trkpt lat="43.81584" lon="6.22548">
        <ele>494.8</ele>
        <time>2020-06-06T10:47:05Z</time>
      </trkpt>
      <trkpt lat="43.81575" lon="6.22552">
        <ele>494.8</ele>
        <time>2020-06-06T10:47:10Z</time>
      </trkpt>
      <trkpt lat="43.81565" lon="6.22553">
        <ele>494.5</ele>
        <time>2020-06-06T10:47:16Z</time>
      </trkpt>
      <trkpt lat="43.81555" lon="6.22557">
        <ele>494.4</ele>
        <time>2020-06-06T10:47:20Z</time>
      </trkpt>
      <trkpt lat="43.81546" lon="6.22559">
        <ele>494.4</ele>
        <time>2020-06-06T10:47:23Z</time>
      </trkpt>
      <trkpt lat="43.81536" lon="6.22566">
        <ele>493.9</ele>
        <time>2020-06-06T10:47:27Z</time>
      </trkpt>
      <trkpt lat="43.81527" lon="6.22571">
        <ele>493.5</ele>
        <time>2020-06-06T10:47:31Z</time>
      </trkpt>
      <trkpt lat="43.81517" lon="6.22577">
        <ele>493.3</ele>
        <time>2020-06-06T10:47:35Z</time>
      </trkpt>
      <trkpt lat="43.81511" lon="6.22587">
        <ele>493</ele>
        <time>2020-06-06T10:47:41Z</time>
      </trkpt>
      <trkpt lat="43.81503" lon="6.22595">
        <ele>492.9</ele>
        <time>2020-06-06T10:47:49Z</time>
      </trkpt>
      <trkpt lat="43.81493" lon="6.22598">
        <ele>492.9</ele>
        <time>2020-06-06T10:47:56Z</time>
      </trkpt>
      <trkpt lat="43.81483" lon="6.22594">
        <ele>492.9</ele>
        <time>2020-06-06T10:48:02Z</time>
      </trkpt>
      <trkpt lat="43.81476" lon="6.22583">
        <ele>493</ele>
        <time>2020-06-06T10:48:09Z</time>
      </trkpt>
      <trkpt lat="43.81474" lon="6.2257">
        <ele>493</ele>
        <time>2020-06-06T10:48:16Z</time>
      </trkpt>
      <trkpt lat="43.81471" lon="6.22557">
        <ele>493.1</ele>
        <time>2020-06-06T10:48:22Z</time>
      </trkpt>
      <trkpt lat="43.81467" lon="6.22543">
        <ele>493.1</ele>
        <time>2020-06-06T10:48:28Z</time>
      </trkpt>
      <trkpt lat="43.81463" lon="6.2253">
        <ele>493.2</ele>
        <time>2020-06-06T10:48:32Z</time>
      </trkpt>
      <trkpt lat="43.81455" lon="6.22523">
        <ele>493.2</ele>
        <time>2020-06-06T10:48:38Z</time>
      </trkpt>
      <trkpt lat="43.81445" lon="6.22525">
        <ele>493.3</ele>
        <time>2020-06-06T10:48:45Z</time>
      </trkpt>
      <trkpt lat="43.81436" lon="6.22528">
        <ele>493.2</ele>
        <time>2020-06-06T10:48:52Z</time>
      </trkpt>
      <trkpt lat="43.81427" lon="6.22531">
        <ele>493</ele>
        <time>2020-06-06T10:48:58Z</time>
      </trkpt>
      <trkpt lat="43.81417" lon="6.22533">
        <ele>492.8</ele>
        <time>2020-06-06T10:49:05Z</time>
      </trkpt>
      <trkpt lat="43.81408" lon="6.22536">
        <ele>492.6</ele>
        <time>2020-06-06T10:49:12Z</time>
      </trkpt>
      <trkpt lat="43.81399" lon="6.22539">
        <ele>492.5</ele>
        <time>2020-06-06T10:49:18Z</time>
      </trkpt>
      <trkpt lat="43.8139" lon="6.22541">
        <ele>492</ele>
        <time>2020-06-06T10:49:25Z</time>
      </trkpt>
      <trkpt lat="43.8138" lon="6.2254">
        <ele>491.7</ele>
        <time>2020-06-06T10:49:31Z</time>
      </trkpt>
      <trkpt lat="43.8137" lon="6.22536">
        <ele>491.6</ele>
        <time>2020-06-06T10:49:36Z</time>
      </trkpt>
      <trkpt lat="43.8136" lon="6.22533">
        <ele>491.2</ele>
        <time>2020-06-06T10:49:43Z</time>
      </trkpt>
      <trkpt lat="43.8135" lon="6.22533">
        <ele>490.7</ele>
        <time>2020-06-06T10:49:50Z</time>
      </trkpt>
      <trkpt lat="43.81341" lon="6.22536">
        <ele>490.3</ele>
        <time>2020-06-06T10:49:56Z</time>
      </trkpt>
      <trkpt lat="43.81332" lon="6.22538">
        <ele>489.9</ele>
        <time>2020-06-06T10:50:02Z</time>
      </trkpt>
      <trkpt lat="43.81322" lon="6.22541">
        <ele>489.6</ele>
        <time>2020-06-06T10:50:09Z</time>
      </trkpt>
      <trkpt lat="43.81312" lon="6.2254">
        <ele>489.5</ele>
        <time>2020-06-06T10:50:15Z</time>
      </trkpt>
      <trkpt lat="43.81302" lon="6.22535">
        <ele>489.5</ele>
        <time>2020-06-06T10:50:22Z</time>
      </trkpt>
      <trkpt lat="43.81292" lon="6.22532">
        <ele>489.3</ele>
        <time>2020-06-06T10:50:27Z</time>
      </trkpt>
      <trkpt lat="43.81284" lon="6.22527">
        <ele>489.4</ele>
        <time>2020-06-06T10:50:33Z</time>
      </trkpt>
      <trkpt lat="43.81275" lon="6.22522">
        <ele>489.5</ele>
        <time>2020-06-06T10:50:38Z</time>
      </trkpt>
      <trkpt lat="43.81266" lon="6.22515">
        <ele>489.4</ele>
        <time>2020-06-06T10:50:44Z</time>
      </trkpt>
      <trkpt lat="43.81257" lon="6.22512">
        <ele>489.1</ele>
        <time>2020-06-06T10:50:50Z</time>
      </trkpt>
      <trkpt lat="43.81247" lon="6.22512">
        <ele>488.8</ele>
        <time>2020-06-06T10:50:58Z</time>
      </trkpt>
      <trkpt lat="43.81237" lon="6.22513">
        <ele>488.7</ele>
        <time>2020-06-06T10:51:04Z</time>
      </trkpt>
      <trkpt lat="43.81227" lon="6.22514">
        <ele>488.7</ele>
        <time>2020-06-06T10:51:10Z</time>
      </trkpt>
      <trkpt lat="43.81218" lon="6.2251">
        <ele>488.7</ele>
        <time>2020-06-06T10:51:15Z</time>
      </trkpt>
      <trkpt lat="43.81208" lon="6.22507">
        <ele>488.7</ele>
        <time>2020-06-06T10:51:22Z</time>
      </trkpt>
      <trkpt lat="43.81199" lon="6.22507">
        <ele>488.7</ele>
        <time>2020-06-06T10:51:29Z</time>
      </trkpt>
      <trkpt lat="43.8119" lon="6.2251">
        <ele>488.7</ele>
        <time>2020-06-06T10:51:36Z</time>
      </trkpt>
      <trkpt lat="43.81181" lon="6.22516">
        <ele>488.5</ele>
        <time>2020-06-06T10:51:43Z</time>
      </trkpt>
      <trkpt lat="43.81172" lon="6.22523">
        <ele>488.1</ele>
        <time>2020-06-06T10:51:50Z</time>
      </trkpt>
      <trkpt lat="43.81162" lon="6.22527">
        <ele>487.9</ele>
        <time>2020-06-06T10:51:57Z</time>
      </trkpt>
      <trkpt lat="43.81153" lon="6.22529">
        <ele>487.8</ele>
        <time>2020-06-06T10:52:03Z</time>
      </trkpt>
      <trkpt lat="43.81144" lon="6.2253">
        <ele>487.7</ele>
        <time>2020-06-06T10:52:09Z</time>
      </trkpt>
      <trkpt lat="43.81133" lon="6.22531">
        <ele>487.7</ele>
        <time>2020-06-06T10:52:16Z</time>
      </trkpt>
      <trkpt lat="43.81124" lon="6.22528">
        <ele>487.6</ele>
        <time>2020-06-06T10:52:22Z</time>
      </trkpt>
      <trkpt lat="43.81114" lon="6.22523">
        <ele>487.6</ele>
        <time>2020-06-06T10:52:29Z</time>
      </trkpt>
      <trkpt lat="43.81105" lon="6.22518">
        <ele>487.6</ele>
        <time>2020-06-06T10:52:36Z</time>
      </trkpt>
      <trkpt lat="43.81097" lon="6.22511">
        <ele>487.6</ele>
        <time>2020-06-06T10:52:42Z</time>
      </trkpt>
      <trkpt lat="43.81088" lon="6.22504">
        <ele>487.6</ele>
        <time>2020-06-06T10:52:48Z</time>
      </trkpt>
      <trkpt lat="43.81079" lon="6.22501">
        <ele>487.7</ele>
        <time>2020-06-06T10:52:55Z</time>
      </trkpt>
      <trkpt lat="43.8107" lon="6.22499">
        <ele>487.9</ele>
        <time>2020-06-06T10:53:01Z</time>
      </trkpt>
      <trkpt lat="43.8106" lon="6.22498">
        <ele>488</ele>
        <time>2020-06-06T10:53:07Z</time>
      </trkpt>
      <trkpt lat="43.81051" lon="6.22498">
        <ele>488.1</ele>
        <time>2020-06-06T10:53:13Z</time>
      </trkpt>
      <trkpt lat="43.81041" lon="6.22499">
        <ele>488.2</ele>
        <time>2020-06-06T10:53:20Z</time>
      </trkpt>
      <trkpt lat="43.81031" lon="6.22502">
        <ele>488.3</ele>
        <time>2020-06-06T10:53:27Z</time>
      </trkpt>
      <trkpt lat="43.81021" lon="6.22506">
        <ele>488.3</ele>
        <time>2020-06-06T10:53:34Z</time>
      </trkpt>
      <trkpt lat="43.81011" lon="6.22507">
        <ele>488.3</ele>
        <time>2020-06-06T10:53:40Z</time>
      </trkpt>
      <trkpt lat="43.81002" lon="6.22509">
        <ele>488.2</ele>
        <time>2020-06-06T10:53:47Z</time>
      </trkpt>
      <trkpt lat="43.80993" lon="6.22511">
        <ele>488</ele>
        <time>2020-06-06T10:53:53Z</time>
      </trkpt>
      <trkpt lat="43.80982" lon="6.2251">
        <ele>487.8</ele>
        <time>2020-06-06T10:53:59Z</time>
      </trkpt>
      <trkpt lat="43.80973" lon="6.22505">
        <ele>487.8</ele>
        <time>2020-06-06T10:54:05Z</time>
      </trkpt>
      <trkpt lat="43.80965" lon="6.22496">
        <ele>487.8</ele>
        <time>2020-06-06T10:54:12Z</time>
      </trkpt>
      <trkpt lat="43.80956" lon="6.22488">
        <ele>487.7</ele>
        <time>2020-06-06T10:54:18Z</time>
      </trkpt>
      <trkpt lat="43.80947" lon="6.22482">
        <ele>487.7</ele>
        <time>2020-06-06T10:54:24Z</time>
      </trkpt>
      <trkpt lat="43.80938" lon="6.22477">
        <ele>487.7</ele>
        <time>2020-06-06T10:54:30Z</time>
      </trkpt>
      <trkpt lat="43.80928" lon="6.22475">
        <ele>487.7</ele>
        <time>2020-06-06T10:54:37Z</time>
      </trkpt>
      <trkpt lat="43.80919" lon="6.22476">
        <ele>487.6</ele>
        <time>2020-06-06T10:54:45Z</time>
      </trkpt>
      <trkpt lat="43.8091" lon="6.22477">
        <ele>487.5</ele>
        <time>2020-06-06T10:54:52Z</time>
      </trkpt>
      <trkpt lat="43.809" lon="6.22477">
        <ele>487.4</ele>
        <time>2020-06-06T10:54:59Z</time>
      </trkpt>
      <trkpt lat="43.8089" lon="6.22475">
        <ele>487.4</ele>
        <time>2020-06-06T10:55:05Z</time>
      </trkpt>
      <trkpt lat="43.80881" lon="6.22475">
        <ele>487.4</ele>
        <time>2020-06-06T10:55:11Z</time>
      </trkpt>
      <trkpt lat="43.80872" lon="6.22472">
        <ele>487.4</ele>
        <time>2020-06-06T10:55:16Z</time>
      </trkpt>
      <trkpt lat="43.80863" lon="6.22467">
        <ele>487.5</ele>
        <time>2020-06-06T10:55:22Z</time>
      </trkpt>
      <trkpt lat="43.80855" lon="6.22461">
        <ele>487.6</ele>
        <time>2020-06-06T10:55:29Z</time>
      </trkpt>
      <trkpt lat="43.80846" lon="6.22454">
        <ele>487.5</ele>
        <time>2020-06-06T10:55:35Z</time>
      </trkpt>
      <trkpt lat="43.80839" lon="6.22445">
        <ele>487.5</ele>
        <time>2020-06-06T10:55:41Z</time>
      </trkpt>
      <trkpt lat="43.80831" lon="6.22436">
        <ele>487.5</ele>
        <time>2020-06-06T10:55:48Z</time>
      </trkpt>
      <trkpt lat="43.80823" lon="6.2243">
        <ele>487.4</ele>
        <time>2020-06-06T10:55:54Z</time>
      </trkpt>
      <trkpt lat="43.80815" lon="6.22422">
        <ele>487.4</ele>
        <time>2020-06-06T10:56:01Z</time>
      </trkpt>
      <trkpt lat="43.80808" lon="6.22413">
        <ele>487.4</ele>
        <time>2020-06-06T10:56:09Z</time>
      </trkpt>
      <trkpt lat="43.808" lon="6.22405">
        <ele>487.3</ele>
        <time>2020-06-06T10:56:15Z</time>
      </trkpt>
      <trkpt lat="43.80792" lon="6.22397">
        <ele>487.3</ele>
        <time>2020-06-06T10:56:20Z</time>
      </trkpt>
      <trkpt lat="43.80784" lon="6.2239">
        <ele>487.4</ele>
        <time>2020-06-06T10:56:26Z</time>
      </trkpt>
      <trkpt lat="43.80777" lon="6.2238">
        <ele>487.5</ele>
        <time>2020-06-06T10:56:33Z</time>
      </trkpt>
      <trkpt lat="43.80769" lon="6.22375">
        <ele>487.6</ele>
        <time>2020-06-06T10:56:39Z</time>
      </trkpt>
      <trkpt lat="43.80761" lon="6.22369">
        <ele>487.6</ele>
        <time>2020-06-06T10:56:45Z</time>
      </trkpt>
      <trkpt lat="43.80751" lon="6.22363">
        <ele>487.6</ele>
        <time>2020-06-06T10:56:52Z</time>
      </trkpt>
      <trkpt lat="43.80743" lon="6.22357">
        <ele>487.6</ele>
        <time>2020-06-06T10:56:59Z</time>
      </trkpt>
      <trkpt lat="43.80734" lon="6.22353">
        <ele>487.6</ele>
        <time>2020-06-06T10:57:05Z</time>
      </trkpt>
      <trkpt lat="43.80724" lon="6.22349">
        <ele>487.6</ele>
        <time>2020-06-06T10:57:12Z</time>
      </trkpt>
      <trkpt lat="43.80714" lon="6.22346">
        <ele>487.4</ele>
        <time>2020-06-06T10:57:19Z</time>
      </trkpt>
      <trkpt lat="43.80704" lon="6.22341">
        <ele>487.4</ele>
        <time>2020-06-06T10:57:26Z</time>
      </trkpt>
      <trkpt lat="43.80695" lon="6.22337">
        <ele>487.4</ele>
        <time>2020-06-06T10:57:33Z</time>
      </trkpt>
      <trkpt lat="43.80686" lon="6.22332">
        <ele>487.3</ele>
        <time>2020-06-06T10:57:40Z</time>
      </trkpt>
      <trkpt lat="43.80677" lon="6.22327">
        <ele>487.3</ele>
        <time>2020-06-06T10:57:47Z</time>
      </trkpt>
      <trkpt lat="43.80669" lon="6.22321">
        <ele>487.2</ele>
        <time>2020-06-06T10:57:53Z</time>
      </trkpt>
      <trkpt lat="43.80659" lon="6.22317">
        <ele>487.1</ele>
        <time>2020-06-06T10:58:00Z</time>
      </trkpt>
      <trkpt lat="43.80649" lon="6.22312">
        <ele>487</ele>
        <time>2020-06-06T10:58:04Z</time>
      </trkpt>
      <trkpt lat="43.8064" lon="6.22307">
        <ele>487</ele>
        <time>2020-06-06T10:58:07Z</time>
      </trkpt>
      <trkpt lat="43.80631" lon="6.22303">
        <ele>486.7</ele>
        <time>2020-06-06T10:58:10Z</time>
      </trkpt>
      <trkpt lat="43.8062" lon="6.223">
        <ele>486.7</ele>
        <time>2020-06-06T10:58:13Z</time>
      </trkpt>
      <trkpt lat="43.80611" lon="6.22296">
        <ele>486.6</ele>
        <time>2020-06-06T10:58:16Z</time>
      </trkpt>
      <trkpt lat="43.80605" lon="6.22286">
        <ele>486.6</ele>
        <time>2020-06-06T10:58:19Z</time>
      </trkpt>
      <trkpt lat="43.80598" lon="6.22276">
        <ele>486.7</ele>
        <time>2020-06-06T10:58:22Z</time>
      </trkpt>
      <trkpt lat="43.8059" lon="6.22269">
        <ele>486.8</ele>
        <time>2020-06-06T10:58:25Z</time>
      </trkpt>
      <trkpt lat="43.80583" lon="6.2226">
        <ele>486.9</ele>
        <time>2020-06-06T10:58:28Z</time>
      </trkpt>
      <trkpt lat="43.80575" lon="6.2225">
        <ele>486.9</ele>
        <time>2020-06-06T10:58:32Z</time>
      </trkpt>
      <trkpt lat="43.80568" lon="6.22242">
        <ele>486.9</ele>
        <time>2020-06-06T10:58:36Z</time>
      </trkpt>
      <trkpt lat="43.80562" lon="6.22232">
        <ele>486.9</ele>
        <time>2020-06-06T10:58:42Z</time>
      </trkpt>
      <trkpt lat="43.80554" lon="6.22224">
        <ele>486.8</ele>
        <time>2020-06-06T10:58:48Z</time>
      </trkpt>
      <trkpt lat="43.80547" lon="6.22213">
        <ele>486.7</ele>
        <time>2020-06-06T10:58:54Z</time>
      </trkpt>
      <trkpt lat="43.80539" lon="6.22204">
        <ele>486.7</ele>
        <time>2020-06-06T10:59:01Z</time>
      </trkpt>
      <trkpt lat="43.80532" lon="6.22196">
        <ele>486.7</ele>
        <time>2020-06-06T10:59:08Z</time>
      </trkpt>
      <trkpt lat="43.80525" lon="6.22188">
        <ele>486.8</ele>
        <time>2020-06-06T10:59:14Z</time>
      </trkpt>
      <trkpt lat="43.80518" lon="6.22179">
        <ele>486.8</ele>
        <time>2020-06-06T10:59:20Z</time>
      </trkpt>
      <trkpt lat="43.80511" lon="6.22169">
        <ele>486.8</ele>
        <time>2020-06-06T10:59:27Z</time>
      </trkpt>
      <trkpt lat="43.80503" lon="6.22161">
        <ele>486.7</ele>
        <time>2020-06-06T10:59:33Z</time>
      </trkpt>
      <trkpt lat="43.80496" lon="6.22151">
        <ele>486.8</ele>
        <time>2020-06-06T10:59:40Z</time>
      </trkpt>
      <trkpt lat="43.80489" lon="6.22141">
        <ele>486.8</ele>
        <time>2020-06-06T10:59:47Z</time>
      </trkpt>
      <trkpt lat="43.80482" lon="6.22131">
        <ele>486.7</ele>
        <time>2020-06-06T10:59:54Z</time>
      </trkpt>
      <trkpt lat="43.80478" lon="6.22119">
        <ele>486.6</ele>
        <time>2020-06-06T11:00:01Z</time>
      </trkpt>
      <trkpt lat="43.80479" lon="6.22105">
        <ele>485.9</ele>
        <time>2020-06-06T11:01:11Z</time>
      </trkpt>
      <trkpt lat="43.8047" lon="6.22094">
        <ele>485.5</ele>
        <time>2020-06-06T11:02:23Z</time>
      </trkpt>
      <trkpt lat="43.80479" lon="6.22101">
        <ele>487.5</ele>
        <time>2020-06-06T11:03:06Z</time>
      </trkpt>
      <trkpt lat="43.80485" lon="6.22113">
        <ele>487.7</ele>
        <time>2020-06-06T11:03:13Z</time>
      </trkpt>
      <trkpt lat="43.80492" lon="6.2212">
        <ele>488.1</ele>
        <time>2020-06-06T11:03:21Z</time>
      </trkpt>
      <trkpt lat="43.80499" lon="6.22129">
        <ele>488.2</ele>
        <time>2020-06-06T11:03:28Z</time>
      </trkpt>
      <trkpt lat="43.80507" lon="6.22137">
        <ele>490.3</ele>
        <time>2020-06-06T11:04:36Z</time>
      </trkpt>
      <trkpt lat="43.805" lon="6.22127">
        <ele>492.8</ele>
        <time>2020-06-06T13:28:11Z</time>
      </trkpt>
      <trkpt lat="43.80496" lon="6.22116">
        <ele>492.9</ele>
        <time>2020-06-06T13:28:21Z</time>
      </trkpt>
      <trkpt lat="43.80486" lon="6.22096">
        <ele>491</ele>
        <time>2020-06-06T13:30:55Z</time>
      </trkpt>
      <trkpt lat="43.8048" lon="6.22087">
        <ele>491.3</ele>
        <time>2020-06-06T13:31:06Z</time>
      </trkpt>
      <trkpt lat="43.80485" lon="6.22076">
        <ele>490.6</ele>
        <time>2020-06-06T13:32:34Z</time>
      </trkpt>
      <trkpt lat="43.80493" lon="6.22083">
        <ele>491.9</ele>
        <time>2020-06-06T13:35:26Z</time>
      </trkpt>
      <trkpt lat="43.80503" lon="6.22086">
        <ele>492.7</ele>
        <time>2020-06-06T13:35:35Z</time>
      </trkpt>
      <trkpt lat="43.80512" lon="6.22089">
        <ele>493.7</ele>
        <time>2020-06-06T13:35:44Z</time>
      </trkpt>
      <trkpt lat="43.80521" lon="6.22091">
        <ele>495.2</ele>
        <time>2020-06-06T13:35:54Z</time>
      </trkpt>
      <trkpt lat="43.80529" lon="6.22099">
        <ele>497.2</ele>
        <time>2020-06-06T13:36:05Z</time>
      </trkpt>
      <trkpt lat="43.80538" lon="6.22104">
        <ele>499.1</ele>
        <time>2020-06-06T13:36:16Z</time>
      </trkpt>
      <trkpt lat="43.80547" lon="6.22109">
        <ele>500.3</ele>
        <time>2020-06-06T13:36:23Z</time>
      </trkpt>
      <trkpt lat="43.80557" lon="6.22109">
        <ele>500.9</ele>
        <time>2020-06-06T13:36:28Z</time>
      </trkpt>
      <trkpt lat="43.80564" lon="6.22102">
        <ele>501.6</ele>
        <time>2020-06-06T13:36:36Z</time>
      </trkpt>
      <trkpt lat="43.80571" lon="6.22092">
        <ele>502.2</ele>
        <time>2020-06-06T13:36:43Z</time>
      </trkpt>
      <trkpt lat="43.80577" lon="6.2208">
        <ele>502.7</ele>
        <time>2020-06-06T13:36:51Z</time>
      </trkpt>
      <trkpt lat="43.80585" lon="6.22073">
        <ele>503</ele>
        <time>2020-06-06T13:37:00Z</time>
      </trkpt>
      <trkpt lat="43.80593" lon="6.22064">
        <ele>502.8</ele>
        <time>2020-06-06T13:37:08Z</time>
      </trkpt>
      <trkpt lat="43.80598" lon="6.22052">
        <ele>502.7</ele>
        <time>2020-06-06T13:37:15Z</time>
      </trkpt>
      <trkpt lat="43.80602" lon="6.22039">
        <ele>502.5</ele>
        <time>2020-06-06T13:37:23Z</time>
      </trkpt>
      <trkpt lat="43.80606" lon="6.22026">
        <ele>502.2</ele>
        <time>2020-06-06T13:37:31Z</time>
      </trkpt>
      <trkpt lat="43.80612" lon="6.22015">
        <ele>501.7</ele>
        <time>2020-06-06T13:37:39Z</time>
      </trkpt>
      <trkpt lat="43.80615" lon="6.22003">
        <ele>500.8</ele>
        <time>2020-06-06T13:37:45Z</time>
      </trkpt>
      <trkpt lat="43.8062" lon="6.21991">
        <ele>500.1</ele>
        <time>2020-06-06T13:37:53Z</time>
      </trkpt>
      <trkpt lat="43.80626" lon="6.21982">
        <ele>500.1</ele>
        <time>2020-06-06T13:38:04Z</time>
      </trkpt>
      <trkpt lat="43.80635" lon="6.21978">
        <ele>500.7</ele>
        <time>2020-06-06T13:38:17Z</time>
      </trkpt>
      <trkpt lat="43.80635" lon="6.21964">
        <ele>500.9</ele>
        <time>2020-06-06T13:38:25Z</time>
      </trkpt>
      <trkpt lat="43.80634" lon="6.21952">
        <ele>500.9</ele>
        <time>2020-06-06T13:38:33Z</time>
      </trkpt>
      <trkpt lat="43.80632" lon="6.2194">
        <ele>500.5</ele>
        <time>2020-06-06T13:38:41Z</time>
      </trkpt>
      <trkpt lat="43.80628" lon="6.21927">
        <ele>499.8</ele>
        <time>2020-06-06T13:38:48Z</time>
      </trkpt>
      <trkpt lat="43.80621" lon="6.21917">
        <ele>499</ele>
        <time>2020-06-06T13:38:55Z</time>
      </trkpt>
      <trkpt lat="43.80614" lon="6.21908">
        <ele>498.3</ele>
        <time>2020-06-06T13:39:01Z</time>
      </trkpt>
      <trkpt lat="43.80607" lon="6.21899">
        <ele>497.9</ele>
        <time>2020-06-06T13:39:06Z</time>
      </trkpt>
      <trkpt lat="43.80599" lon="6.21893">
        <ele>497.6</ele>
        <time>2020-06-06T13:39:11Z</time>
      </trkpt>
      <trkpt lat="43.80591" lon="6.21886">
        <ele>497.1</ele>
        <time>2020-06-06T13:39:18Z</time>
      </trkpt>
      <trkpt lat="43.80583" lon="6.21878">
        <ele>496.3</ele>
        <time>2020-06-06T13:39:26Z</time>
      </trkpt>
      <trkpt lat="43.80575" lon="6.21872">
        <ele>495.9</ele>
        <time>2020-06-06T13:39:34Z</time>
      </trkpt>
      <trkpt lat="43.80565" lon="6.2187">
        <ele>495.7</ele>
        <time>2020-06-06T13:39:41Z</time>
      </trkpt>
      <trkpt lat="43.80556" lon="6.21863">
        <ele>495.6</ele>
        <time>2020-06-06T13:39:49Z</time>
      </trkpt>
      <trkpt lat="43.80551" lon="6.21852">
        <ele>495.5</ele>
        <time>2020-06-06T13:39:57Z</time>
      </trkpt>
      <trkpt lat="43.8055" lon="6.2184">
        <ele>495</ele>
        <time>2020-06-06T13:40:06Z</time>
      </trkpt>
      <trkpt lat="43.80553" lon="6.21826">
        <ele>493.7</ele>
        <time>2020-06-06T13:40:17Z</time>
      </trkpt>
      <trkpt lat="43.80554" lon="6.21812">
        <ele>492.8</ele>
        <time>2020-06-06T13:40:26Z</time>
      </trkpt>
      <trkpt lat="43.8056" lon="6.21798">
        <ele>492.3</ele>
        <time>2020-06-06T13:40:34Z</time>
      </trkpt>
      <trkpt lat="43.80562" lon="6.21785">
        <ele>492.1</ele>
        <time>2020-06-06T13:40:40Z</time>
      </trkpt>
      <trkpt lat="43.80562" lon="6.21772">
        <ele>491.9</ele>
        <time>2020-06-06T13:40:47Z</time>
      </trkpt>
      <trkpt lat="43.80562" lon="6.21758">
        <ele>491.8</ele>
        <time>2020-06-06T13:40:54Z</time>
      </trkpt>
      <trkpt lat="43.8056" lon="6.21744">
        <ele>491.8</ele>
        <time>2020-06-06T13:41:00Z</time>
      </trkpt>
      <trkpt lat="43.8056" lon="6.2173">
        <ele>491.7</ele>
        <time>2020-06-06T13:41:05Z</time>
      </trkpt>
      <trkpt lat="43.80558" lon="6.21718">
        <ele>491.7</ele>
        <time>2020-06-06T13:41:11Z</time>
      </trkpt>
      <trkpt lat="43.80557" lon="6.21703">
        <ele>491.6</ele>
        <time>2020-06-06T13:41:19Z</time>
      </trkpt>
      <trkpt lat="43.80554" lon="6.21691">
        <ele>491.6</ele>
        <time>2020-06-06T13:41:25Z</time>
      </trkpt>
      <trkpt lat="43.80551" lon="6.21679">
        <ele>491.6</ele>
        <time>2020-06-06T13:41:31Z</time>
      </trkpt>
      <trkpt lat="43.80548" lon="6.21667">
        <ele>491.5</ele>
        <time>2020-06-06T13:41:37Z</time>
      </trkpt>
      <trkpt lat="43.80546" lon="6.21654">
        <ele>491.4</ele>
        <time>2020-06-06T13:42:01Z</time>
      </trkpt>
      <trkpt lat="43.80545" lon="6.21639">
        <ele>491.2</ele>
        <time>2020-06-06T13:42:11Z</time>
      </trkpt>
      <trkpt lat="43.80538" lon="6.21628">
        <ele>491.2</ele>
        <time>2020-06-06T13:42:14Z</time>
      </trkpt>
      <trkpt lat="43.8053" lon="6.2162">
        <ele>491.2</ele>
        <time>2020-06-06T13:42:19Z</time>
      </trkpt>
      <trkpt lat="43.80522" lon="6.21614">
        <ele>491.1</ele>
        <time>2020-06-06T13:42:25Z</time>
      </trkpt>
      <trkpt lat="43.80514" lon="6.21609">
        <ele>491.1</ele>
        <time>2020-06-06T13:42:32Z</time>
      </trkpt>
      <trkpt lat="43.80505" lon="6.21602">
        <ele>491.1</ele>
        <time>2020-06-06T13:42:40Z</time>
      </trkpt>
      <trkpt lat="43.80501" lon="6.2159">
        <ele>491.1</ele>
        <time>2020-06-06T13:42:48Z</time>
      </trkpt>
      <trkpt lat="43.80495" lon="6.21579">
        <ele>491.2</ele>
        <time>2020-06-06T13:42:54Z</time>
      </trkpt>
      <trkpt lat="43.8049" lon="6.21567">
        <ele>491.1</ele>
        <time>2020-06-06T13:43:01Z</time>
      </trkpt>
      <trkpt lat="43.80486" lon="6.21556">
        <ele>491.2</ele>
        <time>2020-06-06T13:43:08Z</time>
      </trkpt>
      <trkpt lat="43.80481" lon="6.21543">
        <ele>491.3</ele>
        <time>2020-06-06T13:43:14Z</time>
      </trkpt>
      <trkpt lat="43.80478" lon="6.21531">
        <ele>491.3</ele>
        <time>2020-06-06T13:43:21Z</time>
      </trkpt>
      <trkpt lat="43.80476" lon="6.21518">
        <ele>491.1</ele>
        <time>2020-06-06T13:43:29Z</time>
      </trkpt>
      <trkpt lat="43.80485" lon="6.21516">
        <ele>491.1</ele>
        <time>2020-06-06T13:43:38Z</time>
      </trkpt>
      <trkpt lat="43.80495" lon="6.21515">
        <ele>491.2</ele>
        <time>2020-06-06T13:43:47Z</time>
      </trkpt>
      <trkpt lat="43.80504" lon="6.21514">
        <ele>491.6</ele>
        <time>2020-06-06T13:43:56Z</time>
      </trkpt>
      <trkpt lat="43.80515" lon="6.21509">
        <ele>491.8</ele>
        <time>2020-06-06T13:44:03Z</time>
      </trkpt>
      <trkpt lat="43.80519" lon="6.21498">
        <ele>492.1</ele>
        <time>2020-06-06T13:44:08Z</time>
      </trkpt>
      <trkpt lat="43.80517" lon="6.21485">
        <ele>492.4</ele>
        <time>2020-06-06T13:44:15Z</time>
      </trkpt>
      <trkpt lat="43.80509" lon="6.21476">
        <ele>492.6</ele>
        <time>2020-06-06T13:44:22Z</time>
      </trkpt>
      <trkpt lat="43.80501" lon="6.21468">
        <ele>492.8</ele>
        <time>2020-06-06T13:44:28Z</time>
      </trkpt>
      <trkpt lat="43.80493" lon="6.21459">
        <ele>493.1</ele>
        <time>2020-06-06T13:44:35Z</time>
      </trkpt>
      <trkpt lat="43.80485" lon="6.21452">
        <ele>493.3</ele>
        <time>2020-06-06T13:44:41Z</time>
      </trkpt>
      <trkpt lat="43.80486" lon="6.21439">
        <ele>494.3</ele>
        <time>2020-06-06T13:44:53Z</time>
      </trkpt>
      <trkpt lat="43.80491" lon="6.21428">
        <ele>495.2</ele>
        <time>2020-06-06T13:45:00Z</time>
      </trkpt>
      <trkpt lat="43.805" lon="6.2142">
        <ele>496.8</ele>
        <time>2020-06-06T13:45:08Z</time>
      </trkpt>
      <trkpt lat="43.80506" lon="6.2141">
        <ele>498.2</ele>
        <time>2020-06-06T13:45:15Z</time>
      </trkpt>
      <trkpt lat="43.8051" lon="6.21399">
        <ele>499.7</ele>
        <time>2020-06-06T13:45:22Z</time>
      </trkpt>
      <trkpt lat="43.80518" lon="6.2139">
        <ele>501.6</ele>
        <time>2020-06-06T13:45:30Z</time>
      </trkpt>
      <trkpt lat="43.80526" lon="6.21383">
        <ele>503.7</ele>
        <time>2020-06-06T13:45:40Z</time>
      </trkpt>
      <trkpt lat="43.80537" lon="6.21384">
        <ele>505.7</ele>
        <time>2020-06-06T13:45:49Z</time>
      </trkpt>
      <trkpt lat="43.80547" lon="6.21384">
        <ele>507.3</ele>
        <time>2020-06-06T13:45:56Z</time>
      </trkpt>
      <trkpt lat="43.80556" lon="6.21385">
        <ele>509.1</ele>
        <time>2020-06-06T13:46:05Z</time>
      </trkpt>
      <trkpt lat="43.80565" lon="6.21391">
        <ele>511.2</ele>
        <time>2020-06-06T13:46:14Z</time>
      </trkpt>
      <trkpt lat="43.80575" lon="6.21396">
        <ele>514.7</ele>
        <time>2020-06-06T13:46:28Z</time>
      </trkpt>
      <trkpt lat="43.80586" lon="6.21396">
        <ele>520.8</ele>
        <time>2020-06-06T13:47:08Z</time>
      </trkpt>
      <trkpt lat="43.80595" lon="6.21392">
        <ele>521.1</ele>
        <time>2020-06-06T13:47:13Z</time>
      </trkpt>
      <trkpt lat="43.80603" lon="6.21386">
        <ele>522.2</ele>
        <time>2020-06-06T13:47:21Z</time>
      </trkpt>
      <trkpt lat="43.80611" lon="6.21378">
        <ele>523.4</ele>
        <time>2020-06-06T13:47:28Z</time>
      </trkpt>
      <trkpt lat="43.80616" lon="6.21365">
        <ele>525.2</ele>
        <time>2020-06-06T13:47:36Z</time>
      </trkpt>
      <trkpt lat="43.8062" lon="6.21352">
        <ele>526.4</ele>
        <time>2020-06-06T13:47:43Z</time>
      </trkpt>
      <trkpt lat="43.80621" lon="6.21338">
        <ele>525.3</ele>
        <time>2020-06-06T13:47:49Z</time>
      </trkpt>
      <trkpt lat="43.80622" lon="6.21325">
        <ele>526.7</ele>
        <time>2020-06-06T13:47:56Z</time>
      </trkpt>
      <trkpt lat="43.80625" lon="6.21313">
        <ele>528.5</ele>
        <time>2020-06-06T13:48:03Z</time>
      </trkpt>
      <trkpt lat="43.80628" lon="6.213">
        <ele>530.4</ele>
        <time>2020-06-06T13:48:10Z</time>
      </trkpt>
      <trkpt lat="43.8063" lon="6.21286">
        <ele>532</ele>
        <time>2020-06-06T13:48:17Z</time>
      </trkpt>
      <trkpt lat="43.80635" lon="6.21274">
        <ele>533.5</ele>
        <time>2020-06-06T13:48:25Z</time>
      </trkpt>
      <trkpt lat="43.8064" lon="6.21264">
        <ele>534.8</ele>
        <time>2020-06-06T13:48:32Z</time>
      </trkpt>
      <trkpt lat="43.80647" lon="6.21254">
        <ele>536.7</ele>
        <time>2020-06-06T13:48:41Z</time>
      </trkpt>
      <trkpt lat="43.80653" lon="6.21244">
        <ele>537.9</ele>
        <time>2020-06-06T13:48:48Z</time>
      </trkpt>
      <trkpt lat="43.8066" lon="6.21236">
        <ele>539.5</ele>
        <time>2020-06-06T13:48:55Z</time>
      </trkpt>
      <trkpt lat="43.80666" lon="6.21226">
        <ele>541.7</ele>
        <time>2020-06-06T13:49:03Z</time>
      </trkpt>
      <trkpt lat="43.80674" lon="6.21216">
        <ele>544.2</ele>
        <time>2020-06-06T13:49:12Z</time>
      </trkpt>
      <trkpt lat="43.80679" lon="6.21204">
        <ele>547</ele>
        <time>2020-06-06T13:49:21Z</time>
      </trkpt>
      <trkpt lat="43.80683" lon="6.21193">
        <ele>549.4</ele>
        <time>2020-06-06T13:49:28Z</time>
      </trkpt>
      <trkpt lat="43.80686" lon="6.2118">
        <ele>551.2</ele>
        <time>2020-06-06T13:49:35Z</time>
      </trkpt>
      <trkpt lat="43.80689" lon="6.21168">
        <ele>553.1</ele>
        <time>2020-06-06T13:49:43Z</time>
      </trkpt>
      <trkpt lat="43.80692" lon="6.21155">
        <ele>555</ele>
        <time>2020-06-06T13:49:50Z</time>
      </trkpt>
      <trkpt lat="43.80695" lon="6.21142">
        <ele>556.5</ele>
        <time>2020-06-06T13:49:57Z</time>
      </trkpt>
      <trkpt lat="43.80697" lon="6.2113">
        <ele>557.8</ele>
        <time>2020-06-06T13:50:04Z</time>
      </trkpt>
      <trkpt lat="43.80701" lon="6.21117">
        <ele>560.1</ele>
        <time>2020-06-06T13:50:14Z</time>
      </trkpt>
      <trkpt lat="43.80702" lon="6.21104">
        <ele>562</ele>
        <time>2020-06-06T13:50:22Z</time>
      </trkpt>
      <trkpt lat="43.80705" lon="6.21091">
        <ele>564.2</ele>
        <time>2020-06-06T13:50:32Z</time>
      </trkpt>
      <trkpt lat="43.80708" lon="6.21078">
        <ele>566.2</ele>
        <time>2020-06-06T13:50:41Z</time>
      </trkpt>
      <trkpt lat="43.8071" lon="6.21065">
        <ele>567.8</ele>
        <time>2020-06-06T13:50:49Z</time>
      </trkpt>
      <trkpt lat="43.80714" lon="6.21053">
        <ele>569.3</ele>
        <time>2020-06-06T13:50:56Z</time>
      </trkpt>
      <trkpt lat="43.80716" lon="6.2104">
        <ele>570.8</ele>
        <time>2020-06-06T13:51:03Z</time>
      </trkpt>
      <trkpt lat="43.80717" lon="6.21028">
        <ele>572.6</ele>
        <time>2020-06-06T13:51:11Z</time>
      </trkpt>
      <trkpt lat="43.80718" lon="6.21015">
        <ele>574.1</ele>
        <time>2020-06-06T13:51:18Z</time>
      </trkpt>
      <trkpt lat="43.80724" lon="6.21005">
        <ele>576.1</ele>
        <time>2020-06-06T13:51:28Z</time>
      </trkpt>
      <trkpt lat="43.80724" lon="6.20991">
        <ele>577.8</ele>
        <time>2020-06-06T13:51:36Z</time>
      </trkpt>
      <trkpt lat="43.80725" lon="6.20978">
        <ele>579.4</ele>
        <time>2020-06-06T13:51:44Z</time>
      </trkpt>
      <trkpt lat="43.80727" lon="6.20965">
        <ele>581.2</ele>
        <time>2020-06-06T13:51:52Z</time>
      </trkpt>
      <trkpt lat="43.80727" lon="6.20952">
        <ele>582.5</ele>
        <time>2020-06-06T13:51:59Z</time>
      </trkpt>
      <trkpt lat="43.80727" lon="6.20937">
        <ele>584.6</ele>
        <time>2020-06-06T13:52:08Z</time>
      </trkpt>
      <trkpt lat="43.80729" lon="6.20925">
        <ele>586.5</ele>
        <time>2020-06-06T13:52:16Z</time>
      </trkpt>
      <trkpt lat="43.80731" lon="6.20912">
        <ele>588.4</ele>
        <time>2020-06-06T13:52:25Z</time>
      </trkpt>
      <trkpt lat="43.80733" lon="6.20898">
        <ele>590.2</ele>
        <time>2020-06-06T13:52:35Z</time>
      </trkpt>
      <trkpt lat="43.80738" lon="6.20887">
        <ele>591.7</ele>
        <time>2020-06-06T13:52:43Z</time>
      </trkpt>
      <trkpt lat="43.80743" lon="6.20876">
        <ele>593.6</ele>
        <time>2020-06-06T13:52:52Z</time>
      </trkpt>
      <trkpt lat="43.80746" lon="6.20861">
        <ele>594.2</ele>
        <time>2020-06-06T13:52:56Z</time>
      </trkpt>
      <trkpt lat="43.80748" lon="6.20847">
        <ele>595.3</ele>
        <time>2020-06-06T13:53:03Z</time>
      </trkpt>
      <trkpt lat="43.80752" lon="6.20836">
        <ele>596.3</ele>
        <time>2020-06-06T13:53:12Z</time>
      </trkpt>
      <trkpt lat="43.80755" lon="6.20822">
        <ele>597.1</ele>
        <time>2020-06-06T13:53:20Z</time>
      </trkpt>
      <trkpt lat="43.80752" lon="6.20808">
        <ele>597.7</ele>
        <time>2020-06-06T13:53:26Z</time>
      </trkpt>
      <trkpt lat="43.80748" lon="6.20798">
        <ele>598.3</ele>
        <time>2020-06-06T13:53:33Z</time>
      </trkpt>
      <trkpt lat="43.80749" lon="6.20784">
        <ele>599.3</ele>
        <time>2020-06-06T13:53:41Z</time>
      </trkpt>
      <trkpt lat="43.8075" lon="6.20772">
        <ele>600.4</ele>
        <time>2020-06-06T13:53:48Z</time>
      </trkpt>
      <trkpt lat="43.80752" lon="6.20758">
        <ele>602</ele>
        <time>2020-06-06T13:53:57Z</time>
      </trkpt>
      <trkpt lat="43.80755" lon="6.20746">
        <ele>602.9</ele>
        <time>2020-06-06T13:54:03Z</time>
      </trkpt>
      <trkpt lat="43.80758" lon="6.20733">
        <ele>603.7</ele>
        <time>2020-06-06T13:54:12Z</time>
      </trkpt>
      <trkpt lat="43.80761" lon="6.2072">
        <ele>604.8</ele>
        <time>2020-06-06T13:54:21Z</time>
      </trkpt>
      <trkpt lat="43.80764" lon="6.20708">
        <ele>605.4</ele>
        <time>2020-06-06T13:54:28Z</time>
      </trkpt>
      <trkpt lat="43.80764" lon="6.20695">
        <ele>606.4</ele>
        <time>2020-06-06T13:54:34Z</time>
      </trkpt>
      <trkpt lat="43.80765" lon="6.20681">
        <ele>607.6</ele>
        <time>2020-06-06T13:54:41Z</time>
      </trkpt>
      <trkpt lat="43.80767" lon="6.20667">
        <ele>609.1</ele>
        <time>2020-06-06T13:54:49Z</time>
      </trkpt>
      <trkpt lat="43.80767" lon="6.20654">
        <ele>611</ele>
        <time>2020-06-06T13:54:56Z</time>
      </trkpt>
      <trkpt lat="43.80764" lon="6.20639">
        <ele>612.1</ele>
        <time>2020-06-06T13:55:00Z</time>
      </trkpt>
      <trkpt lat="43.80761" lon="6.20627">
        <ele>614.1</ele>
        <time>2020-06-06T13:55:07Z</time>
      </trkpt>
      <trkpt lat="43.80755" lon="6.20616">
        <ele>617.3</ele>
        <time>2020-06-06T13:55:17Z</time>
      </trkpt>
      <trkpt lat="43.80746" lon="6.20609">
        <ele>620</ele>
        <time>2020-06-06T13:55:25Z</time>
      </trkpt>
      <trkpt lat="43.80736" lon="6.20609">
        <ele>621.6</ele>
        <time>2020-06-06T13:55:33Z</time>
      </trkpt>
      <trkpt lat="43.80745" lon="6.20606">
        <ele>623</ele>
        <time>2020-06-06T13:55:47Z</time>
      </trkpt>
      <trkpt lat="43.80754" lon="6.20603">
        <ele>625.1</ele>
        <time>2020-06-06T13:56:02Z</time>
      </trkpt>
      <trkpt lat="43.80751" lon="6.20591">
        <ele>626</ele>
        <time>2020-06-06T13:56:07Z</time>
      </trkpt>
      <trkpt lat="43.80744" lon="6.20582">
        <ele>627.6</ele>
        <time>2020-06-06T13:56:15Z</time>
      </trkpt>
      <trkpt lat="43.80735" lon="6.20576">
        <ele>630.8</ele>
        <time>2020-06-06T13:56:34Z</time>
      </trkpt>
      <trkpt lat="43.80728" lon="6.20566">
        <ele>632.5</ele>
        <time>2020-06-06T13:56:42Z</time>
      </trkpt>
      <trkpt lat="43.80719" lon="6.20562">
        <ele>634.3</ele>
        <time>2020-06-06T13:56:53Z</time>
      </trkpt>
      <trkpt lat="43.80715" lon="6.2055">
        <ele>637.7</ele>
        <time>2020-06-06T13:57:09Z</time>
      </trkpt>
      <trkpt lat="43.80714" lon="6.20536">
        <ele>640</ele>
        <time>2020-06-06T13:57:19Z</time>
      </trkpt>
      <trkpt lat="43.80711" lon="6.20523">
        <ele>641.8</ele>
        <time>2020-06-06T13:57:27Z</time>
      </trkpt>
      <trkpt lat="43.80709" lon="6.2051">
        <ele>644</ele>
        <time>2020-06-06T13:57:40Z</time>
      </trkpt>
      <trkpt lat="43.80711" lon="6.20497">
        <ele>645.5</ele>
        <time>2020-06-06T13:57:49Z</time>
      </trkpt>
      <trkpt lat="43.80706" lon="6.20486">
        <ele>647.2</ele>
        <time>2020-06-06T13:57:59Z</time>
      </trkpt>
      <trkpt lat="43.80708" lon="6.20473">
        <ele>648.7</ele>
        <time>2020-06-06T13:58:09Z</time>
      </trkpt>
      <trkpt lat="43.80713" lon="6.20462">
        <ele>650.2</ele>
        <time>2020-06-06T13:58:20Z</time>
      </trkpt>
      <trkpt lat="43.80716" lon="6.2045">
        <ele>651.7</ele>
        <time>2020-06-06T13:58:28Z</time>
      </trkpt>
      <trkpt lat="43.80719" lon="6.20437">
        <ele>653.2</ele>
        <time>2020-06-06T13:58:36Z</time>
      </trkpt>
      <trkpt lat="43.80718" lon="6.20421">
        <ele>657.5</ele>
        <time>2020-06-06T14:00:07Z</time>
      </trkpt>
      <trkpt lat="43.80724" lon="6.20407">
        <ele>657.5</ele>
        <time>2020-06-06T14:00:26Z</time>
      </trkpt>
      <trkpt lat="43.80732" lon="6.20398">
        <ele>657.5</ele>
        <time>2020-06-06T14:00:57Z</time>
      </trkpt>
      <trkpt lat="43.80738" lon="6.20387">
        <ele>657.3</ele>
        <time>2020-06-06T14:01:05Z</time>
      </trkpt>
      <trkpt lat="43.80742" lon="6.20376">
        <ele>656.8</ele>
        <time>2020-06-06T14:01:12Z</time>
      </trkpt>
      <trkpt lat="43.80748" lon="6.20366">
        <ele>655.9</ele>
        <time>2020-06-06T14:01:19Z</time>
      </trkpt>
      <trkpt lat="43.80755" lon="6.20356">
        <ele>655.3</ele>
        <time>2020-06-06T14:01:26Z</time>
      </trkpt>
      <trkpt lat="43.80762" lon="6.20348">
        <ele>654.7</ele>
        <time>2020-06-06T14:01:32Z</time>
      </trkpt>
      <trkpt lat="43.80771" lon="6.20341">
        <ele>653.7</ele>
        <time>2020-06-06T14:01:39Z</time>
      </trkpt>
      <trkpt lat="43.80777" lon="6.2035">
        <ele>652.9</ele>
        <time>2020-06-06T14:01:47Z</time>
      </trkpt>
      <trkpt lat="43.80783" lon="6.2036">
        <ele>652.6</ele>
        <time>2020-06-06T14:01:54Z</time>
      </trkpt>
      <trkpt lat="43.80791" lon="6.20366">
        <ele>652.8</ele>
        <time>2020-06-06T14:02:02Z</time>
      </trkpt>
      <trkpt lat="43.80802" lon="6.20368">
        <ele>653.7</ele>
        <time>2020-06-06T14:02:11Z</time>
      </trkpt>
      <trkpt lat="43.80812" lon="6.2037">
        <ele>654.6</ele>
        <time>2020-06-06T14:02:17Z</time>
      </trkpt>
      <trkpt lat="43.80822" lon="6.20368">
        <ele>655.7</ele>
        <time>2020-06-06T14:02:24Z</time>
      </trkpt>
      <trkpt lat="43.80832" lon="6.2037">
        <ele>657.1</ele>
        <time>2020-06-06T14:02:32Z</time>
      </trkpt>
      <trkpt lat="43.8084" lon="6.20367">
        <ele>658.2</ele>
        <time>2020-06-06T14:02:39Z</time>
      </trkpt>
      <trkpt lat="43.80848" lon="6.20359">
        <ele>659.6</ele>
        <time>2020-06-06T14:02:48Z</time>
      </trkpt>
      <trkpt lat="43.80849" lon="6.20346">
        <ele>661.1</ele>
        <time>2020-06-06T14:02:57Z</time>
      </trkpt>
      <trkpt lat="43.80846" lon="6.20333">
        <ele>662.4</ele>
        <time>2020-06-06T14:03:04Z</time>
      </trkpt>
      <trkpt lat="43.8084" lon="6.20321">
        <ele>664</ele>
        <time>2020-06-06T14:03:13Z</time>
      </trkpt>
      <trkpt lat="43.80839" lon="6.20307">
        <ele>666.1</ele>
        <time>2020-06-06T14:03:24Z</time>
      </trkpt>
      <trkpt lat="43.80843" lon="6.20296">
        <ele>667.9</ele>
        <time>2020-06-06T14:03:33Z</time>
      </trkpt>
      <trkpt lat="43.80848" lon="6.20286">
        <ele>669.6</ele>
        <time>2020-06-06T14:03:41Z</time>
      </trkpt>
      <trkpt lat="43.80852" lon="6.20274">
        <ele>671.1</ele>
        <time>2020-06-06T14:03:48Z</time>
      </trkpt>
      <trkpt lat="43.80847" lon="6.20261">
        <ele>673.1</ele>
        <time>2020-06-06T14:03:56Z</time>
      </trkpt>
      <trkpt lat="43.8084" lon="6.20253">
        <ele>674.8</ele>
        <time>2020-06-06T14:04:03Z</time>
      </trkpt>
      <trkpt lat="43.80834" lon="6.20242">
        <ele>677</ele>
        <time>2020-06-06T14:04:12Z</time>
      </trkpt>
      <trkpt lat="43.80827" lon="6.20232">
        <ele>679.1</ele>
        <time>2020-06-06T14:04:21Z</time>
      </trkpt>
      <trkpt lat="43.8082" lon="6.20223">
        <ele>680.9</ele>
        <time>2020-06-06T14:04:30Z</time>
      </trkpt>
      <trkpt lat="43.80822" lon="6.20211">
        <ele>683.8</ele>
        <time>2020-06-06T14:04:45Z</time>
      </trkpt>
      <trkpt lat="43.80832" lon="6.20205">
        <ele>686.4</ele>
        <time>2020-06-06T14:04:58Z</time>
      </trkpt>
      <trkpt lat="43.80842" lon="6.202">
        <ele>688.7</ele>
        <time>2020-06-06T14:05:08Z</time>
      </trkpt>
      <trkpt lat="43.8085" lon="6.20197">
        <ele>690.1</ele>
        <time>2020-06-06T14:05:15Z</time>
      </trkpt>
      <trkpt lat="43.80858" lon="6.2019">
        <ele>691.7</ele>
        <time>2020-06-06T14:05:22Z</time>
      </trkpt>
      <trkpt lat="43.80867" lon="6.20183">
        <ele>693.3</ele>
        <time>2020-06-06T14:05:30Z</time>
      </trkpt>
      <trkpt lat="43.80863" lon="6.20171">
        <ele>695.3</ele>
        <time>2020-06-06T14:05:40Z</time>
      </trkpt>
      <trkpt lat="43.80854" lon="6.20167">
        <ele>697.3</ele>
        <time>2020-06-06T14:05:50Z</time>
      </trkpt>
      <trkpt lat="43.80845" lon="6.2016">
        <ele>698.9</ele>
        <time>2020-06-06T14:05:58Z</time>
      </trkpt>
      <trkpt lat="43.80839" lon="6.2015">
        <ele>700.5</ele>
        <time>2020-06-06T14:06:08Z</time>
      </trkpt>
      <trkpt lat="43.80848" lon="6.20147">
        <ele>704.6</ele>
        <time>2020-06-06T14:06:31Z</time>
      </trkpt>
      <trkpt lat="43.80857" lon="6.20143">
        <ele>706.3</ele>
        <time>2020-06-06T14:06:40Z</time>
      </trkpt>
      <trkpt lat="43.80859" lon="6.20131">
        <ele>709</ele>
        <time>2020-06-06T14:06:53Z</time>
      </trkpt>
      <trkpt lat="43.80853" lon="6.20121">
        <ele>710.7</ele>
        <time>2020-06-06T14:07:01Z</time>
      </trkpt>
      <trkpt lat="43.80845" lon="6.20114">
        <ele>712.8</ele>
        <time>2020-06-06T14:07:12Z</time>
      </trkpt>
      <trkpt lat="43.80854" lon="6.20109">
        <ele>716</ele>
        <time>2020-06-06T14:07:34Z</time>
      </trkpt>
      <trkpt lat="43.80863" lon="6.20106">
        <ele>717.8</ele>
        <time>2020-06-06T14:07:44Z</time>
      </trkpt>
      <trkpt lat="43.80871" lon="6.201">
        <ele>719.3</ele>
        <time>2020-06-06T14:07:52Z</time>
      </trkpt>
      <trkpt lat="43.80879" lon="6.20093">
        <ele>720.4</ele>
        <time>2020-06-06T14:08:00Z</time>
      </trkpt>
      <trkpt lat="43.80887" lon="6.20085">
        <ele>722.5</ele>
        <time>2020-06-06T14:08:10Z</time>
      </trkpt>
      <trkpt lat="43.80894" lon="6.20077">
        <ele>724.1</ele>
        <time>2020-06-06T14:08:17Z</time>
      </trkpt>
      <trkpt lat="43.80901" lon="6.20066">
        <ele>726.1</ele>
        <time>2020-06-06T14:08:26Z</time>
      </trkpt>
      <trkpt lat="43.80903" lon="6.20054">
        <ele>728.4</ele>
        <time>2020-06-06T14:08:36Z</time>
      </trkpt>
      <trkpt lat="43.80894" lon="6.2005">
        <ele>730.3</ele>
        <time>2020-06-06T14:08:45Z</time>
      </trkpt>
      <trkpt lat="43.80886" lon="6.20052">
        <ele>732</ele>
        <time>2020-06-06T14:08:55Z</time>
      </trkpt>
      <trkpt lat="43.80877" lon="6.2005">
        <ele>733.4</ele>
        <time>2020-06-06T14:09:03Z</time>
      </trkpt>
      <trkpt lat="43.80869" lon="6.20043">
        <ele>734.8</ele>
        <time>2020-06-06T14:09:11Z</time>
      </trkpt>
      <trkpt lat="43.80865" lon="6.20031">
        <ele>737.4</ele>
        <time>2020-06-06T14:09:33Z</time>
      </trkpt>
      <trkpt lat="43.80861" lon="6.20018">
        <ele>738.8</ele>
        <time>2020-06-06T14:09:55Z</time>
      </trkpt>
      <trkpt lat="43.80858" lon="6.20006">
        <ele>739.6</ele>
        <time>2020-06-06T14:10:02Z</time>
      </trkpt>
      <trkpt lat="43.80856" lon="6.19993">
        <ele>740.2</ele>
        <time>2020-06-06T14:10:08Z</time>
      </trkpt>
      <trkpt lat="43.80862" lon="6.19983">
        <ele>742.5</ele>
        <time>2020-06-06T14:11:57Z</time>
      </trkpt>
      <trkpt lat="43.80863" lon="6.1997">
        <ele>742.7</ele>
        <time>2020-06-06T14:12:06Z</time>
      </trkpt>
      <trkpt lat="43.80858" lon="6.19959">
        <ele>742.8</ele>
        <time>2020-06-06T14:12:18Z</time>
      </trkpt>
      <trkpt lat="43.8085" lon="6.19951">
        <ele>743.3</ele>
        <time>2020-06-06T14:13:43Z</time>
      </trkpt>
      <trkpt lat="43.80848" lon="6.19937">
        <ele>742.9</ele>
        <time>2020-06-06T14:17:09Z</time>
      </trkpt>
      <trkpt lat="43.80843" lon="6.19925">
        <ele>742.9</ele>
        <time>2020-06-06T14:17:35Z</time>
      </trkpt>
      <trkpt lat="43.80837" lon="6.19914">
        <ele>742.7</ele>
        <time>2020-06-06T14:22:57Z</time>
      </trkpt>
      <trkpt lat="43.80836" lon="6.19897">
        <ele>742.7</ele>
        <time>2020-06-06T14:23:37Z</time>
      </trkpt>
      <trkpt lat="43.80833" lon="6.19884">
        <ele>742.6</ele>
        <time>2020-06-06T14:23:43Z</time>
      </trkpt>
      <trkpt lat="43.8083" lon="6.19872">
        <ele>742.2</ele>
        <time>2020-06-06T14:23:49Z</time>
      </trkpt>
      <trkpt lat="43.80825" lon="6.1986">
        <ele>741.9</ele>
        <time>2020-06-06T14:23:55Z</time>
      </trkpt>
      <trkpt lat="43.80822" lon="6.19847">
        <ele>741.6</ele>
        <time>2020-06-06T14:24:02Z</time>
      </trkpt>
      <trkpt lat="43.8082" lon="6.19835">
        <ele>741.1</ele>
        <time>2020-06-06T14:24:08Z</time>
      </trkpt>
      <trkpt lat="43.80818" lon="6.19822">
        <ele>740.7</ele>
        <time>2020-06-06T14:24:15Z</time>
      </trkpt>
      <trkpt lat="43.80815" lon="6.1981">
        <ele>740.2</ele>
        <time>2020-06-06T14:24:22Z</time>
      </trkpt>
      <trkpt lat="43.80811" lon="6.19797">
        <ele>739.8</ele>
        <time>2020-06-06T14:24:30Z</time>
      </trkpt>
      <trkpt lat="43.80807" lon="6.19785">
        <ele>739.5</ele>
        <time>2020-06-06T14:24:36Z</time>
      </trkpt>
      <trkpt lat="43.80802" lon="6.19771">
        <ele>739.4</ele>
        <time>2020-06-06T14:24:44Z</time>
      </trkpt>
      <trkpt lat="43.80799" lon="6.19759">
        <ele>739</ele>
        <time>2020-06-06T14:24:49Z</time>
      </trkpt>
      <trkpt lat="43.80795" lon="6.19747">
        <ele>738.5</ele>
        <time>2020-06-06T14:24:58Z</time>
      </trkpt>
      <trkpt lat="43.80792" lon="6.19733">
        <ele>738.3</ele>
        <time>2020-06-06T14:25:04Z</time>
      </trkpt>
      <trkpt lat="43.80787" lon="6.1972">
        <ele>738.1</ele>
        <time>2020-06-06T14:25:09Z</time>
      </trkpt>
      <trkpt lat="43.80784" lon="6.19706">
        <ele>737.8</ele>
        <time>2020-06-06T14:25:14Z</time>
      </trkpt>
      <trkpt lat="43.80781" lon="6.19695">
        <ele>737.4</ele>
        <time>2020-06-06T14:25:20Z</time>
      </trkpt>
      <trkpt lat="43.80779" lon="6.19682">
        <ele>736.9</ele>
        <time>2020-06-06T14:25:28Z</time>
      </trkpt>
      <trkpt lat="43.80781" lon="6.19669">
        <ele>736.5</ele>
        <time>2020-06-06T14:25:35Z</time>
      </trkpt>
      <trkpt lat="43.80785" lon="6.19656">
        <ele>736</ele>
        <time>2020-06-06T14:25:42Z</time>
      </trkpt>
      <trkpt lat="43.8079" lon="6.19645">
        <ele>735.6</ele>
        <time>2020-06-06T14:25:50Z</time>
      </trkpt>
      <trkpt lat="43.80793" lon="6.19631">
        <ele>735.4</ele>
        <time>2020-06-06T14:25:59Z</time>
      </trkpt>
      <trkpt lat="43.80794" lon="6.19617">
        <ele>735.2</ele>
        <time>2020-06-06T14:26:05Z</time>
      </trkpt>
      <trkpt lat="43.80797" lon="6.19604">
        <ele>734.8</ele>
        <time>2020-06-06T14:26:11Z</time>
      </trkpt>
      <trkpt lat="43.80799" lon="6.19591">
        <ele>734.3</ele>
        <time>2020-06-06T14:26:18Z</time>
      </trkpt>
      <trkpt lat="43.80803" lon="6.19578">
        <ele>733.9</ele>
        <time>2020-06-06T14:26:26Z</time>
      </trkpt>
      <trkpt lat="43.80805" lon="6.19565">
        <ele>733.6</ele>
        <time>2020-06-06T14:26:33Z</time>
      </trkpt>
      <trkpt lat="43.80809" lon="6.19552">
        <ele>733.3</ele>
        <time>2020-06-06T14:26:40Z</time>
      </trkpt>
      <trkpt lat="43.80811" lon="6.19539">
        <ele>732.9</ele>
        <time>2020-06-06T14:26:48Z</time>
      </trkpt>
      <trkpt lat="43.80813" lon="6.19525">
        <ele>732.7</ele>
        <time>2020-06-06T14:26:55Z</time>
      </trkpt>
      <trkpt lat="43.80814" lon="6.19512">
        <ele>732.4</ele>
        <time>2020-06-06T14:27:02Z</time>
      </trkpt>
      <trkpt lat="43.80815" lon="6.19498">
        <ele>732.1</ele>
        <time>2020-06-06T14:27:09Z</time>
      </trkpt>
      <trkpt lat="43.80819" lon="6.19486">
        <ele>731.8</ele>
        <time>2020-06-06T14:27:15Z</time>
      </trkpt>
      <trkpt lat="43.80821" lon="6.19472">
        <ele>731</ele>
        <time>2020-06-06T14:27:22Z</time>
      </trkpt>
      <trkpt lat="43.80824" lon="6.1946">
        <ele>730.6</ele>
        <time>2020-06-06T14:27:29Z</time>
      </trkpt>
      <trkpt lat="43.80826" lon="6.19446">
        <ele>730.4</ele>
        <time>2020-06-06T14:27:36Z</time>
      </trkpt>
      <trkpt lat="43.80828" lon="6.19434">
        <ele>730.1</ele>
        <time>2020-06-06T14:27:42Z</time>
      </trkpt>
      <trkpt lat="43.80827" lon="6.1942">
        <ele>729.4</ele>
        <time>2020-06-06T14:27:48Z</time>
      </trkpt>
      <trkpt lat="43.8083" lon="6.19407">
        <ele>728.6</ele>
        <time>2020-06-06T14:27:54Z</time>
      </trkpt>
      <trkpt lat="43.80836" lon="6.19397">
        <ele>727.9</ele>
        <time>2020-06-06T14:28:03Z</time>
      </trkpt>
      <trkpt lat="43.80843" lon="6.19387">
        <ele>727.3</ele>
        <time>2020-06-06T14:28:09Z</time>
      </trkpt>
      <trkpt lat="43.80849" lon="6.19378">
        <ele>726.2</ele>
        <time>2020-06-06T14:28:15Z</time>
      </trkpt>
      <trkpt lat="43.80857" lon="6.1937">
        <ele>725.1</ele>
        <time>2020-06-06T14:28:22Z</time>
      </trkpt>
      <trkpt lat="43.80865" lon="6.19362">
        <ele>724.4</ele>
        <time>2020-06-06T14:28:29Z</time>
      </trkpt>
      <trkpt lat="43.80872" lon="6.19354">
        <ele>724.1</ele>
        <time>2020-06-06T14:28:36Z</time>
      </trkpt>
      <trkpt lat="43.8088" lon="6.19348">
        <ele>724.2</ele>
        <time>2020-06-06T14:28:43Z</time>
      </trkpt>
      <trkpt lat="43.80889" lon="6.1934">
        <ele>724.6</ele>
        <time>2020-06-06T14:28:51Z</time>
      </trkpt>
      <trkpt lat="43.80896" lon="6.19331">
        <ele>725.2</ele>
        <time>2020-06-06T14:28:59Z</time>
      </trkpt>
      <trkpt lat="43.80904" lon="6.19324">
        <ele>725.9</ele>
        <time>2020-06-06T14:29:06Z</time>
      </trkpt>
      <trkpt lat="43.80913" lon="6.19316">
        <ele>726.7</ele>
        <time>2020-06-06T14:29:13Z</time>
      </trkpt>
      <trkpt lat="43.8092" lon="6.19305">
        <ele>727.4</ele>
        <time>2020-06-06T14:29:20Z</time>
      </trkpt>
      <trkpt lat="43.80925" lon="6.19295">
        <ele>728</ele>
        <time>2020-06-06T14:29:26Z</time>
      </trkpt>
      <trkpt lat="43.80926" lon="6.19282">
        <ele>728.7</ele>
        <time>2020-06-06T14:29:35Z</time>
      </trkpt>
      <trkpt lat="43.80922" lon="6.19271">
        <ele>729</ele>
        <time>2020-06-06T14:29:40Z</time>
      </trkpt>
      <trkpt lat="43.80916" lon="6.19259">
        <ele>729.2</ele>
        <time>2020-06-06T14:29:47Z</time>
      </trkpt>
      <trkpt lat="43.80912" lon="6.19246">
        <ele>729.2</ele>
        <time>2020-06-06T14:29:54Z</time>
      </trkpt>
      <trkpt lat="43.80911" lon="6.19233">
        <ele>729</ele>
        <time>2020-06-06T14:30:00Z</time>
      </trkpt>
      <trkpt lat="43.80911" lon="6.19219">
        <ele>728.9</ele>
        <time>2020-06-06T14:30:04Z</time>
      </trkpt>
      <trkpt lat="43.80913" lon="6.19206">
        <ele>728.8</ele>
        <time>2020-06-06T14:30:10Z</time>
      </trkpt>
      <trkpt lat="43.80915" lon="6.19194">
        <ele>728.7</ele>
        <time>2020-06-06T14:30:16Z</time>
      </trkpt>
      <trkpt lat="43.80919" lon="6.1918">
        <ele>728.5</ele>
        <time>2020-06-06T14:30:22Z</time>
      </trkpt>
      <trkpt lat="43.80923" lon="6.19167">
        <ele>728.4</ele>
        <time>2020-06-06T14:30:30Z</time>
      </trkpt>
      <trkpt lat="43.80927" lon="6.19156">
        <ele>728.3</ele>
        <time>2020-06-06T14:30:36Z</time>
      </trkpt>
      <trkpt lat="43.80931" lon="6.19142">
        <ele>728.2</ele>
        <time>2020-06-06T14:30:42Z</time>
      </trkpt>
      <trkpt lat="43.80936" lon="6.1913">
        <ele>728.1</ele>
        <time>2020-06-06T14:30:48Z</time>
      </trkpt>
      <trkpt lat="43.80939" lon="6.19117">
        <ele>728</ele>
        <time>2020-06-06T14:30:53Z</time>
      </trkpt>
      <trkpt lat="43.80941" lon="6.19105">
        <ele>727.9</ele>
        <time>2020-06-06T14:30:59Z</time>
      </trkpt>
      <trkpt lat="43.80945" lon="6.19091">
        <ele>727.6</ele>
        <time>2020-06-06T14:31:06Z</time>
      </trkpt>
      <trkpt lat="43.80949" lon="6.19079">
        <ele>727.3</ele>
        <time>2020-06-06T14:31:12Z</time>
      </trkpt>
      <trkpt lat="43.80953" lon="6.19067">
        <ele>727.1</ele>
        <time>2020-06-06T14:31:19Z</time>
      </trkpt>
      <trkpt lat="43.80954" lon="6.19054">
        <ele>727</ele>
        <time>2020-06-06T14:31:26Z</time>
      </trkpt>
      <trkpt lat="43.80957" lon="6.1904">
        <ele>726.8</ele>
        <time>2020-06-06T14:31:31Z</time>
      </trkpt>
      <trkpt lat="43.80959" lon="6.19028">
        <ele>726.7</ele>
        <time>2020-06-06T14:31:37Z</time>
      </trkpt>
      <trkpt lat="43.80963" lon="6.19016">
        <ele>726.6</ele>
        <time>2020-06-06T14:31:44Z</time>
      </trkpt>
      <trkpt lat="43.80967" lon="6.19005">
        <ele>726.5</ele>
        <time>2020-06-06T14:31:51Z</time>
      </trkpt>
      <trkpt lat="43.80971" lon="6.18992">
        <ele>726.3</ele>
        <time>2020-06-06T14:31:57Z</time>
      </trkpt>
      <trkpt lat="43.80975" lon="6.1898">
        <ele>726</ele>
        <time>2020-06-06T14:32:04Z</time>
      </trkpt>
      <trkpt lat="43.8098" lon="6.18969">
        <ele>725.7</ele>
        <time>2020-06-06T14:32:10Z</time>
      </trkpt>
      <trkpt lat="43.80983" lon="6.18956">
        <ele>725.4</ele>
        <time>2020-06-06T14:32:16Z</time>
      </trkpt>
      <trkpt lat="43.80986" lon="6.18943">
        <ele>725</ele>
        <time>2020-06-06T14:32:23Z</time>
      </trkpt>
      <trkpt lat="43.8099" lon="6.18931">
        <ele>724.8</ele>
        <time>2020-06-06T14:32:29Z</time>
      </trkpt>
      <trkpt lat="43.80994" lon="6.18919">
        <ele>724.7</ele>
        <time>2020-06-06T14:32:34Z</time>
      </trkpt>
      <trkpt lat="43.80997" lon="6.18906">
        <ele>724.5</ele>
        <time>2020-06-06T14:32:40Z</time>
      </trkpt>
      <trkpt lat="43.80999" lon="6.18894">
        <ele>724.4</ele>
        <time>2020-06-06T14:32:46Z</time>
      </trkpt>
      <trkpt lat="43.81003" lon="6.1888">
        <ele>724.3</ele>
        <time>2020-06-06T14:32:53Z</time>
      </trkpt>
      <trkpt lat="43.81007" lon="6.18868">
        <ele>724</ele>
        <time>2020-06-06T14:33:00Z</time>
      </trkpt>
      <trkpt lat="43.8101" lon="6.18855">
        <ele>723.9</ele>
        <time>2020-06-06T14:33:06Z</time>
      </trkpt>
      <trkpt lat="43.81013" lon="6.18841">
        <ele>723.8</ele>
        <time>2020-06-06T14:33:14Z</time>
      </trkpt>
      <trkpt lat="43.81017" lon="6.18828">
        <ele>723.7</ele>
        <time>2020-06-06T14:33:20Z</time>
      </trkpt>
      <trkpt lat="43.81021" lon="6.18816">
        <ele>723.6</ele>
        <time>2020-06-06T14:33:26Z</time>
      </trkpt>
      <trkpt lat="43.81024" lon="6.18803">
        <ele>723.4</ele>
        <time>2020-06-06T14:33:32Z</time>
      </trkpt>
      <trkpt lat="43.81027" lon="6.18791">
        <ele>723.1</ele>
        <time>2020-06-06T14:33:38Z</time>
      </trkpt>
      <trkpt lat="43.8103" lon="6.18779">
        <ele>722.9</ele>
        <time>2020-06-06T14:33:44Z</time>
      </trkpt>
      <trkpt lat="43.81033" lon="6.18766">
        <ele>722.8</ele>
        <time>2020-06-06T14:33:50Z</time>
      </trkpt>
      <trkpt lat="43.81037" lon="6.18752">
        <ele>722.5</ele>
        <time>2020-06-06T14:33:56Z</time>
      </trkpt>
      <trkpt lat="43.81039" lon="6.18739">
        <ele>722.3</ele>
        <time>2020-06-06T14:34:01Z</time>
      </trkpt>
      <trkpt lat="43.8104" lon="6.18725">
        <ele>721.9</ele>
        <time>2020-06-06T14:34:09Z</time>
      </trkpt>
      <trkpt lat="43.81042" lon="6.18713">
        <ele>721.6</ele>
        <time>2020-06-06T14:34:16Z</time>
      </trkpt>
      <trkpt lat="43.81048" lon="6.187">
        <ele>721.2</ele>
        <time>2020-06-06T14:34:22Z</time>
      </trkpt>
      <trkpt lat="43.8105" lon="6.18688">
        <ele>721</ele>
        <time>2020-06-06T14:34:27Z</time>
      </trkpt>
      <trkpt lat="43.81051" lon="6.18673">
        <ele>720.8</ele>
        <time>2020-06-06T14:34:34Z</time>
      </trkpt>
      <trkpt lat="43.81053" lon="6.18659">
        <ele>720.6</ele>
        <time>2020-06-06T14:34:41Z</time>
      </trkpt>
      <trkpt lat="43.81056" lon="6.18647">
        <ele>720.3</ele>
        <time>2020-06-06T14:34:47Z</time>
      </trkpt>
      <trkpt lat="43.81058" lon="6.18634">
        <ele>720.2</ele>
        <time>2020-06-06T14:34:52Z</time>
      </trkpt>
      <trkpt lat="43.81061" lon="6.18621">
        <ele>719.8</ele>
        <time>2020-06-06T14:34:58Z</time>
      </trkpt>
      <trkpt lat="43.81061" lon="6.18608">
        <ele>719.6</ele>
        <time>2020-06-06T14:35:03Z</time>
      </trkpt>
      <trkpt lat="43.81061" lon="6.18595">
        <ele>719.3</ele>
        <time>2020-06-06T14:35:09Z</time>
      </trkpt>
      <trkpt lat="43.81061" lon="6.18582">
        <ele>719.1</ele>
        <time>2020-06-06T14:35:14Z</time>
      </trkpt>
      <trkpt lat="43.81063" lon="6.18569">
        <ele>718.6</ele>
        <time>2020-06-06T14:35:20Z</time>
      </trkpt>
      <trkpt lat="43.81064" lon="6.18554">
        <ele>718.3</ele>
        <time>2020-06-06T14:35:27Z</time>
      </trkpt>
      <trkpt lat="43.81065" lon="6.18542">
        <ele>718.1</ele>
        <time>2020-06-06T14:35:34Z</time>
      </trkpt>
      <trkpt lat="43.81066" lon="6.18528">
        <ele>717.9</ele>
        <time>2020-06-06T14:35:40Z</time>
      </trkpt>
      <trkpt lat="43.81067" lon="6.18514">
        <ele>717.6</ele>
        <time>2020-06-06T14:35:47Z</time>
      </trkpt>
      <trkpt lat="43.81068" lon="6.18501">
        <ele>717.5</ele>
        <time>2020-06-06T14:35:53Z</time>
      </trkpt>
      <trkpt lat="43.8107" lon="6.18487">
        <ele>717.4</ele>
        <time>2020-06-06T14:35:59Z</time>
      </trkpt>
      <trkpt lat="43.81073" lon="6.18474">
        <ele>717.3</ele>
        <time>2020-06-06T14:36:06Z</time>
      </trkpt>
      <trkpt lat="43.81074" lon="6.18462">
        <ele>717.2</ele>
        <time>2020-06-06T14:36:12Z</time>
      </trkpt>
      <trkpt lat="43.81076" lon="6.18448">
        <ele>717.2</ele>
        <time>2020-06-06T14:36:19Z</time>
      </trkpt>
      <trkpt lat="43.81079" lon="6.18435">
        <ele>717.2</ele>
        <time>2020-06-06T14:36:26Z</time>
      </trkpt>
      <trkpt lat="43.81081" lon="6.18421">
        <ele>717.2</ele>
        <time>2020-06-06T14:36:34Z</time>
      </trkpt>
      <trkpt lat="43.81084" lon="6.18408">
        <ele>717.2</ele>
        <time>2020-06-06T14:37:07Z</time>
      </trkpt>
      <trkpt lat="43.81088" lon="6.18397">
        <ele>717.2</ele>
        <time>2020-06-06T14:37:12Z</time>
      </trkpt>
      <trkpt lat="43.81093" lon="6.18385">
        <ele>717.1</ele>
        <time>2020-06-06T14:37:22Z</time>
      </trkpt>
      <trkpt lat="43.81102" lon="6.18379">
        <ele>716.7</ele>
        <time>2020-06-06T14:37:52Z</time>
      </trkpt>
      <trkpt lat="43.81109" lon="6.18369">
        <ele>716.7</ele>
        <time>2020-06-06T14:38:42Z</time>
      </trkpt>
      <trkpt lat="43.81116" lon="6.18359">
        <ele>716.8</ele>
        <time>2020-06-06T14:38:50Z</time>
      </trkpt>
      <trkpt lat="43.81123" lon="6.18349">
        <ele>716.8</ele>
        <time>2020-06-06T14:38:56Z</time>
      </trkpt>
      <trkpt lat="43.81129" lon="6.18339">
        <ele>716.7</ele>
        <time>2020-06-06T14:39:03Z</time>
      </trkpt>
      <trkpt lat="43.81137" lon="6.18329">
        <ele>716.6</ele>
        <time>2020-06-06T14:39:11Z</time>
      </trkpt>
      <trkpt lat="43.81142" lon="6.18318">
        <ele>716.4</ele>
        <time>2020-06-06T14:39:20Z</time>
      </trkpt>
      <trkpt lat="43.81142" lon="6.18305">
        <ele>716.3</ele>
        <time>2020-06-06T14:39:37Z</time>
      </trkpt>
      <trkpt lat="43.81146" lon="6.18293">
        <ele>716.2</ele>
        <time>2020-06-06T14:39:44Z</time>
      </trkpt>
      <trkpt lat="43.81154" lon="6.18286">
        <ele>716.1</ele>
        <time>2020-06-06T14:39:55Z</time>
      </trkpt>
      <trkpt lat="43.81163" lon="6.18281">
        <ele>716</ele>
        <time>2020-06-06T14:40:05Z</time>
      </trkpt>
      <trkpt lat="43.81158" lon="6.1827">
        <ele>715.7</ele>
        <time>2020-06-06T14:40:19Z</time>
      </trkpt>
      <trkpt lat="43.8115" lon="6.18262">
        <ele>715.4</ele>
        <time>2020-06-06T14:40:27Z</time>
      </trkpt>
      <trkpt lat="43.81144" lon="6.18254">
        <ele>715</ele>
        <time>2020-06-06T14:40:35Z</time>
      </trkpt>
      <trkpt lat="43.81135" lon="6.18246">
        <ele>714.6</ele>
        <time>2020-06-06T14:40:42Z</time>
      </trkpt>
      <trkpt lat="43.81128" lon="6.18239">
        <ele>714.4</ele>
        <time>2020-06-06T14:40:47Z</time>
      </trkpt>
      <trkpt lat="43.81121" lon="6.1823">
        <ele>714.2</ele>
        <time>2020-06-06T14:40:52Z</time>
      </trkpt>
      <trkpt lat="43.8112" lon="6.18217">
        <ele>713.8</ele>
        <time>2020-06-06T14:40:59Z</time>
      </trkpt>
      <trkpt lat="43.81123" lon="6.18206">
        <ele>713.5</ele>
        <time>2020-06-06T14:41:04Z</time>
      </trkpt>
      <trkpt lat="43.81127" lon="6.18192">
        <ele>713.2</ele>
        <time>2020-06-06T14:41:10Z</time>
      </trkpt>
      <trkpt lat="43.81131" lon="6.1818">
        <ele>713</ele>
        <time>2020-06-06T14:41:15Z</time>
      </trkpt>
      <trkpt lat="43.81135" lon="6.18168">
        <ele>712.9</ele>
        <time>2020-06-06T14:41:20Z</time>
      </trkpt>
      <trkpt lat="43.81141" lon="6.18157">
        <ele>712.6</ele>
        <time>2020-06-06T14:41:27Z</time>
      </trkpt>
      <trkpt lat="43.81146" lon="6.18147">
        <ele>712.3</ele>
        <time>2020-06-06T14:41:33Z</time>
      </trkpt>
      <trkpt lat="43.81152" lon="6.18136">
        <ele>712</ele>
        <time>2020-06-06T14:41:40Z</time>
      </trkpt>
      <trkpt lat="43.81159" lon="6.18125">
        <ele>711.7</ele>
        <time>2020-06-06T14:41:47Z</time>
      </trkpt>
      <trkpt lat="43.81165" lon="6.18114">
        <ele>711.1</ele>
        <time>2020-06-06T14:41:54Z</time>
      </trkpt>
      <trkpt lat="43.81172" lon="6.18104">
        <ele>710.6</ele>
        <time>2020-06-06T14:42:01Z</time>
      </trkpt>
      <trkpt lat="43.81178" lon="6.18092">
        <ele>710.2</ele>
        <time>2020-06-06T14:42:08Z</time>
      </trkpt>
      <trkpt lat="43.81184" lon="6.18081">
        <ele>710</ele>
        <time>2020-06-06T14:42:15Z</time>
      </trkpt>
      <trkpt lat="43.8119" lon="6.18071">
        <ele>709.7</ele>
        <time>2020-06-06T14:42:21Z</time>
      </trkpt>
      <trkpt lat="43.81195" lon="6.1806">
        <ele>709.5</ele>
        <time>2020-06-06T14:42:27Z</time>
      </trkpt>
      <trkpt lat="43.81202" lon="6.18049">
        <ele>709.3</ele>
        <time>2020-06-06T14:42:34Z</time>
      </trkpt>
      <trkpt lat="43.81207" lon="6.18038">
        <ele>709.1</ele>
        <time>2020-06-06T14:42:40Z</time>
      </trkpt>
      <trkpt lat="43.81212" lon="6.18028">
        <ele>708.9</ele>
        <time>2020-06-06T14:42:46Z</time>
      </trkpt>
      <trkpt lat="43.81218" lon="6.18018">
        <ele>708.7</ele>
        <time>2020-06-06T14:42:52Z</time>
      </trkpt>
      <trkpt lat="43.81224" lon="6.18008">
        <ele>708.5</ele>
        <time>2020-06-06T14:42:59Z</time>
      </trkpt>
      <trkpt lat="43.8123" lon="6.17998">
        <ele>708.4</ele>
        <time>2020-06-06T14:43:05Z</time>
      </trkpt>
      <trkpt lat="43.81235" lon="6.17987">
        <ele>708.3</ele>
        <time>2020-06-06T14:43:12Z</time>
      </trkpt>
      <trkpt lat="43.81241" lon="6.17975">
        <ele>708.2</ele>
        <time>2020-06-06T14:43:19Z</time>
      </trkpt>
      <trkpt lat="43.81247" lon="6.17964">
        <ele>708.4</ele>
        <time>2020-06-06T14:43:26Z</time>
      </trkpt>
      <trkpt lat="43.81254" lon="6.17954">
        <ele>708.9</ele>
        <time>2020-06-06T14:43:33Z</time>
      </trkpt>
      <trkpt lat="43.81261" lon="6.17943">
        <ele>709.1</ele>
        <time>2020-06-06T14:43:40Z</time>
      </trkpt>
      <trkpt lat="43.81267" lon="6.17932">
        <ele>709.3</ele>
        <time>2020-06-06T14:43:47Z</time>
      </trkpt>
      <trkpt lat="43.81273" lon="6.17921">
        <ele>709.5</ele>
        <time>2020-06-06T14:43:54Z</time>
      </trkpt>
      <trkpt lat="43.8128" lon="6.17912">
        <ele>709.7</ele>
        <time>2020-06-06T14:44:01Z</time>
      </trkpt>
      <trkpt lat="43.81286" lon="6.17902">
        <ele>710.1</ele>
        <time>2020-06-06T14:44:08Z</time>
      </trkpt>
      <trkpt lat="43.81292" lon="6.17891">
        <ele>710.6</ele>
        <time>2020-06-06T14:44:15Z</time>
      </trkpt>
      <trkpt lat="43.81297" lon="6.17878">
        <ele>711</ele>
        <time>2020-06-06T14:44:22Z</time>
      </trkpt>
      <trkpt lat="43.81301" lon="6.17867">
        <ele>711.2</ele>
        <time>2020-06-06T14:44:27Z</time>
      </trkpt>
      <trkpt lat="43.81304" lon="6.17854">
        <ele>711.4</ele>
        <time>2020-06-06T14:44:33Z</time>
      </trkpt>
      <trkpt lat="43.8131" lon="6.17843">
        <ele>711.6</ele>
        <time>2020-06-06T14:44:40Z</time>
      </trkpt>
      <trkpt lat="43.81314" lon="6.1783">
        <ele>711.6</ele>
        <time>2020-06-06T14:44:47Z</time>
      </trkpt>
      <trkpt lat="43.8132" lon="6.17819">
        <ele>711.7</ele>
        <time>2020-06-06T14:44:54Z</time>
      </trkpt>
      <trkpt lat="43.81326" lon="6.1781">
        <ele>712</ele>
        <time>2020-06-06T14:45:02Z</time>
      </trkpt>
      <trkpt lat="43.81335" lon="6.17807">
        <ele>712.2</ele>
        <time>2020-06-06T14:45:10Z</time>
      </trkpt>
      <trkpt lat="43.81344" lon="6.17801">
        <ele>712.3</ele>
        <time>2020-06-06T14:45:18Z</time>
      </trkpt>
      <trkpt lat="43.81354" lon="6.17796">
        <ele>712.3</ele>
        <time>2020-06-06T14:45:26Z</time>
      </trkpt>
      <trkpt lat="43.81363" lon="6.17792">
        <ele>712.4</ele>
        <time>2020-06-06T14:45:33Z</time>
      </trkpt>
      <trkpt lat="43.81372" lon="6.17788">
        <ele>712.3</ele>
        <time>2020-06-06T14:45:39Z</time>
      </trkpt>
      <trkpt lat="43.81381" lon="6.17783">
        <ele>712.3</ele>
        <time>2020-06-06T14:45:45Z</time>
      </trkpt>
      <trkpt lat="43.8139" lon="6.17778">
        <ele>712.3</ele>
        <time>2020-06-06T14:45:52Z</time>
      </trkpt>
      <trkpt lat="43.81398" lon="6.17773">
        <ele>712.3</ele>
        <time>2020-06-06T14:45:58Z</time>
      </trkpt>
      <trkpt lat="43.81408" lon="6.17767">
        <ele>712.5</ele>
        <time>2020-06-06T14:46:06Z</time>
      </trkpt>
      <trkpt lat="43.81417" lon="6.17763">
        <ele>712.8</ele>
        <time>2020-06-06T14:46:12Z</time>
      </trkpt>
      <trkpt lat="43.81426" lon="6.17758">
        <ele>713</ele>
        <time>2020-06-06T14:46:19Z</time>
      </trkpt>
      <trkpt lat="43.81436" lon="6.17753">
        <ele>713.3</ele>
        <time>2020-06-06T14:46:27Z</time>
      </trkpt>
      <trkpt lat="43.81444" lon="6.1775">
        <ele>713.5</ele>
        <time>2020-06-06T14:46:33Z</time>
      </trkpt>
      <trkpt lat="43.81453" lon="6.17744">
        <ele>713.9</ele>
        <time>2020-06-06T14:46:40Z</time>
      </trkpt>
      <trkpt lat="43.81462" lon="6.17739">
        <ele>714.2</ele>
        <time>2020-06-06T14:46:47Z</time>
      </trkpt>
      <trkpt lat="43.81472" lon="6.17734">
        <ele>714.5</ele>
        <time>2020-06-06T14:46:54Z</time>
      </trkpt>
      <trkpt lat="43.81482" lon="6.17729">
        <ele>714.7</ele>
        <time>2020-06-06T14:47:00Z</time>
      </trkpt>
      <trkpt lat="43.81491" lon="6.17725">
        <ele>714.9</ele>
        <time>2020-06-06T14:47:06Z</time>
      </trkpt>
      <trkpt lat="43.815" lon="6.1772">
        <ele>715</ele>
        <time>2020-06-06T14:47:13Z</time>
      </trkpt>
      <trkpt lat="43.8151" lon="6.17715">
        <ele>715.1</ele>
        <time>2020-06-06T14:47:20Z</time>
      </trkpt>
      <trkpt lat="43.81519" lon="6.1771">
        <ele>715.2</ele>
        <time>2020-06-06T14:47:27Z</time>
      </trkpt>
      <trkpt lat="43.81529" lon="6.17708">
        <ele>715.3</ele>
        <time>2020-06-06T14:47:33Z</time>
      </trkpt>
      <trkpt lat="43.81539" lon="6.17703">
        <ele>715.4</ele>
        <time>2020-06-06T14:47:40Z</time>
      </trkpt>
      <trkpt lat="43.81548" lon="6.17698">
        <ele>715.4</ele>
        <time>2020-06-06T14:47:47Z</time>
      </trkpt>
      <trkpt lat="43.81557" lon="6.17693">
        <ele>715.4</ele>
        <time>2020-06-06T14:47:54Z</time>
      </trkpt>
      <trkpt lat="43.81567" lon="6.17687">
        <ele>715.2</ele>
        <time>2020-06-06T14:48:01Z</time>
      </trkpt>
      <trkpt lat="43.81576" lon="6.17683">
        <ele>715.1</ele>
        <time>2020-06-06T14:48:07Z</time>
      </trkpt>
      <trkpt lat="43.81585" lon="6.17678">
        <ele>715.1</ele>
        <time>2020-06-06T14:48:13Z</time>
      </trkpt>
      <trkpt lat="43.81594" lon="6.17673">
        <ele>714.7</ele>
        <time>2020-06-06T14:48:20Z</time>
      </trkpt>
      <trkpt lat="43.81603" lon="6.1767">
        <ele>713.8</ele>
        <time>2020-06-06T14:48:27Z</time>
      </trkpt>
      <trkpt lat="43.81613" lon="6.17672">
        <ele>713.1</ele>
        <time>2020-06-06T14:48:35Z</time>
      </trkpt>
      <trkpt lat="43.81618" lon="6.17684">
        <ele>712.6</ele>
        <time>2020-06-06T14:48:45Z</time>
      </trkpt>
      <trkpt lat="43.81625" lon="6.17693">
        <ele>712.3</ele>
        <time>2020-06-06T14:48:53Z</time>
      </trkpt>
      <trkpt lat="43.81633" lon="6.17703">
        <ele>712.2</ele>
        <time>2020-06-06T14:49:00Z</time>
      </trkpt>
      <trkpt lat="43.8164" lon="6.17713">
        <ele>712.1</ele>
        <time>2020-06-06T14:49:07Z</time>
      </trkpt>
      <trkpt lat="43.81647" lon="6.17723">
        <ele>712.1</ele>
        <time>2020-06-06T14:49:14Z</time>
      </trkpt>
      <trkpt lat="43.81653" lon="6.17733">
        <ele>712.2</ele>
        <time>2020-06-06T14:49:20Z</time>
      </trkpt>
      <trkpt lat="43.81661" lon="6.17743">
        <ele>712.5</ele>
        <time>2020-06-06T14:49:26Z</time>
      </trkpt>
      <trkpt lat="43.81668" lon="6.17752">
        <ele>712.6</ele>
        <time>2020-06-06T14:49:32Z</time>
      </trkpt>
      <trkpt lat="43.81673" lon="6.17762">
        <ele>713</ele>
        <time>2020-06-06T14:49:39Z</time>
      </trkpt>
      <trkpt lat="43.81678" lon="6.17774">
        <ele>713.3</ele>
        <time>2020-06-06T14:49:46Z</time>
      </trkpt>
      <trkpt lat="43.81684" lon="6.17784">
        <ele>713.9</ele>
        <time>2020-06-06T14:49:53Z</time>
      </trkpt>
      <trkpt lat="43.81691" lon="6.17794">
        <ele>714.3</ele>
        <time>2020-06-06T14:50:00Z</time>
      </trkpt>
      <trkpt lat="43.81699" lon="6.17802">
        <ele>714.5</ele>
        <time>2020-06-06T14:50:06Z</time>
      </trkpt>
      <trkpt lat="43.81706" lon="6.17811">
        <ele>714.7</ele>
        <time>2020-06-06T14:50:12Z</time>
      </trkpt>
      <trkpt lat="43.81713" lon="6.17821">
        <ele>714.8</ele>
        <time>2020-06-06T14:50:19Z</time>
      </trkpt>
      <trkpt lat="43.8172" lon="6.17831">
        <ele>714.9</ele>
        <time>2020-06-06T14:50:25Z</time>
      </trkpt>
      <trkpt lat="43.81726" lon="6.17841">
        <ele>715</ele>
        <time>2020-06-06T14:50:31Z</time>
      </trkpt>
      <trkpt lat="43.81732" lon="6.17852">
        <ele>715.1</ele>
        <time>2020-06-06T14:50:38Z</time>
      </trkpt>
      <trkpt lat="43.81737" lon="6.17862">
        <ele>715.3</ele>
        <time>2020-06-06T14:50:44Z</time>
      </trkpt>
      <trkpt lat="43.81742" lon="6.17875">
        <ele>715.4</ele>
        <time>2020-06-06T14:50:51Z</time>
      </trkpt>
      <trkpt lat="43.81748" lon="6.17885">
        <ele>715.7</ele>
        <time>2020-06-06T14:50:57Z</time>
      </trkpt>
      <trkpt lat="43.81753" lon="6.17897">
        <ele>716</ele>
        <time>2020-06-06T14:51:04Z</time>
      </trkpt>
      <trkpt lat="43.81758" lon="6.17908">
        <ele>716.2</ele>
        <time>2020-06-06T14:51:10Z</time>
      </trkpt>
      <trkpt lat="43.81762" lon="6.1792">
        <ele>716.5</ele>
        <time>2020-06-06T14:51:17Z</time>
      </trkpt>
      <trkpt lat="43.81766" lon="6.17932">
        <ele>716.8</ele>
        <time>2020-06-06T14:51:24Z</time>
      </trkpt>
      <trkpt lat="43.81769" lon="6.17945">
        <ele>717</ele>
        <time>2020-06-06T14:51:31Z</time>
      </trkpt>
      <trkpt lat="43.81774" lon="6.17958">
        <ele>717.3</ele>
        <time>2020-06-06T14:51:38Z</time>
      </trkpt>
      <trkpt lat="43.81776" lon="6.17971">
        <ele>717.7</ele>
        <time>2020-06-06T14:51:45Z</time>
      </trkpt>
      <trkpt lat="43.8178" lon="6.17982">
        <ele>718</ele>
        <time>2020-06-06T14:51:51Z</time>
      </trkpt>
      <trkpt lat="43.81785" lon="6.17994">
        <ele>718.3</ele>
        <time>2020-06-06T14:51:57Z</time>
      </trkpt>
      <trkpt lat="43.8179" lon="6.18005">
        <ele>718.6</ele>
        <time>2020-06-06T14:52:03Z</time>
      </trkpt>
      <trkpt lat="43.81794" lon="6.18016">
        <ele>718.8</ele>
        <time>2020-06-06T14:52:09Z</time>
      </trkpt>
      <trkpt lat="43.818" lon="6.18028">
        <ele>719</ele>
        <time>2020-06-06T14:52:16Z</time>
      </trkpt>
      <trkpt lat="43.81804" lon="6.1804">
        <ele>719.3</ele>
        <time>2020-06-06T14:52:23Z</time>
      </trkpt>
      <trkpt lat="43.81809" lon="6.18053">
        <ele>719.6</ele>
        <time>2020-06-06T14:52:31Z</time>
      </trkpt>
      <trkpt lat="43.81817" lon="6.18061">
        <ele>720.1</ele>
        <time>2020-06-06T14:52:39Z</time>
      </trkpt>
      <trkpt lat="43.81826" lon="6.18062">
        <ele>720.2</ele>
        <time>2020-06-06T14:52:42Z</time>
      </trkpt>
      <trkpt lat="43.81836" lon="6.18059">
        <ele>720.3</ele>
        <time>2020-06-06T14:52:45Z</time>
      </trkpt>
      <trkpt lat="43.81845" lon="6.18056">
        <ele>720.6</ele>
        <time>2020-06-06T14:52:48Z</time>
      </trkpt>
      <trkpt lat="43.81855" lon="6.18052">
        <ele>720.9</ele>
        <time>2020-06-06T14:52:51Z</time>
      </trkpt>
      <trkpt lat="43.81864" lon="6.18049">
        <ele>721.3</ele>
        <time>2020-06-06T14:52:54Z</time>
      </trkpt>
      <trkpt lat="43.81874" lon="6.18045">
        <ele>721.8</ele>
        <time>2020-06-06T14:52:58Z</time>
      </trkpt>
      <trkpt lat="43.81884" lon="6.18042">
        <ele>722.5</ele>
        <time>2020-06-06T14:53:04Z</time>
      </trkpt>
      <trkpt lat="43.81893" lon="6.18038">
        <ele>723.2</ele>
        <time>2020-06-06T14:53:11Z</time>
      </trkpt>
      <trkpt lat="43.81902" lon="6.18032">
        <ele>723.8</ele>
        <time>2020-06-06T14:53:17Z</time>
      </trkpt>
      <trkpt lat="43.81911" lon="6.18028">
        <ele>724.4</ele>
        <time>2020-06-06T14:53:24Z</time>
      </trkpt>
      <trkpt lat="43.81921" lon="6.18023">
        <ele>725</ele>
        <time>2020-06-06T14:53:31Z</time>
      </trkpt>
      <trkpt lat="43.81929" lon="6.18018">
        <ele>725.2</ele>
        <time>2020-06-06T14:53:35Z</time>
      </trkpt>
      <trkpt lat="43.81939" lon="6.18013">
        <ele>725.4</ele>
        <time>2020-06-06T14:53:39Z</time>
      </trkpt>
      <trkpt lat="43.81949" lon="6.1801">
        <ele>725.8</ele>
        <time>2020-06-06T14:53:45Z</time>
      </trkpt>
      <trkpt lat="43.81959" lon="6.18005">
        <ele>726.1</ele>
        <time>2020-06-06T14:53:52Z</time>
      </trkpt>
      <trkpt lat="43.81969" lon="6.18">
        <ele>726.2</ele>
        <time>2020-06-06T14:53:57Z</time>
      </trkpt>
      <trkpt lat="43.81977" lon="6.17996">
        <ele>726.3</ele>
        <time>2020-06-06T14:54:01Z</time>
      </trkpt>
      <trkpt lat="43.81987" lon="6.17993">
        <ele>726.3</ele>
        <time>2020-06-06T14:54:08Z</time>
      </trkpt>
      <trkpt lat="43.81996" lon="6.17989">
        <ele>726.3</ele>
        <time>2020-06-06T14:54:16Z</time>
      </trkpt>
      <trkpt lat="43.82006" lon="6.17985">
        <ele>726.3</ele>
        <time>2020-06-06T14:54:22Z</time>
      </trkpt>
      <trkpt lat="43.82016" lon="6.17981">
        <ele>726.4</ele>
        <time>2020-06-06T14:54:29Z</time>
      </trkpt>
      <trkpt lat="43.82024" lon="6.17978">
        <ele>726.4</ele>
        <time>2020-06-06T14:54:35Z</time>
      </trkpt>
      <trkpt lat="43.82034" lon="6.17975">
        <ele>726.5</ele>
        <time>2020-06-06T14:54:42Z</time>
      </trkpt>
      <trkpt lat="43.82043" lon="6.1797">
        <ele>726.7</ele>
        <time>2020-06-06T14:54:49Z</time>
      </trkpt>
      <trkpt lat="43.82052" lon="6.17965">
        <ele>726.8</ele>
        <time>2020-06-06T14:54:56Z</time>
      </trkpt>
      <trkpt lat="43.82061" lon="6.17962">
        <ele>727</ele>
        <time>2020-06-06T14:55:02Z</time>
      </trkpt>
      <trkpt lat="43.8207" lon="6.17957">
        <ele>727.3</ele>
        <time>2020-06-06T14:55:09Z</time>
      </trkpt>
      <trkpt lat="43.82079" lon="6.17954">
        <ele>727.5</ele>
        <time>2020-06-06T14:55:16Z</time>
      </trkpt>
      <trkpt lat="43.82088" lon="6.17951">
        <ele>727.6</ele>
        <time>2020-06-06T14:55:22Z</time>
      </trkpt>
      <trkpt lat="43.82097" lon="6.17946">
        <ele>727.9</ele>
        <time>2020-06-06T14:55:28Z</time>
      </trkpt>
      <trkpt lat="43.82107" lon="6.17941">
        <ele>728.2</ele>
        <time>2020-06-06T14:55:36Z</time>
      </trkpt>
      <trkpt lat="43.82116" lon="6.17936">
        <ele>728.5</ele>
        <time>2020-06-06T14:55:42Z</time>
      </trkpt>
      <trkpt lat="43.82125" lon="6.1793">
        <ele>728.7</ele>
        <time>2020-06-06T14:55:48Z</time>
      </trkpt>
      <trkpt lat="43.82134" lon="6.17926">
        <ele>728.9</ele>
        <time>2020-06-06T14:55:54Z</time>
      </trkpt>
      <trkpt lat="43.82144" lon="6.1792">
        <ele>729.1</ele>
        <time>2020-06-06T14:56:01Z</time>
      </trkpt>
      <trkpt lat="43.82152" lon="6.17914">
        <ele>729.3</ele>
        <time>2020-06-06T14:56:07Z</time>
      </trkpt>
      <trkpt lat="43.82161" lon="6.1791">
        <ele>729.5</ele>
        <time>2020-06-06T14:56:13Z</time>
      </trkpt>
      <trkpt lat="43.8217" lon="6.17906">
        <ele>729.8</ele>
        <time>2020-06-06T14:56:20Z</time>
      </trkpt>
      <trkpt lat="43.8218" lon="6.17901">
        <ele>730.1</ele>
        <time>2020-06-06T14:56:28Z</time>
      </trkpt>
      <trkpt lat="43.82188" lon="6.17897">
        <ele>730.2</ele>
        <time>2020-06-06T14:56:34Z</time>
      </trkpt>
      <trkpt lat="43.82198" lon="6.17892">
        <ele>730.3</ele>
        <time>2020-06-06T14:56:41Z</time>
      </trkpt>
      <trkpt lat="43.82207" lon="6.17886">
        <ele>730.3</ele>
        <time>2020-06-06T14:56:48Z</time>
      </trkpt>
      <trkpt lat="43.82216" lon="6.17882">
        <ele>730.5</ele>
        <time>2020-06-06T14:56:55Z</time>
      </trkpt>
      <trkpt lat="43.82226" lon="6.17879">
        <ele>730.5</ele>
        <time>2020-06-06T14:57:03Z</time>
      </trkpt>
      <trkpt lat="43.82235" lon="6.17877">
        <ele>730.5</ele>
        <time>2020-06-06T14:57:09Z</time>
      </trkpt>
      <trkpt lat="43.82245" lon="6.17875">
        <ele>730.6</ele>
        <time>2020-06-06T14:57:16Z</time>
      </trkpt>
      <trkpt lat="43.82255" lon="6.17873">
        <ele>730.7</ele>
        <time>2020-06-06T14:57:23Z</time>
      </trkpt>
      <trkpt lat="43.82265" lon="6.17872">
        <ele>730.7</ele>
        <time>2020-06-06T14:57:29Z</time>
      </trkpt>
      <trkpt lat="43.82274" lon="6.17868">
        <ele>730.7</ele>
        <time>2020-06-06T14:57:36Z</time>
      </trkpt>
      <trkpt lat="43.82283" lon="6.17864">
        <ele>730.7</ele>
        <time>2020-06-06T14:57:42Z</time>
      </trkpt>
      <trkpt lat="43.82293" lon="6.1786">
        <ele>730.6</ele>
        <time>2020-06-06T14:57:49Z</time>
      </trkpt>
      <trkpt lat="43.82303" lon="6.17855">
        <ele>730.6</ele>
        <time>2020-06-06T14:57:55Z</time>
      </trkpt>
      <trkpt lat="43.82312" lon="6.17851">
        <ele>730.6</ele>
        <time>2020-06-06T14:58:01Z</time>
      </trkpt>
      <trkpt lat="43.82321" lon="6.17848">
        <ele>730.5</ele>
        <time>2020-06-06T14:58:07Z</time>
      </trkpt>
      <trkpt lat="43.82331" lon="6.17845">
        <ele>730.5</ele>
        <time>2020-06-06T14:58:14Z</time>
      </trkpt>
      <trkpt lat="43.8234" lon="6.17842">
        <ele>730.4</ele>
        <time>2020-06-06T14:58:21Z</time>
      </trkpt>
      <trkpt lat="43.8235" lon="6.17841">
        <ele>730.5</ele>
        <time>2020-06-06T14:58:28Z</time>
      </trkpt>
      <trkpt lat="43.82359" lon="6.17839">
        <ele>730.6</ele>
        <time>2020-06-06T14:58:35Z</time>
      </trkpt>
      <trkpt lat="43.82369" lon="6.17837">
        <ele>730.5</ele>
        <time>2020-06-06T14:58:41Z</time>
      </trkpt>
      <trkpt lat="43.82378" lon="6.17836">
        <ele>730.4</ele>
        <time>2020-06-06T14:58:48Z</time>
      </trkpt>
      <trkpt lat="43.82388" lon="6.17834">
        <ele>729.8</ele>
        <time>2020-06-06T14:58:56Z</time>
      </trkpt>
      <trkpt lat="43.82398" lon="6.17834">
        <ele>729.2</ele>
        <time>2020-06-06T14:59:07Z</time>
      </trkpt>
      <trkpt lat="43.82408" lon="6.17832">
        <ele>728.5</ele>
        <time>2020-06-06T14:59:13Z</time>
      </trkpt>
      <trkpt lat="43.82417" lon="6.17832">
        <ele>727.3</ele>
        <time>2020-06-06T14:59:20Z</time>
      </trkpt>
      <trkpt lat="43.82426" lon="6.17832">
        <ele>725.9</ele>
        <time>2020-06-06T14:59:28Z</time>
      </trkpt>
      <trkpt lat="43.82437" lon="6.17833">
        <ele>724.7</ele>
        <time>2020-06-06T14:59:34Z</time>
      </trkpt>
      <trkpt lat="43.82446" lon="6.1783">
        <ele>723.2</ele>
        <time>2020-06-06T14:59:41Z</time>
      </trkpt>
      <trkpt lat="43.82456" lon="6.17827">
        <ele>721.8</ele>
        <time>2020-06-06T14:59:47Z</time>
      </trkpt>
      <trkpt lat="43.82465" lon="6.17824">
        <ele>720</ele>
        <time>2020-06-06T14:59:55Z</time>
      </trkpt>
      <trkpt lat="43.82475" lon="6.17824">
        <ele>718.3</ele>
        <time>2020-06-06T15:00:02Z</time>
      </trkpt>
      <trkpt lat="43.82484" lon="6.17829">
        <ele>716.3</ele>
        <time>2020-06-06T15:00:10Z</time>
      </trkpt>
      <trkpt lat="43.82492" lon="6.17836">
        <ele>714.3</ele>
        <time>2020-06-06T15:00:22Z</time>
      </trkpt>
      <trkpt lat="43.82505" lon="6.17841">
        <ele>713.1</ele>
        <time>2020-06-06T15:00:28Z</time>
      </trkpt>
      <trkpt lat="43.82512" lon="6.17851">
        <ele>712</ele>
        <time>2020-06-06T15:00:36Z</time>
      </trkpt>
      <trkpt lat="43.8252" lon="6.17858">
        <ele>711.3</ele>
        <time>2020-06-06T15:00:41Z</time>
      </trkpt>
      <trkpt lat="43.8253" lon="6.17863">
        <ele>710.6</ele>
        <time>2020-06-06T15:00:46Z</time>
      </trkpt>
      <trkpt lat="43.82539" lon="6.17868">
        <ele>710</ele>
        <time>2020-06-06T15:00:51Z</time>
      </trkpt>
      <trkpt lat="43.82548" lon="6.17873">
        <ele>709.3</ele>
        <time>2020-06-06T15:00:57Z</time>
      </trkpt>
      <trkpt lat="43.82557" lon="6.17878">
        <ele>708.7</ele>
        <time>2020-06-06T15:01:04Z</time>
      </trkpt>
      <trkpt lat="43.82566" lon="6.17883">
        <ele>707.8</ele>
        <time>2020-06-06T15:01:11Z</time>
      </trkpt>
      <trkpt lat="43.82574" lon="6.17889">
        <ele>706.7</ele>
        <time>2020-06-06T15:01:18Z</time>
      </trkpt>
      <trkpt lat="43.82584" lon="6.17894">
        <ele>705.4</ele>
        <time>2020-06-06T15:01:26Z</time>
      </trkpt>
      <trkpt lat="43.82593" lon="6.17894">
        <ele>704.7</ele>
        <time>2020-06-06T15:01:31Z</time>
      </trkpt>
      <trkpt lat="43.82601" lon="6.17887">
        <ele>702.9</ele>
        <time>2020-06-06T15:01:47Z</time>
      </trkpt>
      <trkpt lat="43.8261" lon="6.17883">
        <ele>702.1</ele>
        <time>2020-06-06T15:01:55Z</time>
      </trkpt>
      <trkpt lat="43.82619" lon="6.17881">
        <ele>701.6</ele>
        <time>2020-06-06T15:01:59Z</time>
      </trkpt>
      <trkpt lat="43.82628" lon="6.17876">
        <ele>701</ele>
        <time>2020-06-06T15:02:02Z</time>
      </trkpt>
      <trkpt lat="43.82633" lon="6.17864">
        <ele>700.4</ele>
        <time>2020-06-06T15:02:06Z</time>
      </trkpt>
      <trkpt lat="43.82635" lon="6.17849">
        <ele>699.9</ele>
        <time>2020-06-06T15:02:10Z</time>
      </trkpt>
      <trkpt lat="43.82635" lon="6.17834">
        <ele>699.2</ele>
        <time>2020-06-06T15:02:14Z</time>
      </trkpt>
      <trkpt lat="43.82635" lon="6.17819">
        <ele>698.5</ele>
        <time>2020-06-06T15:02:19Z</time>
      </trkpt>
      <trkpt lat="43.82633" lon="6.17803">
        <ele>698.1</ele>
        <time>2020-06-06T15:02:23Z</time>
      </trkpt>
      <trkpt lat="43.8263" lon="6.1779">
        <ele>697.8</ele>
        <time>2020-06-06T15:02:26Z</time>
      </trkpt>
      <trkpt lat="43.82626" lon="6.17777">
        <ele>697.6</ele>
        <time>2020-06-06T15:02:29Z</time>
      </trkpt>
      <trkpt lat="43.82623" lon="6.17764">
        <ele>697.3</ele>
        <time>2020-06-06T15:02:33Z</time>
      </trkpt>
      <trkpt lat="43.82624" lon="6.17752">
        <ele>696.8</ele>
        <time>2020-06-06T15:02:40Z</time>
      </trkpt>
      <trkpt lat="43.82622" lon="6.17739">
        <ele>695.4</ele>
        <time>2020-06-06T15:03:04Z</time>
      </trkpt>
      <trkpt lat="43.8262" lon="6.17724">
        <ele>695.1</ele>
        <time>2020-06-06T15:03:07Z</time>
      </trkpt>
      <trkpt lat="43.82618" lon="6.17708">
        <ele>694.5</ele>
        <time>2020-06-06T15:03:10Z</time>
      </trkpt>
      <trkpt lat="43.82616" lon="6.17694">
        <ele>694</ele>
        <time>2020-06-06T15:03:15Z</time>
      </trkpt>
      <trkpt lat="43.82616" lon="6.17681">
        <ele>693.7</ele>
        <time>2020-06-06T15:03:21Z</time>
      </trkpt>
      <trkpt lat="43.82618" lon="6.17668">
        <ele>693.4</ele>
        <time>2020-06-06T15:03:27Z</time>
      </trkpt>
      <trkpt lat="43.82618" lon="6.17655">
        <ele>693.1</ele>
        <time>2020-06-06T15:03:33Z</time>
      </trkpt>
      <trkpt lat="43.82618" lon="6.17642">
        <ele>692.7</ele>
        <time>2020-06-06T15:03:40Z</time>
      </trkpt>
      <trkpt lat="43.82618" lon="6.17628">
        <ele>692</ele>
        <time>2020-06-06T15:03:49Z</time>
      </trkpt>
      <trkpt lat="43.82615" lon="6.17616">
        <ele>690.1</ele>
        <time>2020-06-06T15:04:37Z</time>
      </trkpt>
      <trkpt lat="43.8261" lon="6.17605">
        <ele>689.9</ele>
        <time>2020-06-06T15:04:46Z</time>
      </trkpt>
      <trkpt lat="43.8261" lon="6.17592">
        <ele>690.1</ele>
        <time>2020-06-06T15:05:08Z</time>
      </trkpt>
      <trkpt lat="43.82608" lon="6.1758">
        <ele>690</ele>
        <time>2020-06-06T15:05:17Z</time>
      </trkpt>
      <trkpt lat="43.82607" lon="6.17566">
        <ele>689.9</ele>
        <time>2020-06-06T15:05:24Z</time>
      </trkpt>
      <trkpt lat="43.82606" lon="6.17553">
        <ele>689.7</ele>
        <time>2020-06-06T15:05:31Z</time>
      </trkpt>
      <trkpt lat="43.82606" lon="6.1754">
        <ele>689.6</ele>
        <time>2020-06-06T15:05:37Z</time>
      </trkpt>
      <trkpt lat="43.82606" lon="6.17527">
        <ele>689.3</ele>
        <time>2020-06-06T15:05:44Z</time>
      </trkpt>
      <trkpt lat="43.82606" lon="6.17514">
        <ele>689</ele>
        <time>2020-06-06T15:05:50Z</time>
      </trkpt>
      <trkpt lat="43.82605" lon="6.17501">
        <ele>688.7</ele>
        <time>2020-06-06T15:05:57Z</time>
      </trkpt>
      <trkpt lat="43.82607" lon="6.17488">
        <ele>688.4</ele>
        <time>2020-06-06T15:06:04Z</time>
      </trkpt>
      <trkpt lat="43.82611" lon="6.17475">
        <ele>688.1</ele>
        <time>2020-06-06T15:06:11Z</time>
      </trkpt>
      <trkpt lat="43.82616" lon="6.17462">
        <ele>687.8</ele>
        <time>2020-06-06T15:06:18Z</time>
      </trkpt>
      <trkpt lat="43.82621" lon="6.17452">
        <ele>687.6</ele>
        <time>2020-06-06T15:06:26Z</time>
      </trkpt>
      <trkpt lat="43.82627" lon="6.17442">
        <ele>687.4</ele>
        <time>2020-06-06T15:06:32Z</time>
      </trkpt>
      <trkpt lat="43.82631" lon="6.1743">
        <ele>687</ele>
        <time>2020-06-06T15:06:38Z</time>
      </trkpt>
      <trkpt lat="43.82636" lon="6.17419">
        <ele>686.6</ele>
        <time>2020-06-06T15:06:46Z</time>
      </trkpt>
      <trkpt lat="43.8264" lon="6.17406">
        <ele>686.2</ele>
        <time>2020-06-06T15:06:54Z</time>
      </trkpt>
      <trkpt lat="43.82645" lon="6.17395">
        <ele>686</ele>
        <time>2020-06-06T15:07:00Z</time>
      </trkpt>
      <trkpt lat="43.82649" lon="6.17383">
        <ele>685.4</ele>
        <time>2020-06-06T15:07:07Z</time>
      </trkpt>
      <trkpt lat="43.82652" lon="6.17372">
        <ele>684.9</ele>
        <time>2020-06-06T15:07:14Z</time>
      </trkpt>
      <trkpt lat="43.82655" lon="6.1736">
        <ele>684.6</ele>
        <time>2020-06-06T15:07:21Z</time>
      </trkpt>
      <trkpt lat="43.82661" lon="6.17348">
        <ele>684.3</ele>
        <time>2020-06-06T15:07:28Z</time>
      </trkpt>
      <trkpt lat="43.82666" lon="6.17337">
        <ele>684</ele>
        <time>2020-06-06T15:07:34Z</time>
      </trkpt>
      <trkpt lat="43.82671" lon="6.17325">
        <ele>683.3</ele>
        <time>2020-06-06T15:07:41Z</time>
      </trkpt>
      <trkpt lat="43.82676" lon="6.17312">
        <ele>682.5</ele>
        <time>2020-06-06T15:07:49Z</time>
      </trkpt>
      <trkpt lat="43.82679" lon="6.17299">
        <ele>682.1</ele>
        <time>2020-06-06T15:07:55Z</time>
      </trkpt>
      <trkpt lat="43.82682" lon="6.17285">
        <ele>681.7</ele>
        <time>2020-06-06T15:08:02Z</time>
      </trkpt>
      <trkpt lat="43.82685" lon="6.17272">
        <ele>681.4</ele>
        <time>2020-06-06T15:08:10Z</time>
      </trkpt>
      <trkpt lat="43.82687" lon="6.17259">
        <ele>681.2</ele>
        <time>2020-06-06T15:08:17Z</time>
      </trkpt>
      <trkpt lat="43.8269" lon="6.17245">
        <ele>680.8</ele>
        <time>2020-06-06T15:08:24Z</time>
      </trkpt>
      <trkpt lat="43.82694" lon="6.17233">
        <ele>680.5</ele>
        <time>2020-06-06T15:08:31Z</time>
      </trkpt>
      <trkpt lat="43.82698" lon="6.17221">
        <ele>680</ele>
        <time>2020-06-06T15:08:38Z</time>
      </trkpt>
      <trkpt lat="43.82706" lon="6.17215">
        <ele>679.6</ele>
        <time>2020-06-06T15:08:46Z</time>
      </trkpt>
      <trkpt lat="43.82716" lon="6.17209">
        <ele>679.4</ele>
        <time>2020-06-06T15:08:54Z</time>
      </trkpt>
      <trkpt lat="43.8272" lon="6.17198">
        <ele>679.3</ele>
        <time>2020-06-06T15:09:00Z</time>
      </trkpt>
      <trkpt lat="43.82724" lon="6.17185">
        <ele>679.1</ele>
        <time>2020-06-06T15:09:07Z</time>
      </trkpt>
      <trkpt lat="43.82729" lon="6.17174">
        <ele>678.8</ele>
        <time>2020-06-06T15:09:14Z</time>
      </trkpt>
      <trkpt lat="43.82735" lon="6.17161">
        <ele>678.6</ele>
        <time>2020-06-06T15:09:20Z</time>
      </trkpt>
      <trkpt lat="43.82739" lon="6.1715">
        <ele>678.2</ele>
        <time>2020-06-06T15:09:25Z</time>
      </trkpt>
      <trkpt lat="43.82744" lon="6.17139">
        <ele>677.7</ele>
        <time>2020-06-06T15:09:32Z</time>
      </trkpt>
      <trkpt lat="43.82746" lon="6.17125">
        <ele>677.3</ele>
        <time>2020-06-06T15:09:38Z</time>
      </trkpt>
      <trkpt lat="43.82745" lon="6.17112">
        <ele>677.1</ele>
        <time>2020-06-06T15:09:44Z</time>
      </trkpt>
      <trkpt lat="43.82747" lon="6.17099">
        <ele>676.9</ele>
        <time>2020-06-06T15:09:51Z</time>
      </trkpt>
      <trkpt lat="43.82752" lon="6.17088">
        <ele>676.8</ele>
        <time>2020-06-06T15:09:57Z</time>
      </trkpt>
      <trkpt lat="43.82757" lon="6.17076">
        <ele>676.4</ele>
        <time>2020-06-06T15:10:03Z</time>
      </trkpt>
      <trkpt lat="43.82759" lon="6.17063">
        <ele>676.2</ele>
        <time>2020-06-06T15:10:09Z</time>
      </trkpt>
      <trkpt lat="43.82762" lon="6.17051">
        <ele>676</ele>
        <time>2020-06-06T15:10:15Z</time>
      </trkpt>
      <trkpt lat="43.82762" lon="6.17037">
        <ele>675.7</ele>
        <time>2020-06-06T15:10:22Z</time>
      </trkpt>
      <trkpt lat="43.82765" lon="6.17025">
        <ele>675.2</ele>
        <time>2020-06-06T15:10:30Z</time>
      </trkpt>
      <trkpt lat="43.82771" lon="6.17012">
        <ele>674.8</ele>
        <time>2020-06-06T15:10:36Z</time>
      </trkpt>
      <trkpt lat="43.82776" lon="6.17001">
        <ele>674.5</ele>
        <time>2020-06-06T15:10:42Z</time>
      </trkpt>
      <trkpt lat="43.82781" lon="6.1699">
        <ele>674.2</ele>
        <time>2020-06-06T15:10:48Z</time>
      </trkpt>
      <trkpt lat="43.82786" lon="6.16979">
        <ele>673.8</ele>
        <time>2020-06-06T15:10:55Z</time>
      </trkpt>
      <trkpt lat="43.82792" lon="6.1697">
        <ele>673.5</ele>
        <time>2020-06-06T15:11:00Z</time>
      </trkpt>
      <trkpt lat="43.82799" lon="6.16958">
        <ele>673.1</ele>
        <time>2020-06-06T15:11:06Z</time>
      </trkpt>
      <trkpt lat="43.82802" lon="6.16946">
        <ele>672.7</ele>
        <time>2020-06-06T15:11:09Z</time>
      </trkpt>
      <trkpt lat="43.82802" lon="6.1693">
        <ele>672.4</ele>
        <time>2020-06-06T15:11:12Z</time>
      </trkpt>
      <trkpt lat="43.82801" lon="6.16915">
        <ele>672.2</ele>
        <time>2020-06-06T15:11:15Z</time>
      </trkpt>
      <trkpt lat="43.82799" lon="6.169">
        <ele>671.9</ele>
        <time>2020-06-06T15:11:18Z</time>
      </trkpt>
      <trkpt lat="43.82798" lon="6.16885">
        <ele>671.7</ele>
        <time>2020-06-06T15:11:21Z</time>
      </trkpt>
      <trkpt lat="43.82805" lon="6.16873">
        <ele>671.5</ele>
        <time>2020-06-06T15:11:25Z</time>
      </trkpt>
      <trkpt lat="43.82811" lon="6.1686">
        <ele>671.3</ele>
        <time>2020-06-06T15:11:28Z</time>
      </trkpt>
      <trkpt lat="43.82814" lon="6.16845">
        <ele>671.1</ele>
        <time>2020-06-06T15:11:31Z</time>
      </trkpt>
      <trkpt lat="43.82818" lon="6.16831">
        <ele>670.8</ele>
        <time>2020-06-06T15:11:34Z</time>
      </trkpt>
      <trkpt lat="43.82821" lon="6.16818">
        <ele>670.6</ele>
        <time>2020-06-06T15:11:37Z</time>
      </trkpt>
      <trkpt lat="43.82824" lon="6.16804">
        <ele>670.3</ele>
        <time>2020-06-06T15:11:40Z</time>
      </trkpt>
      <trkpt lat="43.82827" lon="6.16792">
        <ele>670</ele>
        <time>2020-06-06T15:11:43Z</time>
      </trkpt>
      <trkpt lat="43.82831" lon="6.16779">
        <ele>669.8</ele>
        <time>2020-06-06T15:11:46Z</time>
      </trkpt>
      <trkpt lat="43.82834" lon="6.16767">
        <ele>669.4</ele>
        <time>2020-06-06T15:11:49Z</time>
      </trkpt>
      <trkpt lat="43.82836" lon="6.16754">
        <ele>669.2</ele>
        <time>2020-06-06T15:11:52Z</time>
      </trkpt>
      <trkpt lat="43.82834" lon="6.16741">
        <ele>668.9</ele>
        <time>2020-06-06T15:11:58Z</time>
      </trkpt>
      <trkpt lat="43.82838" lon="6.16729">
        <ele>666.8</ele>
        <time>2020-06-06T15:12:23Z</time>
      </trkpt>
      <trkpt lat="43.82846" lon="6.16723">
        <ele>666.6</ele>
        <time>2020-06-06T15:12:27Z</time>
      </trkpt>
      <trkpt lat="43.82856" lon="6.16718">
        <ele>666.3</ele>
        <time>2020-06-06T15:12:31Z</time>
      </trkpt>
      <trkpt lat="43.82864" lon="6.16715">
        <ele>666</ele>
        <time>2020-06-06T15:12:36Z</time>
      </trkpt>
      <trkpt lat="43.82874" lon="6.16711">
        <ele>665.8</ele>
        <time>2020-06-06T15:12:42Z</time>
      </trkpt>
      <trkpt lat="43.82884" lon="6.16706">
        <ele>665.8</ele>
        <time>2020-06-06T15:12:48Z</time>
      </trkpt>
      <trkpt lat="43.82893" lon="6.16702">
        <ele>665.9</ele>
        <time>2020-06-06T15:12:59Z</time>
      </trkpt>
      <trkpt lat="43.82902" lon="6.16701">
        <ele>666</ele>
        <time>2020-06-06T15:13:09Z</time>
      </trkpt>
      <trkpt lat="43.82913" lon="6.16695">
        <ele>666</ele>
        <time>2020-06-06T15:13:13Z</time>
      </trkpt>
      <trkpt lat="43.82923" lon="6.16693">
        <ele>666</ele>
        <time>2020-06-06T15:13:17Z</time>
      </trkpt>
      <trkpt lat="43.82924" lon="6.1668">
        <ele>666.1</ele>
        <time>2020-06-06T15:13:27Z</time>
      </trkpt>
      <trkpt lat="43.82915" lon="6.16674">
        <ele>666.7</ele>
        <time>2020-06-06T15:13:42Z</time>
      </trkpt>
      <trkpt lat="43.82907" lon="6.16668">
        <ele>666.8</ele>
        <time>2020-06-06T15:13:48Z</time>
      </trkpt>
      <trkpt lat="43.82898" lon="6.16662">
        <ele>666.8</ele>
        <time>2020-06-06T15:13:54Z</time>
      </trkpt>
      <trkpt lat="43.82889" lon="6.16657">
        <ele>666.7</ele>
        <time>2020-06-06T15:14:01Z</time>
      </trkpt>
      <trkpt lat="43.82881" lon="6.16649">
        <ele>666.2</ele>
        <time>2020-06-06T15:14:08Z</time>
      </trkpt>
      <trkpt lat="43.82874" lon="6.16641">
        <ele>666</ele>
        <time>2020-06-06T15:14:14Z</time>
      </trkpt>
      <trkpt lat="43.82869" lon="6.16629">
        <ele>665.6</ele>
        <time>2020-06-06T15:14:20Z</time>
      </trkpt>
      <trkpt lat="43.82866" lon="6.16616">
        <ele>665.1</ele>
        <time>2020-06-06T15:14:27Z</time>
      </trkpt>
      <trkpt lat="43.82865" lon="6.16602">
        <ele>664.5</ele>
        <time>2020-06-06T15:14:33Z</time>
      </trkpt>
      <trkpt lat="43.82866" lon="6.16589">
        <ele>663.9</ele>
        <time>2020-06-06T15:14:38Z</time>
      </trkpt>
      <trkpt lat="43.82867" lon="6.16576">
        <ele>663.4</ele>
        <time>2020-06-06T15:14:44Z</time>
      </trkpt>
      <trkpt lat="43.8287" lon="6.16563">
        <ele>663.1</ele>
        <time>2020-06-06T15:14:51Z</time>
      </trkpt>
      <trkpt lat="43.82873" lon="6.16551">
        <ele>662.9</ele>
        <time>2020-06-06T15:14:57Z</time>
      </trkpt>
      <trkpt lat="43.82876" lon="6.16538">
        <ele>662.7</ele>
        <time>2020-06-06T15:15:04Z</time>
      </trkpt>
      <trkpt lat="43.82878" lon="6.16523">
        <ele>662.6</ele>
        <time>2020-06-06T15:15:11Z</time>
      </trkpt>
      <trkpt lat="43.82882" lon="6.1651">
        <ele>662.5</ele>
        <time>2020-06-06T15:15:17Z</time>
      </trkpt>
      <trkpt lat="43.82885" lon="6.16498">
        <ele>662.4</ele>
        <time>2020-06-06T15:15:23Z</time>
      </trkpt>
      <trkpt lat="43.8289" lon="6.16486">
        <ele>662.3</ele>
        <time>2020-06-06T15:15:30Z</time>
      </trkpt>
      <trkpt lat="43.82894" lon="6.16472">
        <ele>662.2</ele>
        <time>2020-06-06T15:15:37Z</time>
      </trkpt>
      <trkpt lat="43.82896" lon="6.16459">
        <ele>662.1</ele>
        <time>2020-06-06T15:15:43Z</time>
      </trkpt>
      <trkpt lat="43.82898" lon="6.16444">
        <ele>662</ele>
        <time>2020-06-06T15:15:50Z</time>
      </trkpt>
      <trkpt lat="43.82899" lon="6.16432">
        <ele>662</ele>
        <time>2020-06-06T15:15:56Z</time>
      </trkpt>
      <trkpt lat="43.82901" lon="6.16419">
        <ele>661.5</ele>
        <time>2020-06-06T15:16:02Z</time>
      </trkpt>
      <trkpt lat="43.82904" lon="6.16406">
        <ele>660.9</ele>
        <time>2020-06-06T15:16:09Z</time>
      </trkpt>
      <trkpt lat="43.82909" lon="6.16394">
        <ele>660.4</ele>
        <time>2020-06-06T15:16:16Z</time>
      </trkpt>
      <trkpt lat="43.82914" lon="6.16382">
        <ele>659.8</ele>
        <time>2020-06-06T15:16:27Z</time>
      </trkpt>
      <trkpt lat="43.82921" lon="6.16375">
        <ele>659.7</ele>
        <time>2020-06-06T15:16:33Z</time>
      </trkpt>
      <trkpt lat="43.8293" lon="6.16368">
        <ele>659.6</ele>
        <time>2020-06-06T15:16:40Z</time>
      </trkpt>
      <trkpt lat="43.82937" lon="6.16358">
        <ele>659.7</ele>
        <time>2020-06-06T15:16:47Z</time>
      </trkpt>
      <trkpt lat="43.82942" lon="6.16346">
        <ele>659.9</ele>
        <time>2020-06-06T15:16:54Z</time>
      </trkpt>
      <trkpt lat="43.82944" lon="6.16334">
        <ele>660</ele>
        <time>2020-06-06T15:17:01Z</time>
      </trkpt>
      <trkpt lat="43.82944" lon="6.16319">
        <ele>660.1</ele>
        <time>2020-06-06T15:17:08Z</time>
      </trkpt>
      <trkpt lat="43.82944" lon="6.16305">
        <ele>659.7</ele>
        <time>2020-06-06T15:17:14Z</time>
      </trkpt>
      <trkpt lat="43.82944" lon="6.16293">
        <ele>659.3</ele>
        <time>2020-06-06T15:17:20Z</time>
      </trkpt>
      <trkpt lat="43.82944" lon="6.16278">
        <ele>659</ele>
        <time>2020-06-06T15:17:31Z</time>
      </trkpt>
      <trkpt lat="43.82944" lon="6.16265">
        <ele>657.6</ele>
        <time>2020-06-06T15:18:32Z</time>
      </trkpt>
      <trkpt lat="43.8294" lon="6.16253">
        <ele>657.5</ele>
        <time>2020-06-06T15:18:38Z</time>
      </trkpt>
      <trkpt lat="43.82933" lon="6.16244">
        <ele>657.1</ele>
        <time>2020-06-06T15:18:45Z</time>
      </trkpt>
      <trkpt lat="43.82924" lon="6.16238">
        <ele>656.4</ele>
        <time>2020-06-06T15:18:53Z</time>
      </trkpt>
      <trkpt lat="43.82914" lon="6.16234">
        <ele>654.6</ele>
        <time>2020-06-06T15:19:08Z</time>
      </trkpt>
      <trkpt lat="43.82908" lon="6.16225">
        <ele>653.7</ele>
        <time>2020-06-06T15:19:17Z</time>
      </trkpt>
      <trkpt lat="43.82908" lon="6.16213">
        <ele>652.7</ele>
        <time>2020-06-06T15:19:24Z</time>
      </trkpt>
      <trkpt lat="43.82907" lon="6.16199">
        <ele>651.7</ele>
        <time>2020-06-06T15:19:31Z</time>
      </trkpt>
      <trkpt lat="43.82907" lon="6.16186">
        <ele>650.9</ele>
        <time>2020-06-06T15:19:37Z</time>
      </trkpt>
      <trkpt lat="43.82907" lon="6.16171">
        <ele>650.4</ele>
        <time>2020-06-06T15:19:42Z</time>
      </trkpt>
      <trkpt lat="43.82909" lon="6.16158">
        <ele>649.9</ele>
        <time>2020-06-06T15:19:49Z</time>
      </trkpt>
      <trkpt lat="43.82911" lon="6.16144">
        <ele>649.4</ele>
        <time>2020-06-06T15:19:56Z</time>
      </trkpt>
      <trkpt lat="43.82914" lon="6.16131">
        <ele>649.1</ele>
        <time>2020-06-06T15:20:03Z</time>
      </trkpt>
      <trkpt lat="43.82917" lon="6.16117">
        <ele>648.8</ele>
        <time>2020-06-06T15:20:10Z</time>
      </trkpt>
      <trkpt lat="43.82919" lon="6.16105">
        <ele>648.6</ele>
        <time>2020-06-06T15:20:14Z</time>
      </trkpt>
      <trkpt lat="43.82921" lon="6.16091">
        <ele>648.2</ele>
        <time>2020-06-06T15:20:20Z</time>
      </trkpt>
      <trkpt lat="43.82924" lon="6.16079">
        <ele>647.8</ele>
        <time>2020-06-06T15:20:28Z</time>
      </trkpt>
      <trkpt lat="43.82928" lon="6.16067">
        <ele>647.5</ele>
        <time>2020-06-06T15:20:33Z</time>
      </trkpt>
      <trkpt lat="43.8293" lon="6.16054">
        <ele>647.3</ele>
        <time>2020-06-06T15:20:40Z</time>
      </trkpt>
      <trkpt lat="43.82929" lon="6.16039">
        <ele>647</ele>
        <time>2020-06-06T15:20:45Z</time>
      </trkpt>
      <trkpt lat="43.8293" lon="6.16026">
        <ele>646.6</ele>
        <time>2020-06-06T15:20:50Z</time>
      </trkpt>
      <trkpt lat="43.82933" lon="6.16014">
        <ele>646.3</ele>
        <time>2020-06-06T15:20:56Z</time>
      </trkpt>
      <trkpt lat="43.8294" lon="6.16004">
        <ele>646</ele>
        <time>2020-06-06T15:21:04Z</time>
      </trkpt>
      <trkpt lat="43.82946" lon="6.15994">
        <ele>645.8</ele>
        <time>2020-06-06T15:21:11Z</time>
      </trkpt>
      <trkpt lat="43.82953" lon="6.15983">
        <ele>645.6</ele>
        <time>2020-06-06T15:21:16Z</time>
      </trkpt>
      <trkpt lat="43.82956" lon="6.15971">
        <ele>645.4</ele>
        <time>2020-06-06T15:21:22Z</time>
      </trkpt>
      <trkpt lat="43.82958" lon="6.15958">
        <ele>645.1</ele>
        <time>2020-06-06T15:21:29Z</time>
      </trkpt>
      <trkpt lat="43.82957" lon="6.15944">
        <ele>645</ele>
        <time>2020-06-06T15:21:36Z</time>
      </trkpt>
      <trkpt lat="43.82956" lon="6.15931">
        <ele>644.7</ele>
        <time>2020-06-06T15:21:41Z</time>
      </trkpt>
      <trkpt lat="43.82952" lon="6.15918">
        <ele>644.4</ele>
        <time>2020-06-06T15:21:47Z</time>
      </trkpt>
      <trkpt lat="43.82948" lon="6.15906">
        <ele>644.2</ele>
        <time>2020-06-06T15:21:53Z</time>
      </trkpt>
      <trkpt lat="43.82945" lon="6.15894">
        <ele>643.6</ele>
        <time>2020-06-06T15:22:00Z</time>
      </trkpt>
      <trkpt lat="43.82946" lon="6.15881">
        <ele>643.1</ele>
        <time>2020-06-06T15:22:08Z</time>
      </trkpt>
      <trkpt lat="43.82952" lon="6.15869">
        <ele>642.8</ele>
        <time>2020-06-06T15:22:15Z</time>
      </trkpt>
      <trkpt lat="43.8296" lon="6.15861">
        <ele>642.6</ele>
        <time>2020-06-06T15:22:19Z</time>
      </trkpt>
      <trkpt lat="43.82968" lon="6.15854">
        <ele>642.4</ele>
        <time>2020-06-06T15:22:24Z</time>
      </trkpt>
      <trkpt lat="43.82977" lon="6.15848">
        <ele>642.2</ele>
        <time>2020-06-06T15:22:30Z</time>
      </trkpt>
      <trkpt lat="43.82982" lon="6.15836">
        <ele>642.2</ele>
        <time>2020-06-06T15:22:36Z</time>
      </trkpt>
      <trkpt lat="43.82982" lon="6.15823">
        <ele>642.4</ele>
        <time>2020-06-06T15:22:43Z</time>
      </trkpt>
      <trkpt lat="43.82977" lon="6.15812">
        <ele>642.1</ele>
        <time>2020-06-06T15:22:52Z</time>
      </trkpt>
      <trkpt lat="43.82975" lon="6.15799">
        <ele>640.9</ele>
        <time>2020-06-06T15:23:01Z</time>
      </trkpt>
      <trkpt lat="43.82975" lon="6.15786">
        <ele>639.8</ele>
        <time>2020-06-06T15:23:09Z</time>
      </trkpt>
      <trkpt lat="43.82975" lon="6.15772">
        <ele>639.2</ele>
        <time>2020-06-06T15:23:14Z</time>
      </trkpt>
      <trkpt lat="43.82974" lon="6.15757">
        <ele>638.7</ele>
        <time>2020-06-06T15:23:19Z</time>
      </trkpt>
      <trkpt lat="43.82974" lon="6.15742">
        <ele>638.3</ele>
        <time>2020-06-06T15:23:26Z</time>
      </trkpt>
      <trkpt lat="43.82975" lon="6.15729">
        <ele>638</ele>
        <time>2020-06-06T15:23:32Z</time>
      </trkpt>
      <trkpt lat="43.82975" lon="6.15715">
        <ele>637.8</ele>
        <time>2020-06-06T15:23:38Z</time>
      </trkpt>
      <trkpt lat="43.82977" lon="6.15702">
        <ele>637.5</ele>
        <time>2020-06-06T15:23:44Z</time>
      </trkpt>
      <trkpt lat="43.8298" lon="6.15688">
        <ele>637.3</ele>
        <time>2020-06-06T15:23:50Z</time>
      </trkpt>
      <trkpt lat="43.82981" lon="6.15674">
        <ele>637</ele>
        <time>2020-06-06T15:23:57Z</time>
      </trkpt>
      <trkpt lat="43.82983" lon="6.15661">
        <ele>636.8</ele>
        <time>2020-06-06T15:24:06Z</time>
      </trkpt>
      <trkpt lat="43.82985" lon="6.15647">
        <ele>636.6</ele>
        <time>2020-06-06T15:24:13Z</time>
      </trkpt>
      <trkpt lat="43.82987" lon="6.15632">
        <ele>636.3</ele>
        <time>2020-06-06T15:24:20Z</time>
      </trkpt>
      <trkpt lat="43.82986" lon="6.15619">
        <ele>636.1</ele>
        <time>2020-06-06T15:24:24Z</time>
      </trkpt>
      <trkpt lat="43.82985" lon="6.15606">
        <ele>635.8</ele>
        <time>2020-06-06T15:24:30Z</time>
      </trkpt>
      <trkpt lat="43.82984" lon="6.15593">
        <ele>635.6</ele>
        <time>2020-06-06T15:24:37Z</time>
      </trkpt>
      <trkpt lat="43.82983" lon="6.15579">
        <ele>635.4</ele>
        <time>2020-06-06T15:24:44Z</time>
      </trkpt>
      <trkpt lat="43.82981" lon="6.15566">
        <ele>634.8</ele>
        <time>2020-06-06T15:24:50Z</time>
      </trkpt>
      <trkpt lat="43.82981" lon="6.15552">
        <ele>634.2</ele>
        <time>2020-06-06T15:24:58Z</time>
      </trkpt>
      <trkpt lat="43.82982" lon="6.15539">
        <ele>633.6</ele>
        <time>2020-06-06T15:25:05Z</time>
      </trkpt>
      <trkpt lat="43.82984" lon="6.15526">
        <ele>633.2</ele>
        <time>2020-06-06T15:25:12Z</time>
      </trkpt>
      <trkpt lat="43.82987" lon="6.15513">
        <ele>633.1</ele>
        <time>2020-06-06T15:25:18Z</time>
      </trkpt>
      <trkpt lat="43.82989" lon="6.15499">
        <ele>632.8</ele>
        <time>2020-06-06T15:25:23Z</time>
      </trkpt>
      <trkpt lat="43.82991" lon="6.15486">
        <ele>632.6</ele>
        <time>2020-06-06T15:25:29Z</time>
      </trkpt>
      <trkpt lat="43.82993" lon="6.15473">
        <ele>632.5</ele>
        <time>2020-06-06T15:25:35Z</time>
      </trkpt>
      <trkpt lat="43.82995" lon="6.15461">
        <ele>632.3</ele>
        <time>2020-06-06T15:25:42Z</time>
      </trkpt>
      <trkpt lat="43.82997" lon="6.15446">
        <ele>631.7</ele>
        <time>2020-06-06T15:25:50Z</time>
      </trkpt>
      <trkpt lat="43.82997" lon="6.15433">
        <ele>631.3</ele>
        <time>2020-06-06T15:25:56Z</time>
      </trkpt>
      <trkpt lat="43.82997" lon="6.1542">
        <ele>630.9</ele>
        <time>2020-06-06T15:26:01Z</time>
      </trkpt>
      <trkpt lat="43.82996" lon="6.15407">
        <ele>630.5</ele>
        <time>2020-06-06T15:26:08Z</time>
      </trkpt>
      <trkpt lat="43.82996" lon="6.15394">
        <ele>630.2</ele>
        <time>2020-06-06T15:26:15Z</time>
      </trkpt>
      <trkpt lat="43.82997" lon="6.15379">
        <ele>629.9</ele>
        <time>2020-06-06T15:26:22Z</time>
      </trkpt>
      <trkpt lat="43.82996" lon="6.15367">
        <ele>629.8</ele>
        <time>2020-06-06T15:26:26Z</time>
      </trkpt>
      <trkpt lat="43.82996" lon="6.15354">
        <ele>629.6</ele>
        <time>2020-06-06T15:26:33Z</time>
      </trkpt>
      <trkpt lat="43.83001" lon="6.15343">
        <ele>629.5</ele>
        <time>2020-06-06T15:26:38Z</time>
      </trkpt>
      <trkpt lat="43.8301" lon="6.1534">
        <ele>629.4</ele>
        <time>2020-06-06T15:26:45Z</time>
      </trkpt>
      <trkpt lat="43.8302" lon="6.15342">
        <ele>629.2</ele>
        <time>2020-06-06T15:26:52Z</time>
      </trkpt>
      <trkpt lat="43.83031" lon="6.15344">
        <ele>629.2</ele>
        <time>2020-06-06T15:26:56Z</time>
      </trkpt>
      <trkpt lat="43.8304" lon="6.15346">
        <ele>629.1</ele>
        <time>2020-06-06T15:27:02Z</time>
      </trkpt>
      <trkpt lat="43.83049" lon="6.15343">
        <ele>629.3</ele>
        <time>2020-06-06T15:27:08Z</time>
      </trkpt>
      <trkpt lat="43.83056" lon="6.15332">
        <ele>629.7</ele>
        <time>2020-06-06T15:27:14Z</time>
      </trkpt>
      <trkpt lat="43.83059" lon="6.1532">
        <ele>630.2</ele>
        <time>2020-06-06T15:27:21Z</time>
      </trkpt>
      <trkpt lat="43.83061" lon="6.15307">
        <ele>630.7</ele>
        <time>2020-06-06T15:27:28Z</time>
      </trkpt>
      <trkpt lat="43.83064" lon="6.15294">
        <ele>631</ele>
        <time>2020-06-06T15:27:35Z</time>
      </trkpt>
      <trkpt lat="43.83065" lon="6.15281">
        <ele>631.2</ele>
        <time>2020-06-06T15:27:43Z</time>
      </trkpt>
      <trkpt lat="43.83066" lon="6.15268">
        <ele>631.3</ele>
        <time>2020-06-06T15:27:50Z</time>
      </trkpt>
      <trkpt lat="43.83067" lon="6.15255">
        <ele>631.4</ele>
        <time>2020-06-06T15:27:57Z</time>
      </trkpt>
      <trkpt lat="43.83068" lon="6.15242">
        <ele>631.3</ele>
        <time>2020-06-06T15:28:02Z</time>
      </trkpt>
      <trkpt lat="43.83071" lon="6.15228">
        <ele>631.2</ele>
        <time>2020-06-06T15:28:08Z</time>
      </trkpt>
      <trkpt lat="43.83074" lon="6.15215">
        <ele>631</ele>
        <time>2020-06-06T15:28:15Z</time>
      </trkpt>
      <trkpt lat="43.83078" lon="6.15203">
        <ele>630.7</ele>
        <time>2020-06-06T15:28:21Z</time>
      </trkpt>
      <trkpt lat="43.83082" lon="6.1519">
        <ele>630.1</ele>
        <time>2020-06-06T15:28:28Z</time>
      </trkpt>
      <trkpt lat="43.83085" lon="6.15176">
        <ele>629.3</ele>
        <time>2020-06-06T15:28:34Z</time>
      </trkpt>
      <trkpt lat="43.83089" lon="6.15164">
        <ele>628.4</ele>
        <time>2020-06-06T15:28:43Z</time>
      </trkpt>
      <trkpt lat="43.83087" lon="6.15152">
        <ele>627.9</ele>
        <time>2020-06-06T15:28:49Z</time>
      </trkpt>
      <trkpt lat="43.83079" lon="6.15145">
        <ele>626.5</ele>
        <time>2020-06-06T15:28:59Z</time>
      </trkpt>
      <trkpt lat="43.83072" lon="6.15137">
        <ele>625.8</ele>
        <time>2020-06-06T15:29:10Z</time>
      </trkpt>
      <trkpt lat="43.83063" lon="6.15133">
        <ele>624.3</ele>
        <time>2020-06-06T15:29:59Z</time>
      </trkpt>
      <trkpt lat="43.83056" lon="6.15141">
        <ele>623.3</ele>
        <time>2020-06-06T15:30:39Z</time>
      </trkpt>
      <trkpt lat="43.83053" lon="6.15153">
        <ele>622.9</ele>
        <time>2020-06-06T15:30:47Z</time>
      </trkpt>
      <trkpt lat="43.83048" lon="6.15164">
        <ele>622.7</ele>
        <time>2020-06-06T15:30:54Z</time>
      </trkpt>
      <trkpt lat="43.83041" lon="6.15172">
        <ele>622.8</ele>
        <time>2020-06-06T15:31:03Z</time>
      </trkpt>
      <trkpt lat="43.83032" lon="6.15177">
        <ele>623.1</ele>
        <time>2020-06-06T15:31:11Z</time>
      </trkpt>
      <trkpt lat="43.83023" lon="6.15181">
        <ele>623.3</ele>
        <time>2020-06-06T15:31:18Z</time>
      </trkpt>
      <trkpt lat="43.83013" lon="6.1518">
        <ele>623.8</ele>
        <time>2020-06-06T15:31:26Z</time>
      </trkpt>
      <trkpt lat="43.83003" lon="6.1518">
        <ele>624.4</ele>
        <time>2020-06-06T15:31:33Z</time>
      </trkpt>
      <trkpt lat="43.82996" lon="6.15171">
        <ele>625.3</ele>
        <time>2020-06-06T15:31:41Z</time>
      </trkpt>
      <trkpt lat="43.82987" lon="6.15164">
        <ele>626.3</ele>
        <time>2020-06-06T15:31:49Z</time>
      </trkpt>
      <trkpt lat="43.82978" lon="6.1516">
        <ele>627.6</ele>
        <time>2020-06-06T15:31:56Z</time>
      </trkpt>
      <trkpt lat="43.82969" lon="6.15156">
        <ele>629.2</ele>
        <time>2020-06-06T15:32:03Z</time>
      </trkpt>
      <trkpt lat="43.8296" lon="6.15154">
        <ele>631.1</ele>
        <time>2020-06-06T15:32:10Z</time>
      </trkpt>
      <trkpt lat="43.82951" lon="6.15152">
        <ele>633.4</ele>
        <time>2020-06-06T15:32:18Z</time>
      </trkpt>
      <trkpt lat="43.82941" lon="6.1515">
        <ele>635.7</ele>
        <time>2020-06-06T15:32:27Z</time>
      </trkpt>
      <trkpt lat="43.82931" lon="6.1515">
        <ele>637.8</ele>
        <time>2020-06-06T15:32:35Z</time>
      </trkpt>
      <trkpt lat="43.82922" lon="6.15148">
        <ele>639.9</ele>
        <time>2020-06-06T15:32:44Z</time>
      </trkpt>
      <trkpt lat="43.82914" lon="6.15143">
        <ele>641.5</ele>
        <time>2020-06-06T15:32:52Z</time>
      </trkpt>
      <trkpt lat="43.82904" lon="6.15139">
        <ele>643.5</ele>
        <time>2020-06-06T15:33:01Z</time>
      </trkpt>
      <trkpt lat="43.82895" lon="6.15133">
        <ele>645.4</ele>
        <time>2020-06-06T15:33:09Z</time>
      </trkpt>
      <trkpt lat="43.82886" lon="6.15131">
        <ele>647.3</ele>
        <time>2020-06-06T15:33:17Z</time>
      </trkpt>
      <trkpt lat="43.82877" lon="6.1513">
        <ele>649.2</ele>
        <time>2020-06-06T15:33:25Z</time>
      </trkpt>
      <trkpt lat="43.82868" lon="6.15126">
        <ele>651.4</ele>
        <time>2020-06-06T15:33:34Z</time>
      </trkpt>
      <trkpt lat="43.82859" lon="6.15123">
        <ele>653.8</ele>
        <time>2020-06-06T15:33:43Z</time>
      </trkpt>
      <trkpt lat="43.82849" lon="6.15121">
        <ele>655.5</ele>
        <time>2020-06-06T15:33:50Z</time>
      </trkpt>
      <trkpt lat="43.82839" lon="6.1512">
        <ele>657.3</ele>
        <time>2020-06-06T15:33:59Z</time>
      </trkpt>
      <trkpt lat="43.82829" lon="6.1512">
        <ele>660.5</ele>
        <time>2020-06-06T15:36:00Z</time>
      </trkpt>
      <trkpt lat="43.8282" lon="6.15116">
        <ele>660.7</ele>
        <time>2020-06-06T15:36:08Z</time>
      </trkpt>
      <trkpt lat="43.8281" lon="6.15113">
        <ele>660.9</ele>
        <time>2020-06-06T15:36:15Z</time>
      </trkpt>
      <trkpt lat="43.82801" lon="6.15109">
        <ele>661.2</ele>
        <time>2020-06-06T15:36:22Z</time>
      </trkpt>
      <trkpt lat="43.82792" lon="6.15108">
        <ele>661.4</ele>
        <time>2020-06-06T15:36:29Z</time>
      </trkpt>
      <trkpt lat="43.82783" lon="6.15105">
        <ele>661.6</ele>
        <time>2020-06-06T15:36:35Z</time>
      </trkpt>
      <trkpt lat="43.82774" lon="6.15107">
        <ele>661.7</ele>
        <time>2020-06-06T15:36:42Z</time>
      </trkpt>
      <trkpt lat="43.82765" lon="6.15111">
        <ele>661.7</ele>
        <time>2020-06-06T15:36:50Z</time>
      </trkpt>
      <trkpt lat="43.82755" lon="6.15112">
        <ele>661.8</ele>
        <time>2020-06-06T15:37:00Z</time>
      </trkpt>
      <trkpt lat="43.82746" lon="6.15117">
        <ele>661.8</ele>
        <time>2020-06-06T15:37:08Z</time>
      </trkpt>
      <trkpt lat="43.82739" lon="6.15126">
        <ele>661.8</ele>
        <time>2020-06-06T15:37:16Z</time>
      </trkpt>
      <trkpt lat="43.82731" lon="6.15134">
        <ele>661.9</ele>
        <time>2020-06-06T15:37:24Z</time>
      </trkpt>
      <trkpt lat="43.82723" lon="6.15143">
        <ele>662</ele>
        <time>2020-06-06T15:37:32Z</time>
      </trkpt>
      <trkpt lat="43.82714" lon="6.15151">
        <ele>662.2</ele>
        <time>2020-06-06T15:37:40Z</time>
      </trkpt>
      <trkpt lat="43.82709" lon="6.1514">
        <ele>662.4</ele>
        <time>2020-06-06T15:37:48Z</time>
      </trkpt>
      <trkpt lat="43.82704" lon="6.15128">
        <ele>662.4</ele>
        <time>2020-06-06T15:37:56Z</time>
      </trkpt>
      <trkpt lat="43.82699" lon="6.15117">
        <ele>662.5</ele>
        <time>2020-06-06T15:38:03Z</time>
      </trkpt>
      <trkpt lat="43.82695" lon="6.15105">
        <ele>662.5</ele>
        <time>2020-06-06T15:38:11Z</time>
      </trkpt>
      <trkpt lat="43.8269" lon="6.15093">
        <ele>662.5</ele>
        <time>2020-06-06T15:38:14Z</time>
      </trkpt>
      <trkpt lat="43.82684" lon="6.15079">
        <ele>662.5</ele>
        <time>2020-06-06T15:38:17Z</time>
      </trkpt>
      <trkpt lat="43.82678" lon="6.15063">
        <ele>662.5</ele>
        <time>2020-06-06T15:38:20Z</time>
      </trkpt>
      <trkpt lat="43.82673" lon="6.15048">
        <ele>662.4</ele>
        <time>2020-06-06T15:38:23Z</time>
      </trkpt>
      <trkpt lat="43.82669" lon="6.15035">
        <ele>662</ele>
        <time>2020-06-06T15:38:27Z</time>
      </trkpt>
      <trkpt lat="43.82666" lon="6.15022">
        <ele>661.7</ele>
        <time>2020-06-06T15:38:32Z</time>
      </trkpt>
      <trkpt lat="43.82663" lon="6.15009">
        <ele>661.5</ele>
        <time>2020-06-06T15:38:36Z</time>
      </trkpt>
      <trkpt lat="43.82661" lon="6.14997">
        <ele>661.4</ele>
        <time>2020-06-06T15:38:39Z</time>
      </trkpt>
      <trkpt lat="43.82657" lon="6.1498">
        <ele>661.3</ele>
        <time>2020-06-06T15:38:42Z</time>
      </trkpt>
      <trkpt lat="43.82655" lon="6.14966">
        <ele>661.3</ele>
        <time>2020-06-06T15:38:44Z</time>
      </trkpt>
      <trkpt lat="43.82652" lon="6.14953">
        <ele>661.2</ele>
        <time>2020-06-06T15:38:46Z</time>
      </trkpt>
      <trkpt lat="43.82649" lon="6.14939">
        <ele>661.2</ele>
        <time>2020-06-06T15:38:48Z</time>
      </trkpt>
      <trkpt lat="43.82646" lon="6.14927">
        <ele>661.2</ele>
        <time>2020-06-06T15:38:50Z</time>
      </trkpt>
      <trkpt lat="43.82643" lon="6.14915">
        <ele>661.1</ele>
        <time>2020-06-06T15:38:52Z</time>
      </trkpt>
      <trkpt lat="43.82638" lon="6.14898">
        <ele>661.1</ele>
        <time>2020-06-06T15:38:55Z</time>
      </trkpt>
      <trkpt lat="43.82632" lon="6.1488">
        <ele>661</ele>
        <time>2020-06-06T15:38:58Z</time>
      </trkpt>
      <trkpt lat="43.82629" lon="6.14869">
        <ele>660.9</ele>
        <time>2020-06-06T15:39:00Z</time>
      </trkpt>
      <trkpt lat="43.82625" lon="6.14856">
        <ele>660.9</ele>
        <time>2020-06-06T15:39:02Z</time>
      </trkpt>
      <trkpt lat="43.8262" lon="6.14839">
        <ele>660.9</ele>
        <time>2020-06-06T15:39:05Z</time>
      </trkpt>
      <trkpt lat="43.82616" lon="6.14827">
        <ele>660.8</ele>
        <time>2020-06-06T15:39:07Z</time>
      </trkpt>
      <trkpt lat="43.82613" lon="6.1481">
        <ele>660.6</ele>
        <time>2020-06-06T15:39:10Z</time>
      </trkpt>
      <trkpt lat="43.8261" lon="6.14798">
        <ele>660.6</ele>
        <time>2020-06-06T15:39:12Z</time>
      </trkpt>
      <trkpt lat="43.82607" lon="6.14781">
        <ele>660.5</ele>
        <time>2020-06-06T15:39:15Z</time>
      </trkpt>
      <trkpt lat="43.82606" lon="6.14764">
        <ele>660.4</ele>
        <time>2020-06-06T15:39:18Z</time>
      </trkpt>
      <trkpt lat="43.82605" lon="6.14747">
        <ele>660.3</ele>
        <time>2020-06-06T15:39:21Z</time>
      </trkpt>
      <trkpt lat="43.82605" lon="6.14734">
        <ele>660.3</ele>
        <time>2020-06-06T15:39:23Z</time>
      </trkpt>
      <trkpt lat="43.82607" lon="6.14722">
        <ele>660.2</ele>
        <time>2020-06-06T15:39:25Z</time>
      </trkpt>
      <trkpt lat="43.82611" lon="6.14708">
        <ele>660.2</ele>
        <time>2020-06-06T15:39:28Z</time>
      </trkpt>
      <trkpt lat="43.82614" lon="6.14692">
        <ele>660.1</ele>
        <time>2020-06-06T15:39:31Z</time>
      </trkpt>
      <trkpt lat="43.82614" lon="6.14679">
        <ele>660</ele>
        <time>2020-06-06T15:39:34Z</time>
      </trkpt>
      <trkpt lat="43.82614" lon="6.14666">
        <ele>659.9</ele>
        <time>2020-06-06T15:39:42Z</time>
      </trkpt>
      <trkpt lat="43.82611" lon="6.14654">
        <ele>659.7</ele>
        <time>2020-06-06T15:40:21Z</time>
      </trkpt>
      <trkpt lat="43.8261" lon="6.1464">
        <ele>659.3</ele>
        <time>2020-06-06T15:41:33Z</time>
      </trkpt>
      <trkpt lat="43.82612" lon="6.14626">
        <ele>659.2</ele>
        <time>2020-06-06T15:42:44Z</time>
      </trkpt>
      <trkpt lat="43.82614" lon="6.14614">
        <ele>659.1</ele>
        <time>2020-06-06T15:42:49Z</time>
      </trkpt>
      <trkpt lat="43.82616" lon="6.14602">
        <ele>659.1</ele>
        <time>2020-06-06T15:42:55Z</time>
      </trkpt>
      <trkpt lat="43.82618" lon="6.14588">
        <ele>659</ele>
        <time>2020-06-06T15:43:02Z</time>
      </trkpt>
      <trkpt lat="43.8262" lon="6.14574">
        <ele>658.8</ele>
        <time>2020-06-06T15:43:09Z</time>
      </trkpt>
      <trkpt lat="43.82621" lon="6.14562">
        <ele>658.7</ele>
        <time>2020-06-06T15:43:16Z</time>
      </trkpt>
      <trkpt lat="43.82621" lon="6.14549">
        <ele>658.6</ele>
        <time>2020-06-06T15:43:23Z</time>
      </trkpt>
      <trkpt lat="43.82621" lon="6.14535">
        <ele>658.6</ele>
        <time>2020-06-06T15:43:30Z</time>
      </trkpt>
      <trkpt lat="43.82622" lon="6.14522">
        <ele>658.6</ele>
        <time>2020-06-06T15:43:36Z</time>
      </trkpt>
      <trkpt lat="43.82623" lon="6.14509">
        <ele>658.6</ele>
        <time>2020-06-06T15:43:42Z</time>
      </trkpt>
      <trkpt lat="43.82624" lon="6.14495">
        <ele>658.5</ele>
        <time>2020-06-06T15:43:49Z</time>
      </trkpt>
      <trkpt lat="43.82625" lon="6.14482">
        <ele>658.4</ele>
        <time>2020-06-06T15:43:56Z</time>
      </trkpt>
      <trkpt lat="43.82623" lon="6.14469">
        <ele>658.1</ele>
        <time>2020-06-06T15:44:02Z</time>
      </trkpt>
      <trkpt lat="43.82622" lon="6.14455">
        <ele>657.7</ele>
        <time>2020-06-06T15:44:09Z</time>
      </trkpt>
      <trkpt lat="43.82622" lon="6.14442">
        <ele>657.1</ele>
        <time>2020-06-06T15:44:16Z</time>
      </trkpt>
      <trkpt lat="43.8262" lon="6.14429">
        <ele>656.8</ele>
        <time>2020-06-06T15:44:22Z</time>
      </trkpt>
      <trkpt lat="43.82621" lon="6.14416">
        <ele>656.6</ele>
        <time>2020-06-06T15:44:28Z</time>
      </trkpt>
      <trkpt lat="43.82621" lon="6.14402">
        <ele>656.5</ele>
        <time>2020-06-06T15:44:35Z</time>
      </trkpt>
      <trkpt lat="43.82621" lon="6.1439">
        <ele>656.4</ele>
        <time>2020-06-06T15:44:42Z</time>
      </trkpt>
      <trkpt lat="43.8262" lon="6.14376">
        <ele>656.2</ele>
        <time>2020-06-06T15:44:48Z</time>
      </trkpt>
      <trkpt lat="43.82619" lon="6.14362">
        <ele>656</ele>
        <time>2020-06-06T15:44:54Z</time>
      </trkpt>
      <trkpt lat="43.82619" lon="6.14348">
        <ele>655.5</ele>
        <time>2020-06-06T15:45:01Z</time>
      </trkpt>
      <trkpt lat="43.82619" lon="6.14335">
        <ele>655.2</ele>
        <time>2020-06-06T15:45:08Z</time>
      </trkpt>
      <trkpt lat="43.8262" lon="6.14321">
        <ele>654.7</ele>
        <time>2020-06-06T15:45:15Z</time>
      </trkpt>
      <trkpt lat="43.82621" lon="6.14308">
        <ele>654.3</ele>
        <time>2020-06-06T15:45:22Z</time>
      </trkpt>
      <trkpt lat="43.82623" lon="6.14295">
        <ele>654</ele>
        <time>2020-06-06T15:45:29Z</time>
      </trkpt>
      <trkpt lat="43.82625" lon="6.14281">
        <ele>653.3</ele>
        <time>2020-06-06T15:45:43Z</time>
      </trkpt>
      <trkpt lat="43.82623" lon="6.14268">
        <ele>653</ele>
        <time>2020-06-06T15:45:50Z</time>
      </trkpt>
      <trkpt lat="43.8263" lon="6.14258">
        <ele>652.3</ele>
        <time>2020-06-06T15:46:22Z</time>
      </trkpt>
      <trkpt lat="43.82637" lon="6.14249">
        <ele>651.7</ele>
        <time>2020-06-06T15:47:00Z</time>
      </trkpt>
      <trkpt lat="43.82641" lon="6.14236">
        <ele>651.7</ele>
        <time>2020-06-06T15:47:16Z</time>
      </trkpt>
      <trkpt lat="43.82641" lon="6.14223">
        <ele>651.6</ele>
        <time>2020-06-06T15:47:23Z</time>
      </trkpt>
      <trkpt lat="43.82643" lon="6.1421">
        <ele>651.5</ele>
        <time>2020-06-06T15:47:30Z</time>
      </trkpt>
      <trkpt lat="43.82643" lon="6.14197">
        <ele>651.2</ele>
        <time>2020-06-06T15:47:37Z</time>
      </trkpt>
      <trkpt lat="43.82642" lon="6.14183">
        <ele>650.9</ele>
        <time>2020-06-06T15:47:44Z</time>
      </trkpt>
      <trkpt lat="43.82641" lon="6.14168">
        <ele>650.3</ele>
        <time>2020-06-06T15:47:50Z</time>
      </trkpt>
      <trkpt lat="43.8264" lon="6.14155">
        <ele>649.5</ele>
        <time>2020-06-06T15:47:57Z</time>
      </trkpt>
      <trkpt lat="43.82639" lon="6.14142">
        <ele>648.7</ele>
        <time>2020-06-06T15:48:03Z</time>
      </trkpt>
      <trkpt lat="43.82638" lon="6.1413">
        <ele>648</ele>
        <time>2020-06-06T15:48:09Z</time>
      </trkpt>
      <trkpt lat="43.82637" lon="6.14116">
        <ele>647.1</ele>
        <time>2020-06-06T15:48:16Z</time>
      </trkpt>
      <trkpt lat="43.82634" lon="6.14103">
        <ele>646.1</ele>
        <time>2020-06-06T15:48:23Z</time>
      </trkpt>
      <trkpt lat="43.82635" lon="6.14089">
        <ele>645.1</ele>
        <time>2020-06-06T15:48:31Z</time>
      </trkpt>
      <trkpt lat="43.82634" lon="6.14076">
        <ele>643.9</ele>
        <time>2020-06-06T15:48:38Z</time>
      </trkpt>
      <trkpt lat="43.82633" lon="6.14064">
        <ele>643.1</ele>
        <time>2020-06-06T15:48:44Z</time>
      </trkpt>
      <trkpt lat="43.82632" lon="6.1405">
        <ele>641.9</ele>
        <time>2020-06-06T15:48:51Z</time>
      </trkpt>
      <trkpt lat="43.82632" lon="6.14036">
        <ele>640.5</ele>
        <time>2020-06-06T15:48:58Z</time>
      </trkpt>
      <trkpt lat="43.8263" lon="6.14023">
        <ele>639.6</ele>
        <time>2020-06-06T15:49:04Z</time>
      </trkpt>
      <trkpt lat="43.8263" lon="6.14011">
        <ele>638.8</ele>
        <time>2020-06-06T15:49:11Z</time>
      </trkpt>
      <trkpt lat="43.82628" lon="6.13998">
        <ele>638.1</ele>
        <time>2020-06-06T15:49:17Z</time>
      </trkpt>
      <trkpt lat="43.82627" lon="6.13984">
        <ele>637.1</ele>
        <time>2020-06-06T15:49:26Z</time>
      </trkpt>
      <trkpt lat="43.82629" lon="6.13971">
        <ele>636.2</ele>
        <time>2020-06-06T15:49:34Z</time>
      </trkpt>
      <trkpt lat="43.82632" lon="6.13958">
        <ele>634.9</ele>
        <time>2020-06-06T15:49:41Z</time>
      </trkpt>
      <trkpt lat="43.82635" lon="6.13945">
        <ele>633.5</ele>
        <time>2020-06-06T15:49:49Z</time>
      </trkpt>
      <trkpt lat="43.82643" lon="6.13936">
        <ele>632.6</ele>
        <time>2020-06-06T15:49:57Z</time>
      </trkpt>
      <trkpt lat="43.8265" lon="6.13927">
        <ele>632.2</ele>
        <time>2020-06-06T15:50:04Z</time>
      </trkpt>
      <trkpt lat="43.82656" lon="6.13917">
        <ele>631.9</ele>
        <time>2020-06-06T15:50:10Z</time>
      </trkpt>
      <trkpt lat="43.82661" lon="6.13907">
        <ele>631.6</ele>
        <time>2020-06-06T15:50:17Z</time>
      </trkpt>
      <trkpt lat="43.82664" lon="6.13894">
        <ele>631.2</ele>
        <time>2020-06-06T15:50:25Z</time>
      </trkpt>
      <trkpt lat="43.82668" lon="6.13882">
        <ele>631</ele>
        <time>2020-06-06T15:50:32Z</time>
      </trkpt>
      <trkpt lat="43.82673" lon="6.13871">
        <ele>630.8</ele>
        <time>2020-06-06T15:50:42Z</time>
      </trkpt>
      <trkpt lat="43.82674" lon="6.13857">
        <ele>630.7</ele>
        <time>2020-06-06T15:50:50Z</time>
      </trkpt>
      <trkpt lat="43.82676" lon="6.13844">
        <ele>630.3</ele>
        <time>2020-06-06T15:50:56Z</time>
      </trkpt>
      <trkpt lat="43.8268" lon="6.13831">
        <ele>630.1</ele>
        <time>2020-06-06T15:51:03Z</time>
      </trkpt>
      <trkpt lat="43.82686" lon="6.13822">
        <ele>629.9</ele>
        <time>2020-06-06T15:51:10Z</time>
      </trkpt>
      <trkpt lat="43.82692" lon="6.13812">
        <ele>629.9</ele>
        <time>2020-06-06T15:51:18Z</time>
      </trkpt>
      <trkpt lat="43.82696" lon="6.138">
        <ele>629.7</ele>
        <time>2020-06-06T15:51:24Z</time>
      </trkpt>
      <trkpt lat="43.827" lon="6.13789">
        <ele>629.5</ele>
        <time>2020-06-06T15:51:31Z</time>
      </trkpt>
      <trkpt lat="43.82705" lon="6.13778">
        <ele>628.9</ele>
        <time>2020-06-06T15:51:38Z</time>
      </trkpt>
      <trkpt lat="43.82708" lon="6.13766">
        <ele>628.1</ele>
        <time>2020-06-06T15:51:45Z</time>
      </trkpt>
      <trkpt lat="43.82713" lon="6.13753">
        <ele>627.4</ele>
        <time>2020-06-06T15:51:52Z</time>
      </trkpt>
      <trkpt lat="43.82718" lon="6.13742">
        <ele>626.4</ele>
        <time>2020-06-06T15:51:59Z</time>
      </trkpt>
      <trkpt lat="43.82722" lon="6.13729">
        <ele>625.2</ele>
        <time>2020-06-06T15:52:06Z</time>
      </trkpt>
      <trkpt lat="43.82725" lon="6.13715">
        <ele>624.2</ele>
        <time>2020-06-06T15:52:14Z</time>
      </trkpt>
      <trkpt lat="43.82727" lon="6.13702">
        <ele>623.3</ele>
        <time>2020-06-06T15:52:21Z</time>
      </trkpt>
      <trkpt lat="43.82726" lon="6.1369">
        <ele>622.3</ele>
        <time>2020-06-06T15:52:27Z</time>
      </trkpt>
      <trkpt lat="43.82722" lon="6.13677">
        <ele>621.5</ele>
        <time>2020-06-06T15:52:33Z</time>
      </trkpt>
      <trkpt lat="43.82719" lon="6.13664">
        <ele>620.8</ele>
        <time>2020-06-06T15:52:40Z</time>
      </trkpt>
      <trkpt lat="43.82715" lon="6.13651">
        <ele>620.1</ele>
        <time>2020-06-06T15:52:47Z</time>
      </trkpt>
      <trkpt lat="43.8271" lon="6.1364">
        <ele>619.5</ele>
        <time>2020-06-06T15:52:53Z</time>
      </trkpt>
      <trkpt lat="43.82705" lon="6.13629">
        <ele>618.3</ele>
        <time>2020-06-06T15:53:00Z</time>
      </trkpt>
      <trkpt lat="43.827" lon="6.13619">
        <ele>617.4</ele>
        <time>2020-06-06T15:53:07Z</time>
      </trkpt>
      <trkpt lat="43.82695" lon="6.13608">
        <ele>616.7</ele>
        <time>2020-06-06T15:53:13Z</time>
      </trkpt>
      <trkpt lat="43.82692" lon="6.13595">
        <ele>615.3</ele>
        <time>2020-06-06T15:53:21Z</time>
      </trkpt>
      <trkpt lat="43.82688" lon="6.13583">
        <ele>614</ele>
        <time>2020-06-06T15:53:28Z</time>
      </trkpt>
      <trkpt lat="43.82687" lon="6.1357">
        <ele>613.3</ele>
        <time>2020-06-06T15:53:33Z</time>
      </trkpt>
      <trkpt lat="43.82686" lon="6.13557">
        <ele>612.2</ele>
        <time>2020-06-06T15:53:40Z</time>
      </trkpt>
      <trkpt lat="43.82684" lon="6.13544">
        <ele>610.9</ele>
        <time>2020-06-06T15:53:48Z</time>
      </trkpt>
      <trkpt lat="43.82682" lon="6.1353">
        <ele>609.5</ele>
        <time>2020-06-06T15:53:57Z</time>
      </trkpt>
      <trkpt lat="43.8268" lon="6.13518">
        <ele>608.9</ele>
        <time>2020-06-06T15:54:02Z</time>
      </trkpt>
      <trkpt lat="43.82681" lon="6.13504">
        <ele>608</ele>
        <time>2020-06-06T15:54:10Z</time>
      </trkpt>
      <trkpt lat="43.82681" lon="6.1349">
        <ele>607.2</ele>
        <time>2020-06-06T15:54:17Z</time>
      </trkpt>
      <trkpt lat="43.8268" lon="6.13476">
        <ele>606</ele>
        <time>2020-06-06T15:54:24Z</time>
      </trkpt>
      <trkpt lat="43.82677" lon="6.13464">
        <ele>605.2</ele>
        <time>2020-06-06T15:54:30Z</time>
      </trkpt>
      <trkpt lat="43.82675" lon="6.13451">
        <ele>604.4</ele>
        <time>2020-06-06T15:54:37Z</time>
      </trkpt>
      <trkpt lat="43.82673" lon="6.13438">
        <ele>603.4</ele>
        <time>2020-06-06T15:54:45Z</time>
      </trkpt>
      <trkpt lat="43.82676" lon="6.13426">
        <ele>602.4</ele>
        <time>2020-06-06T15:54:54Z</time>
      </trkpt>
      <trkpt lat="43.82683" lon="6.13435">
        <ele>601.6</ele>
        <time>2020-06-06T15:55:01Z</time>
      </trkpt>
      <trkpt lat="43.82688" lon="6.13446">
        <ele>600.9</ele>
        <time>2020-06-06T15:55:09Z</time>
      </trkpt>
      <trkpt lat="43.8269" lon="6.13459">
        <ele>600.3</ele>
        <time>2020-06-06T15:55:18Z</time>
      </trkpt>
      <trkpt lat="43.82693" lon="6.13472">
        <ele>600</ele>
        <time>2020-06-06T15:55:25Z</time>
      </trkpt>
      <trkpt lat="43.82695" lon="6.13484">
        <ele>599.6</ele>
        <time>2020-06-06T15:55:31Z</time>
      </trkpt>
      <trkpt lat="43.82698" lon="6.13497">
        <ele>599.2</ele>
        <time>2020-06-06T15:55:37Z</time>
      </trkpt>
      <trkpt lat="43.82702" lon="6.13509">
        <ele>598.8</ele>
        <time>2020-06-06T15:55:44Z</time>
      </trkpt>
      <trkpt lat="43.82707" lon="6.1352">
        <ele>598.2</ele>
        <time>2020-06-06T15:55:51Z</time>
      </trkpt>
      <trkpt lat="43.82711" lon="6.13531">
        <ele>597.7</ele>
        <time>2020-06-06T15:55:58Z</time>
      </trkpt>
      <trkpt lat="43.82715" lon="6.13543">
        <ele>597.4</ele>
        <time>2020-06-06T15:56:04Z</time>
      </trkpt>
      <trkpt lat="43.8272" lon="6.13555">
        <ele>596.8</ele>
        <time>2020-06-06T15:56:12Z</time>
      </trkpt>
      <trkpt lat="43.82726" lon="6.13566">
        <ele>596.4</ele>
        <time>2020-06-06T15:56:20Z</time>
      </trkpt>
      <trkpt lat="43.82732" lon="6.13577">
        <ele>595.9</ele>
        <time>2020-06-06T15:56:27Z</time>
      </trkpt>
      <trkpt lat="43.82736" lon="6.13589">
        <ele>595.5</ele>
        <time>2020-06-06T15:56:34Z</time>
      </trkpt>
      <trkpt lat="43.82742" lon="6.136">
        <ele>595.3</ele>
        <time>2020-06-06T15:56:41Z</time>
      </trkpt>
      <trkpt lat="43.82748" lon="6.1361">
        <ele>595.2</ele>
        <time>2020-06-06T15:56:47Z</time>
      </trkpt>
      <trkpt lat="43.82754" lon="6.13622">
        <ele>595</ele>
        <time>2020-06-06T15:56:55Z</time>
      </trkpt>
      <trkpt lat="43.82762" lon="6.13629">
        <ele>594.9</ele>
        <time>2020-06-06T15:57:01Z</time>
      </trkpt>
      <trkpt lat="43.82769" lon="6.13638">
        <ele>594.8</ele>
        <time>2020-06-06T15:57:07Z</time>
      </trkpt>
      <trkpt lat="43.82777" lon="6.13644">
        <ele>594.4</ele>
        <time>2020-06-06T15:57:14Z</time>
      </trkpt>
      <trkpt lat="43.82786" lon="6.13649">
        <ele>594</ele>
        <time>2020-06-06T15:57:22Z</time>
      </trkpt>
      <trkpt lat="43.82795" lon="6.13649">
        <ele>593.1</ele>
        <time>2020-06-06T15:57:30Z</time>
      </trkpt>
      <trkpt lat="43.82805" lon="6.13643">
        <ele>592.5</ele>
        <time>2020-06-06T15:57:36Z</time>
      </trkpt>
      <trkpt lat="43.82814" lon="6.13635">
        <ele>592.1</ele>
        <time>2020-06-06T15:57:41Z</time>
      </trkpt>
      <trkpt lat="43.82822" lon="6.13627">
        <ele>591.1</ele>
        <time>2020-06-06T15:57:50Z</time>
      </trkpt>
      <trkpt lat="43.82831" lon="6.13626">
        <ele>589.3</ele>
        <time>2020-06-06T15:58:29Z</time>
      </trkpt>
      <trkpt lat="43.82841" lon="6.13626">
        <ele>589.2</ele>
        <time>2020-06-06T15:58:37Z</time>
      </trkpt>
      <trkpt lat="43.8285" lon="6.13631">
        <ele>589.2</ele>
        <time>2020-06-06T15:58:49Z</time>
      </trkpt>
      <trkpt lat="43.82859" lon="6.13634">
        <ele>589.1</ele>
        <time>2020-06-06T15:58:56Z</time>
      </trkpt>
      <trkpt lat="43.82868" lon="6.13636">
        <ele>589.2</ele>
        <time>2020-06-06T15:59:04Z</time>
      </trkpt>
      <trkpt lat="43.82877" lon="6.13639">
        <ele>589.5</ele>
        <time>2020-06-06T15:59:11Z</time>
      </trkpt>
      <trkpt lat="43.82886" lon="6.13643">
        <ele>589.7</ele>
        <time>2020-06-06T15:59:21Z</time>
      </trkpt>
      <trkpt lat="43.82895" lon="6.13647">
        <ele>589.9</ele>
        <time>2020-06-06T15:59:30Z</time>
      </trkpt>
      <trkpt lat="43.82904" lon="6.13653">
        <ele>590</ele>
        <time>2020-06-06T15:59:37Z</time>
      </trkpt>
      <trkpt lat="43.82913" lon="6.13655">
        <ele>590</ele>
        <time>2020-06-06T15:59:46Z</time>
      </trkpt>
      <trkpt lat="43.8292" lon="6.13661">
        <ele>590</ele>
        <time>2020-06-06T15:59:54Z</time>
      </trkpt>
      <trkpt lat="43.82928" lon="6.13669">
        <ele>590.1</ele>
        <time>2020-06-06T16:00:07Z</time>
      </trkpt>
      <trkpt lat="43.82937" lon="6.13665">
        <ele>590.4</ele>
        <time>2020-06-06T16:01:05Z</time>
      </trkpt>
      <trkpt lat="43.82945" lon="6.1366">
        <ele>590.4</ele>
        <time>2020-06-06T16:01:12Z</time>
      </trkpt>
      <trkpt lat="43.82936" lon="6.1366">
        <ele>590.5</ele>
        <time>2020-06-06T16:01:40Z</time>
      </trkpt>
      <trkpt lat="43.82937" lon="6.13667">
        <ele>594.8</ele>
        <time>2020-06-06T16:03:56Z</time>
      </trkpt>
    </trkseg>
  </trk>
</gpx>